Darstellungsparameter: Aktuell verwendete Einstellungen:
Skalierung der Graphiken ... ?
xyx+y,   Skalierungsfaktor:      Skalierung: Modus: x, Faktor: 1
Darstellungszeitraum ... ?
Vom - - bis: - -   Zeitraum: 22.05.2016 - 21.11.2016
Min/Max/Avg-Anzeige ... ?
Zeige MMA aktuell
Zeige MMA Monat
Zeige MMA alles
Zeige --A aktuell
Zeige --A Monat
Zeige --A alles
Keine MMA-Anzeige
MMA:
Keine MMA-Graphiken
MMA-Basis: 22.05.2016 - 21.11.2016
Quicknavigation für Darstellung... ?
Tage:      1T, 2T, 3T, 5T -1T -2T -3T -5T +1T +2T +3T +5T
Wochen: 1W, 2W, 3W -1W -2W -3W +1W +2W +3W
Monate: 1M, 3M, 6M -1M -3M -6M +1M +3M +6M
Jahre:    1J, 3J, 5J, 10J -1J -3J -5J -10J +1J +3J +5J +10J
Nutze für die Darstellung ... ?
Originaldaten oder Mittelwerte auf ...
Stundenbasis Tagesbasis Wochenbasis
Monatsbasis Jahresbasis      Datenbasis: Original-Daten
Darstellen als:
Statistik (Auto) Statistik J:M      Darstellung:
Zur Graphik,    zurück zur Übersicht aller Sensoren.
 
Tabellarische Datenbersicht: ?
 
Sensor: Nr:Datum:Temp:Feuchte:Taupunkt:
Aussen-T/F 1 22-05-2016 00:00:00 16.3 C 81 % 13.04 C
2 22-05-2016 00:05:00 16.3 C 81 % 13.04 C
3 22-05-2016 00:10:00 16.3 C 81 % 13.04 C
4 22-05-2016 00:15:00 16.3 C 81 % 13.04 C
5 22-05-2016 00:20:00 16.4 C 81 % 13.13 C
6 22-05-2016 00:25:00 16.4 C 81 % 13.13 C
7 22-05-2016 00:30:00 16.4 C 80 % 12.94 C
8 22-05-2016 00:35:00 16.4 C 81 % 13.13 C
9 22-05-2016 00:40:00 16.5 C 80 % 13.04 C
10 22-05-2016 00:45:00 16.5 C 81 % 13.23 C
11 22-05-2016 00:50:00 16.5 C 80 % 13.04 C
12 22-05-2016 00:55:00 16.5 C 80 % 13.04 C
13 22-05-2016 01:00:00 16.4 C 79 % 12.75 C
14 22-05-2016 01:05:00 16.4 C 79 % 12.75 C
15 22-05-2016 01:10:00 16.5 C 79 % 12.85 C
16 22-05-2016 01:15:00 16.4 C 78 % 12.56 C
17 22-05-2016 01:20:00 16.4 C 79 % 12.75 C
18 22-05-2016 01:25:00 16.2 C 80 % 12.75 C
19 22-05-2016 01:30:00 16.1 C 80 % 12.65 C
20 22-05-2016 01:35:00 15.9 C 80 % 12.46 C
21 22-05-2016 01:40:00 15.7 C 81 % 12.45 C
22 22-05-2016 01:45:00 15.6 C 81 % 12.35 C
23 22-05-2016 01:50:00 15.4 C 82 % 12.35 C
24 22-05-2016 01:55:00 15.4 C 82 % 12.35 C
25 22-05-2016 02:00:00 15.3 C 83 % 12.43 C
Sensor: Nr:Datum:Temp:Feuchte:Taupunkt:
Aussen-T/F 26 22-05-2016 02:05:00 15.2 C 83 % 12.33 C
27 22-05-2016 02:10:00 15.2 C 83 % 12.33 C
28 22-05-2016 02:15:00 15.1 C 83 % 12.24 C
29 22-05-2016 02:20:00 15.1 C 83 % 12.24 C
30 22-05-2016 02:25:00 15 C 83 % 12.14 C
31 22-05-2016 02:30:00 14.9 C 83 % 12.04 C
32 22-05-2016 02:35:00 14.8 C 83 % 11.94 C
33 22-05-2016 02:40:00 14.7 C 84 % 12.03 C
34 22-05-2016 02:45:00 14.6 C 84 % 11.93 C
35 22-05-2016 02:50:00 14.4 C 85 % 11.91 C
36 22-05-2016 02:55:00 14.4 C 85 % 11.91 C
37 22-05-2016 03:00:00 14.3 C 85 % 11.81 C
38 22-05-2016 03:05:00 14.2 C 85 % 11.72 C
39 22-05-2016 03:10:00 14.1 C 86 % 11.8 C
40 22-05-2016 03:15:00 14 C 86 % 11.7 C
41 22-05-2016 03:20:00 13.9 C 86 % 11.6 C
42 22-05-2016 03:25:00 13.8 C 86 % 11.5 C
43 22-05-2016 03:30:00 13.7 C 87 % 11.58 C
44 22-05-2016 03:35:00 13.6 C 87 % 11.48 C
45 22-05-2016 03:40:00 13.5 C 88 % 11.55 C
46 22-05-2016 03:45:00 13.4 C 88 % 11.45 C
47 22-05-2016 03:50:00 13.3 C 88 % 11.36 C
48 22-05-2016 03:55:00 13.2 C 88 % 11.26 C
49 22-05-2016 04:00:00 13.2 C 89 % 11.43 C
50 22-05-2016 04:05:00 13.1 C 89 % 11.33 C
Sensor: Nr:Datum:Temp:Feuchte:Taupunkt:
Aussen-T/F 51 22-05-2016 04:10:00 13.1 C 90 % 11.5 C
52 22-05-2016 04:15:00 12.9 C 89 % 11.13 C
53 22-05-2016 04:20:00 12.9 C 89 % 11.13 C
54 22-05-2016 04:25:00 12.8 C 90 % 11.2 C
55 22-05-2016 04:30:00 12.7 C 90 % 11.1 C
56 22-05-2016 04:35:00 12.7 C 90 % 11.1 C
57 22-05-2016 04:40:00 12.6 C 91 % 11.17 C
58 22-05-2016 04:45:00 12.5 C 91 % 11.07 C
59 22-05-2016 04:50:00 12.5 C 91 % 11.07 C
60 22-05-2016 04:55:00 12.5 C 91 % 11.07 C
61 22-05-2016 05:00:00 12.4 C 91 % 10.97 C
62 22-05-2016 05:05:00 12.4 C 92 % 11.14 C
63 22-05-2016 05:10:00 12.3 C 91 % 10.87 C
64 22-05-2016 05:15:00 12.3 C 92 % 11.04 C
65 22-05-2016 05:20:00 12.3 C 92 % 11.04 C
66 22-05-2016 05:25:00 12.3 C 92 % 11.04 C
67 22-05-2016 05:30:00 12.3 C 92 % 11.04 C
68 22-05-2016 05:35:00 12.3 C 93 % 11.2 C
69 22-05-2016 05:40:00 12.3 C 92 % 11.04 C
70 22-05-2016 05:45:00 12.2 C 92 % 10.94 C
71 22-05-2016 05:50:00 12.1 C 92 % 10.84 C
72 22-05-2016 05:55:00 12.1 C 93 % 11 C
73 22-05-2016 06:00:00 12.1 C 93 % 11 C
74 22-05-2016 06:05:00 12.1 C 93 % 11 C
75 22-05-2016 06:10:00 12.1 C 93 % 11 C
Sensor: Nr:Datum:Temp:Feuchte:Taupunkt:
Aussen-T/F 76 22-05-2016 06:15:00 12.1 C 93 % 11 C
77 22-05-2016 06:20:00 12.1 C 93 % 11 C
78 22-05-2016 06:25:00 12.1 C 93 % 11 C
79 22-05-2016 06:30:00 12.1 C 93 % 11 C
80 22-05-2016 06:35:00 12.1 C 93 % 11 C
81 22-05-2016 06:40:00 12.1 C 93 % 11 C
82 22-05-2016 06:45:00 12.2 C 93 % 11.1 C
83 22-05-2016 06:50:00 12.3 C 94 % 11.36 C
84 22-05-2016 06:55:00 12.4 C 94 % 11.46 C
85 22-05-2016 07:00:00 12.4 C 94 % 11.46 C
86 22-05-2016 07:05:00 12.6 C 94 % 11.66 C
87 22-05-2016 07:10:00 12.6 C 94 % 11.66 C
88 22-05-2016 07:15:00 12.7 C 94 % 11.76 C
89 22-05-2016 07:20:00 12.7 C 94 % 11.76 C
90 22-05-2016 07:25:00 12.8 C 94 % 11.86 C
91 22-05-2016 07:30:00 13 C 94 % 12.06 C
92 22-05-2016 07:35:00 13.2 C 94 % 12.26 C
93 22-05-2016 07:40:00 13.3 C 94 % 12.36 C
94 22-05-2016 07:45:00 13.6 C 94 % 12.65 C
95 22-05-2016 07:50:00 14 C 93 % 12.89 C
96 22-05-2016 07:55:00 14.3 C 93 % 13.18 C
97 22-05-2016 08:00:00 14.6 C 92 % 13.32 C
98 22-05-2016 08:05:00 14.8 C 91 % 13.35 C
99 22-05-2016 08:10:00 14.9 C 90 % 13.28 C
100 22-05-2016 08:15:00 15.1 C 90 % 13.47 C
Sensor: Nr:Datum:Temp:Feuchte:Taupunkt:
Aussen-T/F 101 22-05-2016 08:20:00 15.2 C 90 % 13.57 C
102 22-05-2016 08:25:00 15.4 C 90 % 13.77 C
103 22-05-2016 08:30:00 15.6 C 90 % 13.97 C
104 22-05-2016 08:35:00 15.9 C 90 % 14.26 C
105 22-05-2016 08:40:00 16.3 C 90 % 14.66 C
106 22-05-2016 08:45:00 16.6 C 89 % 14.78 C
107 22-05-2016 08:50:00 16.8 C 85 % 14.26 C
108 22-05-2016 08:55:00 17.3 C 87 % 15.12 C
109 22-05-2016 09:00:00 17.5 C 84 % 14.77 C
110 22-05-2016 09:05:00 17.8 C 81 % 14.5 C
111 22-05-2016 09:10:00 18.2 C 78 % 14.3 C
112 22-05-2016 09:15:00 18.6 C 76 % 14.29 C
113 22-05-2016 09:20:00 19.1 C 75 % 14.57 C
114 22-05-2016 09:25:00 19.5 C 73 % 14.53 C
115 22-05-2016 09:30:00 19.8 C 72 % 14.61 C
116 22-05-2016 09:35:00 20.2 C 71 % 14.78 C
117 22-05-2016 09:40:00 20.4 C 71 % 14.97 C
118 22-05-2016 09:45:00 20.6 C 69 % 14.71 C
119 22-05-2016 09:50:00 20.7 C 72 % 15.47 C
120 22-05-2016 09:55:00 20.7 C 68 % 14.58 C
121 22-05-2016 10:00:00 20.8 C 67 % 14.45 C
122 22-05-2016 10:05:00 20.9 C 70 % 15.23 C
123 22-05-2016 10:10:00 21 C 68 % 14.87 C
124 22-05-2016 10:15:00 21.2 C 70 % 15.51 C
125 22-05-2016 10:20:00 21.3 C 67 % 14.93 C
Sensor: Nr:Datum:Temp:Feuchte:Taupunkt:
Aussen-T/F 126 22-05-2016 10:25:00 21.4 C 67 % 15.02 C
127 22-05-2016 10:30:00 21.6 C 66 % 14.98 C
128 22-05-2016 10:35:00 21.6 C 67 % 15.21 C
129 22-05-2016 10:40:00 21.7 C 66 % 15.07 C
130 22-05-2016 10:45:00 21.8 C 67 % 15.4 C
131 22-05-2016 10:50:00 21.8 C 67 % 15.4 C
132 22-05-2016 10:55:00 21.8 C 66 % 15.17 C
133 22-05-2016 11:00:00 21.8 C 67 % 15.4 C
134 22-05-2016 11:05:00 21.8 C 66 % 15.17 C
135 22-05-2016 11:10:00 21.8 C 67 % 15.4 C
136 22-05-2016 11:15:00 21.8 C 66 % 15.17 C
137 22-05-2016 11:20:00 21.9 C 65 % 15.02 C
138 22-05-2016 11:25:00 22.1 C 64 % 14.97 C
139 22-05-2016 11:30:00 22.1 C 63 % 14.73 C
140 22-05-2016 11:35:00 22.2 C 63 % 14.82 C
141 22-05-2016 11:40:00 22.2 C 62 % 14.58 C
142 22-05-2016 11:45:00 22.2 C 63 % 14.82 C
143 22-05-2016 11:50:00 22.3 C 63 % 14.92 C
144 22-05-2016 11:55:00 22.5 C 62 % 14.86 C
145 22-05-2016 12:00:00 22.6 C 64 % 15.45 C
146 22-05-2016 12:05:00 22.7 C 64 % 15.54 C
147 22-05-2016 12:10:00 22.8 C 64 % 15.64 C
148 22-05-2016 12:15:00 22.8 C 60 % 14.63 C
149 22-05-2016 12:20:00 22.8 C 60 % 14.63 C
150 22-05-2016 12:25:00 22.8 C 60 % 14.63 C
Sensor: Nr:Datum:Temp:Feuchte:Taupunkt:
Aussen-T/F 151 22-05-2016 12:30:00 22.9 C 62 % 15.23 C
152 22-05-2016 12:35:00 23 C 61 % 15.08 C
153 22-05-2016 12:40:00 23.2 C 61 % 15.26 C
154 22-05-2016 12:45:00 23.3 C 58 % 14.58 C
155 22-05-2016 12:50:00 23.4 C 59 % 14.93 C
156 22-05-2016 12:55:00 23.4 C 56 % 14.13 C
157 22-05-2016 13:00:00 23.3 C 57 % 14.31 C
158 22-05-2016 13:05:00 23.3 C 57 % 14.31 C
159 22-05-2016 13:10:00 23.3 C 60 % 15.1 C
160 22-05-2016 13:15:00 23.2 C 59 % 14.75 C
161 22-05-2016 13:20:00 23.3 C 58 % 14.58 C
162 22-05-2016 13:25:00 23.4 C 58 % 14.67 C
163 22-05-2016 13:30:00 23.6 C 57 % 14.59 C
164 22-05-2016 13:35:00 23.6 C 57 % 14.59 C
165 22-05-2016 13:40:00 23.7 C 58 % 14.95 C
166 22-05-2016 13:45:00 23.9 C 57 % 14.87 C
167 22-05-2016 13:50:00 24 C 57 % 14.96 C
168 22-05-2016 13:55:00 24.1 C 57 % 15.05 C
169 22-05-2016 14:00:00 24.1 C 55 % 14.5 C
170 22-05-2016 14:05:00 24.1 C 57 % 15.05 C
171 22-05-2016 14:10:00 24.2 C 55 % 14.59 C
172 22-05-2016 14:15:00 24.3 C 58 % 15.51 C
173 22-05-2016 14:20:00 24.6 C 57 % 15.52 C
174 22-05-2016 14:25:00 24.8 C 56 % 15.43 C
175 22-05-2016 14:30:00 24.7 C 56 % 15.33 C
Sensor: Nr:Datum:Temp:Feuchte:Taupunkt:
Aussen-T/F 176 22-05-2016 14:35:00 24.8 C 57 % 15.7 C
177 22-05-2016 14:40:00 24.9 C 57 % 15.8 C
178 22-05-2016 14:45:00 24.8 C 55 % 15.15 C
179 22-05-2016 14:50:00 24.9 C 57 % 15.8 C
180 22-05-2016 14:55:00 24.9 C 54 % 14.95 C
181 22-05-2016 15:00:00 24.9 C 57 % 15.8 C
182 22-05-2016 15:05:00 24.8 C 54 % 14.86 C
183 22-05-2016 15:10:00 24.6 C 54 % 14.68 C
184 22-05-2016 15:15:00 24.5 C 56 % 15.15 C
185 22-05-2016 15:20:00 24.5 C 55 % 14.87 C
186 22-05-2016 15:25:00 24.5 C 57 % 15.42 C
187 22-05-2016 15:30:00 24.8 C 58 % 15.98 C
188 22-05-2016 15:35:00 25 C 56 % 15.61 C
189 22-05-2016 15:40:00 25.2 C 53 % 14.94 C
190 22-05-2016 15:45:00 25.3 C 53 % 15.03 C
191 22-05-2016 15:50:00 25.3 C 55 % 15.61 C
192 22-05-2016 15:55:00 25.2 C 57 % 16.08 C
193 22-05-2016 16:00:00 25 C 56 % 15.61 C
194 22-05-2016 16:05:00 24.9 C 56 % 15.52 C
195 22-05-2016 16:10:00 24.7 C 51 % 13.89 C
196 22-05-2016 16:15:00 24.6 C 55 % 14.96 C
197 22-05-2016 16:20:00 24.4 C 55 % 14.78 C
198 22-05-2016 16:25:00 24.7 C 53 % 14.48 C
199 22-05-2016 16:30:00 24.9 C 49 % 13.46 C
200 22-05-2016 16:35:00 24.9 C 51 % 14.07 C
Sensor: Nr:Datum:Temp:Feuchte:Taupunkt:
Aussen-T/F 201 22-05-2016 16:40:00 24.8 C 46 % 12.4 C
202 22-05-2016 16:45:00 24.6 C 46 % 12.22 C
203 22-05-2016 16:50:00 24.4 C 45 % 11.7 C
204 22-05-2016 16:55:00 24.3 C 45 % 11.61 C
205 22-05-2016 17:00:00 24.2 C 45 % 11.52 C
206 22-05-2016 17:05:00 24.1 C 52 % 13.63 C
207 22-05-2016 17:10:00 23.8 C 56 % 14.5 C
208 22-05-2016 17:15:00 23.7 C 58 % 14.95 C
209 22-05-2016 17:20:00 23.5 C 59 % 15.03 C
210 22-05-2016 17:25:00 23.3 C 60 % 15.1 C
211 22-05-2016 17:30:00 23 C 61 % 15.08 C
212 22-05-2016 17:35:00 22.8 C 62 % 15.14 C
213 22-05-2016 17:40:00 22.6 C 63 % 15.2 C
214 22-05-2016 17:45:00 22.4 C 63 % 15.01 C
215 22-05-2016 17:50:00 22.2 C 65 % 15.31 C
216 22-05-2016 17:55:00 22.1 C 66 % 15.45 C
217 22-05-2016 18:00:00 21.9 C 65 % 15.02 C
218 22-05-2016 18:05:00 21.8 C 68 % 15.63 C
219 22-05-2016 18:10:00 21.7 C 68 % 15.54 C
220 22-05-2016 18:15:00 21.6 C 68 % 15.44 C
221 22-05-2016 18:20:00 21.6 C 69 % 15.67 C
222 22-05-2016 18:25:00 21.8 C 68 % 15.63 C
223 22-05-2016 18:30:00 21.9 C 67 % 15.5 C
224 22-05-2016 18:35:00 21.8 C 67 % 15.4 C
225 22-05-2016 18:40:00 21.7 C 69 % 15.77 C
Sensor: Nr:Datum:Temp:Feuchte:Taupunkt:
Aussen-T/F 226 22-05-2016 18:45:00 21.7 C 68 % 15.54 C
227 22-05-2016 18:50:00 21.7 C 69 % 15.77 C
228 22-05-2016 18:55:00 21.8 C 70 % 16.09 C
229 22-05-2016 19:00:00 22.1 C 68 % 15.92 C
230 22-05-2016 19:05:00 22.3 C 66 % 15.64 C
231 22-05-2016 19:10:00 22.2 C 66 % 15.55 C
232 22-05-2016 19:15:00 22.1 C 66 % 15.45 C
233 22-05-2016 19:20:00 21.8 C 60 % 13.69 C
234 22-05-2016 19:25:00 21.6 C 59 % 13.25 C
235 22-05-2016 19:30:00 21.4 C 57 % 12.53 C
236 22-05-2016 19:35:00 21.2 C 58 % 12.61 C
237 22-05-2016 19:40:00 21.1 C 55 % 11.71 C
238 22-05-2016 19:45:00 20.9 C 58 % 12.33 C
239 22-05-2016 19:50:00 20.8 C 59 % 12.5 C
240 22-05-2016 19:55:00 20.6 C 60 % 12.57 C
241 22-05-2016 20:00:00 20.4 C 58 % 11.86 C
242 22-05-2016 20:05:00 20.3 C 58 % 11.77 C
243 22-05-2016 20:10:00 20.2 C 61 % 12.44 C
244 22-05-2016 20:15:00 20 C 61 % 12.26 C
245 22-05-2016 20:20:00 19.9 C 59 % 11.66 C
246 22-05-2016 20:25:00 19.8 C 62 % 12.31 C
247 22-05-2016 20:30:00 19.7 C 63 % 12.46 C
248 22-05-2016 20:35:00 19.4 C 63 % 12.18 C
249 22-05-2016 20:40:00 19.3 C 61 % 11.6 C
250 22-05-2016 20:45:00 19.2 C 64 % 12.23 C
Sensor: Nr:Datum:Temp:Feuchte:Taupunkt:
Aussen-T/F 251 22-05-2016 20:50:00 19.1 C 65 % 12.37 C
252 22-05-2016 20:55:00 18.9 C 66 % 12.41 C
253 22-05-2016 21:00:00 18.8 C 68 % 12.77 C
254 22-05-2016 21:05:00 18.8 C 69 % 13 C
255 22-05-2016 21:10:00 18.7 C 70 % 13.12 C
256 22-05-2016 21:15:00 18.5 C 70 % 12.93 C
257 22-05-2016 21:20:00 18.4 C 69 % 12.61 C
258 22-05-2016 21:25:00 18.3 C 72 % 13.17 C
259 22-05-2016 21:30:00 18.2 C 68 % 12.2 C
260 22-05-2016 21:35:00 18.2 C 68 % 12.2 C
261 22-05-2016 21:40:00 18.2 C 68 % 12.2 C
262 22-05-2016 21:45:00 18.2 C 69 % 12.42 C
263 22-05-2016 21:50:00 18.2 C 69 % 12.42 C
264 22-05-2016 21:55:00 18.1 C 67 % 11.88 C
265 22-05-2016 22:00:00 18.1 C 68 % 12.11 C
266 22-05-2016 22:05:00 18.1 C 68 % 12.11 C
267 22-05-2016 22:10:00 18.1 C 70 % 12.55 C
268 22-05-2016 22:15:00 17.9 C 70 % 12.35 C
269 22-05-2016 22:20:00 17.8 C 72 % 12.69 C
270 22-05-2016 22:25:00 17.6 C 72 % 12.5 C
271 22-05-2016 22:30:00 17.4 C 74 % 12.72 C
272 22-05-2016 22:35:00 17.3 C 74 % 12.62 C
273 22-05-2016 22:40:00 17.2 C 73 % 12.32 C
274 22-05-2016 22:45:00 17.1 C 74 % 12.43 C
275 22-05-2016 22:50:00 17.1 C 75 % 12.64 C
Sensor: Nr:Datum:Temp:Feuchte:Taupunkt:
Aussen-T/F 276 22-05-2016 22:55:00 17.1 C 78 % 13.24 C
277 22-05-2016 23:00:00 16.9 C 78 % 13.04 C
278 22-05-2016 23:05:00 16.8 C 80 % 13.33 C
279 22-05-2016 23:10:00 16.7 C 81 % 13.43 C
280 22-05-2016 23:15:00 16.5 C 82 % 13.42 C
281 22-05-2016 23:20:00 16.3 C 82 % 13.22 C
282 22-05-2016 23:25:00 16.1 C 83 % 13.21 C
283 22-05-2016 23:30:00 15.9 C 84 % 13.2 C
284 22-05-2016 23:35:00 15.9 C 85 % 13.38 C
285 22-05-2016 23:40:00 15.8 C 85 % 13.28 C
286 22-05-2016 23:45:00 15.7 C 86 % 13.37 C
287 22-05-2016 23:50:00 15.7 C 86 % 13.37 C
288 22-05-2016 23:55:00 15.6 C 86 % 13.27 C
289 23-05-2016 00:00:00 15.4 C 87 % 13.25 C
290 23-05-2016 00:05:00 15.3 C 87 % 13.15 C
291 23-05-2016 00:10:00 15.2 C 88 % 13.23 C
292 23-05-2016 00:15:00 15.1 C 88 % 13.13 C
293 23-05-2016 00:20:00 15.1 C 88 % 13.13 C
294 23-05-2016 00:25:00 15 C 89 % 13.2 C
295 23-05-2016 00:30:00 14.9 C 89 % 13.1 C
296 23-05-2016 00:35:00 14.8 C 89 % 13.01 C
297 23-05-2016 00:40:00 14.8 C 90 % 13.18 C
298 23-05-2016 00:45:00 14.8 C 90 % 13.18 C
299 23-05-2016 00:50:00 14.7 C 91 % 13.25 C
300 23-05-2016 00:55:00 14.7 C 91 % 13.25 C
Sensor: Nr:Datum:Temp:Feuchte:Taupunkt:
Aussen-T/F 301 23-05-2016 01:00:00 14.7 C 91 % 13.25 C
302 23-05-2016 01:05:00 14.6 C 91 % 13.15 C
303 23-05-2016 01:10:00 14.6 C 91 % 13.15 C
304 23-05-2016 01:15:00 14.6 C 91 % 13.15 C
305 23-05-2016 01:20:00 14.5 C 91 % 13.05 C
306 23-05-2016 01:25:00 14.5 C 92 % 13.22 C
307 23-05-2016 01:30:00 14.4 C 91 % 12.95 C
308 23-05-2016 01:35:00 14.4 C 91 % 12.95 C
309 23-05-2016 01:40:00 14.4 C 91 % 12.95 C
310 23-05-2016 01:45:00 14.4 C 91 % 12.95 C
311 23-05-2016 01:50:00 14.4 C 91 % 12.95 C
312 23-05-2016 01:55:00 14.5 C 91 % 13.05 C
313 23-05-2016 02:00:00 14.5 C 90 % 12.88 C
314 23-05-2016 02:05:00 14.5 C 90 % 12.88 C
315 23-05-2016 02:10:00 14.5 C 90 % 12.88 C
316 23-05-2016 02:15:00 14.5 C 90 % 12.88 C
317 23-05-2016 02:20:00 14.5 C 89 % 12.71 C
318 23-05-2016 02:25:00 14.5 C 89 % 12.71 C
319 23-05-2016 02:30:00 14.6 C 89 % 12.81 C
320 23-05-2016 02:35:00 14.6 C 88 % 12.64 C
321 23-05-2016 02:40:00 14.6 C 88 % 12.64 C
322 23-05-2016 02:45:00 14.6 C 87 % 12.46 C
323 23-05-2016 02:50:00 14.6 C 87 % 12.46 C
324 23-05-2016 02:55:00 14.7 C 88 % 12.73 C
325 23-05-2016 03:00:00 14.7 C 88 % 12.73 C
Sensor: Nr:Datum:Temp:Feuchte:Taupunkt:
Aussen-T/F 326 23-05-2016 03:05:00 14.7 C 87 % 12.56 C
327 23-05-2016 03:10:00 14.6 C 87 % 12.46 C
328 23-05-2016 03:15:00 14.6 C 87 % 12.46 C
329 23-05-2016 03:20:00 14.6 C 87 % 12.46 C
330 23-05-2016 03:25:00 14.6 C 87 % 12.46 C
331 23-05-2016 03:30:00 14.6 C 86 % 12.29 C
332 23-05-2016 03:35:00 14.7 C 87 % 12.56 C
333 23-05-2016 03:40:00 14.7 C 86 % 12.38 C
334 23-05-2016 03:45:00 14.7 C 85 % 12.21 C
335 23-05-2016 03:50:00 14.7 C 85 % 12.21 C
336 23-05-2016 03:55:00 14.6 C 84 % 11.93 C
337 23-05-2016 04:00:00 14.5 C 84 % 11.83 C
338 23-05-2016 04:05:00 14.4 C 84 % 11.73 C
339 23-05-2016 04:10:00 14.3 C 84 % 11.64 C
340 23-05-2016 04:15:00 14.2 C 85 % 11.72 C
341 23-05-2016 04:20:00 14.1 C 85 % 11.62 C
342 23-05-2016 04:25:00 14.1 C 85 % 11.62 C
343 23-05-2016 04:30:00 13.9 C 85 % 11.42 C
344 23-05-2016 04:35:00 13.8 C 85 % 11.32 C
345 23-05-2016 04:40:00 13.8 C 85 % 11.32 C
346 23-05-2016 04:45:00 13.7 C 86 % 11.4 C
347 23-05-2016 04:50:00 13.7 C 87 % 11.58 C
348 23-05-2016 04:55:00 13.6 C 88 % 11.65 C
349 23-05-2016 05:00:00 13.4 C 88 % 11.45 C
350 23-05-2016 05:05:00 13.3 C 89 % 11.53 C
Sensor: Nr:Datum:Temp:Feuchte:Taupunkt:
Aussen-T/F 351 23-05-2016 05:10:00 13.2 C 89 % 11.43 C
352 23-05-2016 05:15:00 13.2 C 90 % 11.6 C
353 23-05-2016 05:20:00 13.1 C 90 % 11.5 C
354 23-05-2016 05:25:00 13.1 C 90 % 11.5 C
355 23-05-2016 05:30:00 13 C 91 % 11.57 C
356 23-05-2016 05:35:00 12.9 C 91 % 11.47 C
357 23-05-2016 05:40:00 12.9 C 91 % 11.47 C
358 23-05-2016 05:45:00 12.9 C 91 % 11.47 C
359 23-05-2016 05:50:00 12.8 C 91 % 11.37 C
360 23-05-2016 05:55:00 12.8 C 91 % 11.37 C
361 23-05-2016 06:00:00 12.8 C 91 % 11.37 C
362 23-05-2016 06:05:00 12.8 C 91 % 11.37 C
363 23-05-2016 06:10:00 12.8 C 91 % 11.37 C
364 23-05-2016 06:15:00 12.8 C 91 % 11.37 C
365 23-05-2016 06:20:00 12.8 C 91 % 11.37 C
366 23-05-2016 06:25:00 12.8 C 91 % 11.37 C
367 23-05-2016 06:30:00 12.8 C 91 % 11.37 C
368 23-05-2016 06:35:00 12.8 C 91 % 11.37 C
369 23-05-2016 06:40:00 12.8 C 91 % 11.37 C
370 23-05-2016 06:45:00 12.8 C 91 % 11.37 C
371 23-05-2016 06:50:00 12.8 C 91 % 11.37 C
372 23-05-2016 06:55:00 12.8 C 90 % 11.2 C
373 23-05-2016 07:00:00 12.8 C 90 % 11.2 C
374 23-05-2016 07:05:00 12.8 C 90 % 11.2 C
375 23-05-2016 07:10:00 12.8 C 90 % 11.2 C
Sensor: Nr:Datum:Temp:Feuchte:Taupunkt:
Aussen-T/F 376 23-05-2016 07:15:00 12.9 C 90 % 11.3 C
377 23-05-2016 07:20:00 12.9 C 90 % 11.3 C
378 23-05-2016 07:25:00 12.9 C 90 % 11.3 C
379 23-05-2016 07:30:00 13 C 89 % 11.23 C
380 23-05-2016 07:35:00 13 C 90 % 11.4 C
381 23-05-2016 07:40:00 13.1 C 90 % 11.5 C
382 23-05-2016 07:45:00 13.1 C 90 % 11.5 C
383 23-05-2016 07:50:00 13.1 C 90 % 11.5 C
384 23-05-2016 07:55:00 13.1 C 90 % 11.5 C
385 23-05-2016 08:00:00 13.1 C 90 % 11.5 C
386 23-05-2016 08:05:00 13.1 C 90 % 11.5 C
387 23-05-2016 08:10:00 13.1 C 90 % 11.5 C
388 23-05-2016 08:15:00 13.1 C 90 % 11.5 C
389 23-05-2016 08:20:00 13.1 C 90 % 11.5 C
390 23-05-2016 08:25:00 13.1 C 90 % 11.5 C
391 23-05-2016 08:30:00 13.2 C 90 % 11.6 C
392 23-05-2016 08:35:00 13.2 C 90 % 11.6 C
393 23-05-2016 08:40:00 13.3 C 89 % 11.53 C
394 23-05-2016 08:45:00 13.4 C 90 % 11.79 C
395 23-05-2016 08:50:00 13.6 C 89 % 11.82 C
396 23-05-2016 08:55:00 13.7 C 89 % 11.92 C
397 23-05-2016 09:00:00 13.8 C 87 % 11.68 C
398 23-05-2016 09:05:00 13.9 C 87 % 11.77 C
399 23-05-2016 09:10:00 14.1 C 87 % 11.97 C
400 23-05-2016 09:15:00 14.2 C 86 % 11.89 C
Sensor: Nr:Datum:Temp:Feuchte:Taupunkt:
Aussen-T/F 401 23-05-2016 09:20:00 14.3 C 85 % 11.81 C
402 23-05-2016 09:25:00 14.3 C 85 % 11.81 C
403 23-05-2016 09:30:00 14.4 C 85 % 11.91 C
404 23-05-2016 09:35:00 14.4 C 85 % 11.91 C
405 23-05-2016 09:40:00 14.4 C 84 % 11.73 C
406 23-05-2016 09:45:00 14.4 C 85 % 11.91 C
407 23-05-2016 09:50:00 14.4 C 85 % 11.91 C
408 23-05-2016 09:55:00 14.4 C 83 % 11.55 C
409 23-05-2016 10:00:00 14.4 C 83 % 11.55 C
410 23-05-2016 10:05:00 14.4 C 83 % 11.55 C
411 23-05-2016 10:10:00 14.5 C 83 % 11.65 C
412 23-05-2016 10:15:00 14.4 C 83 % 11.55 C
413 23-05-2016 10:20:00 14.4 C 82 % 11.37 C
414 23-05-2016 10:25:00 14.4 C 83 % 11.55 C
415 23-05-2016 10:30:00 14.6 C 83 % 11.75 C
416 23-05-2016 10:35:00 14.8 C 83 % 11.94 C
417 23-05-2016 10:40:00 15 C 79 % 11.39 C
418 23-05-2016 10:45:00 15 C 79 % 11.39 C
419 23-05-2016 10:50:00 15.1 C 76 % 10.9 C
420 23-05-2016 10:55:00 15.2 C 76 % 11 C
421 23-05-2016 11:00:00 15.2 C 75 % 10.8 C
422 23-05-2016 11:05:00 15.2 C 75 % 10.8 C
423 23-05-2016 11:10:00 15.1 C 77 % 11.1 C
424 23-05-2016 11:15:00 15.2 C 76 % 11 C
425 23-05-2016 11:20:00 15.2 C 75 % 10.8 C
Sensor: Nr:Datum:Temp:Feuchte:Taupunkt:
Aussen-T/F 426 23-05-2016 11:25:00 15.2 C 75 % 10.8 C
427 23-05-2016 11:30:00 15.3 C 74 % 10.7 C
428 23-05-2016 11:35:00 15.4 C 74 % 10.79 C
429 23-05-2016 11:40:00 15.5 C 75 % 11.09 C
430 23-05-2016 11:45:00 15.7 C 73 % 10.88 C
431 23-05-2016 11:50:00 15.7 C 72 % 10.67 C
432 23-05-2016 11:55:00 15.7 C 72 % 10.67 C
433 23-05-2016 12:00:00 15.8 C 72 % 10.77 C
434 23-05-2016 12:05:00 16 C 71 % 10.75 C
435 23-05-2016 12:10:00 16.1 C 69 % 10.42 C
436 23-05-2016 12:15:00 16.2 C 71 % 10.94 C
437 23-05-2016 12:20:00 16.2 C 69 % 10.51 C
438 23-05-2016 12:25:00 16.2 C 69 % 10.51 C
439 23-05-2016 12:30:00 16.3 C 70 % 10.82 C
440 23-05-2016 12:35:00 16.5 C 68 % 10.58 C
441 23-05-2016 12:40:00 16.6 C 67 % 10.45 C
442 23-05-2016 12:45:00 16.7 C 68 % 10.77 C
443 23-05-2016 12:50:00 16.8 C 66 % 10.42 C
444 23-05-2016 12:55:00 16.7 C 69 % 10.99 C
445 23-05-2016 13:00:00 16.7 C 67 % 10.55 C
446 23-05-2016 13:05:00 16.7 C 68 % 10.77 C
447 23-05-2016 13:10:00 16.8 C 68 % 10.87 C
448 23-05-2016 13:15:00 16.8 C 66 % 10.42 C
449 23-05-2016 13:20:00 16.6 C 68 % 10.67 C
450 23-05-2016 13:25:00 16.4 C 70 % 10.92 C
Sensor: Nr:Datum:Temp:Feuchte:Taupunkt:
Aussen-T/F 451 23-05-2016 13:30:00 16.3 C 69 % 10.61 C
452 23-05-2016 13:35:00 16.3 C 70 % 10.82 C
453 23-05-2016 13:40:00 16.3 C 69 % 10.61 C
454 23-05-2016 13:45:00 16.3 C 71 % 11.04 C
455 23-05-2016 13:50:00 16.3 C 70 % 10.82 C
456 23-05-2016 13:55:00 16.3 C 70 % 10.82 C
457 23-05-2016 14:00:00 16.2 C 68 % 10.29 C
458 23-05-2016 14:05:00 16.2 C 69 % 10.51 C
459 23-05-2016 14:10:00 15.9 C 68 % 10.01 C
460 23-05-2016 14:15:00 15.7 C 69 % 10.03 C
461 23-05-2016 14:20:00 15.5 C 72 % 10.48 C
462 23-05-2016 14:25:00 15.2 C 74 % 10.6 C
463 23-05-2016 14:30:00 15 C 75 % 10.61 C
464 23-05-2016 14:35:00 14.8 C 76 % 10.61 C
465 23-05-2016 14:40:00 14.7 C 77 % 10.71 C
466 23-05-2016 14:45:00 14.7 C 77 % 10.71 C
467 23-05-2016 14:50:00 14.7 C 77 % 10.71 C
468 23-05-2016 14:55:00 14.8 C 76 % 10.61 C
469 23-05-2016 15:00:00 14.9 C 75 % 10.51 C
470 23-05-2016 15:05:00 15.2 C 75 % 10.8 C
471 23-05-2016 15:10:00 15.3 C 74 % 10.7 C
472 23-05-2016 15:15:00 15.3 C 74 % 10.7 C
473 23-05-2016 15:20:00 15.4 C 74 % 10.79 C
474 23-05-2016 15:25:00 15.4 C 75 % 11 C
475 23-05-2016 15:30:00 15.4 C 75 % 11 C
Sensor: Nr:Datum:Temp:Feuchte:Taupunkt:
Aussen-T/F 476 23-05-2016 15:35:00 15.4 C 75 % 11 C
477 23-05-2016 15:40:00 15.2 C 75 % 10.8 C
478 23-05-2016 15:45:00 15.1 C 76 % 10.9 C
479 23-05-2016 15:50:00 15 C 77 % 11 C
480 23-05-2016 15:55:00 14.9 C 77 % 10.91 C
481 23-05-2016 16:00:00 14.9 C 78 % 11.1 C
482 23-05-2016 16:05:00 14.8 C 77 % 10.81 C
483 23-05-2016 16:10:00 14.8 C 78 % 11 C
484 23-05-2016 16:15:00 14.7 C 76 % 10.52 C
485 23-05-2016 16:20:00 14.7 C 78 % 10.91 C
486 23-05-2016 16:25:00 14.6 C 78 % 10.81 C
487 23-05-2016 16:30:00 14.6 C 79 % 11 C
488 23-05-2016 16:35:00 14.4 C 78 % 10.62 C
489 23-05-2016 16:40:00 14.3 C 79 % 10.71 C
490 23-05-2016 16:45:00 14.3 C 80 % 10.9 C
491 23-05-2016 16:50:00 14.2 C 80 % 10.8 C
492 23-05-2016 16:55:00 14.2 C 80 % 10.8 C
493 23-05-2016 17:00:00 14.1 C 80 % 10.71 C
494 23-05-2016 17:05:00 14.1 C 80 % 10.71 C
495 23-05-2016 17:10:00 14.1 C 81 % 10.89 C
496 23-05-2016 17:15:00 14.1 C 81 % 10.89 C
497 23-05-2016 17:20:00 14.1 C 80 % 10.71 C
498 23-05-2016 17:25:00 14.1 C 80 % 10.71 C
499 23-05-2016 17:30:00 14.1 C 81 % 10.89 C
500 23-05-2016 17:35:00 14.1 C 81 % 10.89 C
Sensor: Nr:Datum:Temp:Feuchte:Taupunkt:
Aussen-T/F 501 23-05-2016 17:40:00 14.1 C 81 % 10.89 C
502 23-05-2016 17:45:00 14.1 C 81 % 10.89 C
503 23-05-2016 17:50:00 14 C 80 % 10.61 C
504 23-05-2016 17:55:00 14.1 C 80 % 10.71 C
505 23-05-2016 18:00:00 14.1 C 79 % 10.52 C
506 23-05-2016 18:05:00 14.1 C 80 % 10.71 C
507 23-05-2016 18:10:00 14 C 80 % 10.61 C
508 23-05-2016 18:15:00 13.9 C 80 % 10.51 C
509 23-05-2016 18:20:00 13.9 C 79 % 10.32 C
510 23-05-2016 18:25:00 13.8 C 79 % 10.22 C
511 23-05-2016 18:30:00 13.7 C 79 % 10.13 C
512 23-05-2016 18:35:00 13.7 C 79 % 10.13 C
513 23-05-2016 18:40:00 13.7 C 80 % 10.32 C
514 23-05-2016 18:45:00 13.7 C 80 % 10.32 C
515 23-05-2016 18:50:00 13.6 C 80 % 10.22 C
516 23-05-2016 18:55:00 13.6 C 80 % 10.22 C
517 23-05-2016 19:00:00 13.6 C 80 % 10.22 C
518 23-05-2016 19:05:00 13.5 C 80 % 10.12 C
519 23-05-2016 19:10:00 13.5 C 80 % 10.12 C
520 23-05-2016 19:15:00 13.4 C 80 % 10.02 C
521 23-05-2016 19:20:00 13.4 C 80 % 10.02 C
522 23-05-2016 19:25:00 13.4 C 80 % 10.02 C
523 23-05-2016 19:30:00 13.3 C 81 % 10.11 C
524 23-05-2016 19:35:00 13.3 C 81 % 10.11 C
525 23-05-2016 19:40:00 13.3 C 81 % 10.11 C
Sensor: Nr:Datum:Temp:Feuchte:Taupunkt:
Aussen-T/F 526 23-05-2016 19:45:00 13.3 C 82 % 10.3 C
527 23-05-2016 19:50:00 13.2 C 82 % 10.2 C
528 23-05-2016 19:55:00 13.1 C 82 % 10.1 C
529 23-05-2016 20:00:00 13.1 C 82 % 10.1 C
530 23-05-2016 20:05:00 13.1 C 83 % 10.28 C
531 23-05-2016 20:10:00 13 C 83 % 10.18 C
532 23-05-2016 20:15:00 12.9 C 83 % 10.09 C
533 23-05-2016 20:20:00 12.9 C 83 % 10.09 C
534 23-05-2016 20:25:00 12.9 C 84 % 10.26 C
535 23-05-2016 20:30:00 12.8 C 84 % 10.17 C
536 23-05-2016 20:35:00 12.8 C 84 % 10.17 C
537 23-05-2016 20:40:00 12.8 C 84 % 10.17 C
538 23-05-2016 20:45:00 12.7 C 85 % 10.25 C
539 23-05-2016 20:50:00 12.7 C 85 % 10.25 C
540 23-05-2016 20:55:00 12.6 C 85 % 10.15 C
541 23-05-2016 21:00:00 12.6 C 85 % 10.15 C
542 23-05-2016 21:05:00 12.4 C 86 % 10.13 C
543 23-05-2016 21:10:00 12.4 C 86 % 10.13 C
544 23-05-2016 21:15:00 12.3 C 87 % 10.2 C
545 23-05-2016 21:20:00 12.3 C 87 % 10.2 C
546 23-05-2016 21:25:00 12.2 C 87 % 10.1 C
547 23-05-2016 21:30:00 12.1 C 88 % 10.17 C
548 23-05-2016 21:35:00 11.9 C 89 % 10.15 C
549 23-05-2016 21:40:00 11.9 C 89 % 10.15 C
550 23-05-2016 21:45:00 11.8 C 90 % 10.21 C
Sensor: Nr:Datum:Temp:Feuchte:Taupunkt:
Aussen-T/F 551 23-05-2016 21:50:00 11.7 C 90 % 10.12 C
552 23-05-2016 21:55:00 11.7 C 90 % 10.12 C
553 23-05-2016 22:00:00 11.7 C 90 % 10.12 C
554 23-05-2016 22:05:00 11.7 C 90 % 10.12 C
555 23-05-2016 22:10:00 11.7 C 90 % 10.12 C
556 23-05-2016 22:15:00 11.7 C 90 % 10.12 C
557 23-05-2016 22:20:00 11.7 C 90 % 10.12 C
558 23-05-2016 22:25:00 11.7 C 90 % 10.12 C
559 23-05-2016 22:30:00 11.7 C 90 % 10.12 C
560 23-05-2016 22:35:00 11.6 C 90 % 10.02 C
561 23-05-2016 22:40:00 11.7 C 90 % 10.12 C
562 23-05-2016 22:45:00 11.7 C 90 % 10.12 C
563 23-05-2016 22:50:00 11.7 C 89 % 9.95 C
564 23-05-2016 22:55:00 11.7 C 89 % 9.95 C
565 23-05-2016 23:00:00 11.7 C 89 % 9.95 C
566 23-05-2016 23:05:00 11.7 C 89 % 9.95 C
567 23-05-2016 23:10:00 11.7 C 89 % 9.95 C
568 23-05-2016 23:15:00 11.6 C 90 % 10.02 C
569 23-05-2016 23:20:00 11.6 C 90 % 10.02 C
570 23-05-2016 23:25:00 11.6 C 90 % 10.02 C
571 23-05-2016 23:30:00 11.6 C 90 % 10.02 C
572 23-05-2016 23:35:00 11.5 C 90 % 9.92 C
573 23-05-2016 23:40:00 11.4 C 90 % 9.82 C
574 23-05-2016 23:45:00 11.4 C 90 % 9.82 C
575 23-05-2016 23:50:00 11.4 C 90 % 9.82 C
Sensor: Nr:Datum:Temp:Feuchte:Taupunkt:
Aussen-T/F 576 23-05-2016 23:55:00 11.4 C 90 % 9.82 C
577 24-05-2016 00:00:00 11.4 C 91 % 9.98 C
578 24-05-2016 00:05:00 11.3 C 90 % 9.72 C
579 24-05-2016 00:10:00 11.3 C 90 % 9.72 C
580 24-05-2016 00:15:00 11.4 C 90 % 9.82 C
581 24-05-2016 00:20:00 11.4 C 90 % 9.82 C
582 24-05-2016 00:25:00 11.3 C 90 % 9.72 C
583 24-05-2016 00:30:00 11.3 C 90 % 9.72 C
584 24-05-2016 00:35:00 11.4 C 90 % 9.82 C
585 24-05-2016 00:40:00 11.3 C 90 % 9.72 C
586 24-05-2016 00:45:00 11.3 C 90 % 9.72 C
587 24-05-2016 00:50:00 11.3 C 90 % 9.72 C
588 24-05-2016 00:55:00 11.3 C 90 % 9.72 C
589 24-05-2016 01:00:00 11.3 C 90 % 9.72 C
590 24-05-2016 01:05:00 11.3 C 91 % 9.89 C
591 24-05-2016 01:10:00 11.3 C 90 % 9.72 C
592 24-05-2016 01:15:00 11.3 C 90 % 9.72 C
593 24-05-2016 01:20:00 11.3 C 90 % 9.72 C
594 24-05-2016 01:25:00 11.3 C 90 % 9.72 C
595 24-05-2016 01:30:00 11.2 C 90 % 9.62 C
596 24-05-2016 01:35:00 11.2 C 90 % 9.62 C
597 24-05-2016 01:40:00 11.2 C 90 % 9.62 C
598 24-05-2016 01:45:00 11.2 C 90 % 9.62 C
599 24-05-2016 01:50:00 11.2 C 90 % 9.62 C
600 24-05-2016 01:55:00 11.2 C 90 % 9.62 C
Sensor: Nr:Datum:Temp:Feuchte:Taupunkt:
Aussen-T/F 601 24-05-2016 02:00:00 11.2 C 90 % 9.62 C
602 24-05-2016 02:05:00 11.2 C 90 % 9.62 C
603 24-05-2016 02:10:00 11.2 C 90 % 9.62 C
604 24-05-2016 02:15:00 11.2 C 90 % 9.62 C
605 24-05-2016 02:20:00 11.1 C 90 % 9.52 C
606 24-05-2016 02:25:00 11.1 C 90 % 9.52 C
607 24-05-2016 02:30:00 11.1 C 90 % 9.52 C
608 24-05-2016 02:35:00 11.1 C 90 % 9.52 C
609 24-05-2016 02:40:00 11.1 C 90 % 9.52 C
610 24-05-2016 02:45:00 11 C 90 % 9.42 C
611 24-05-2016 02:50:00 11 C 91 % 9.59 C
612 24-05-2016 02:55:00 11 C 91 % 9.59 C
613 24-05-2016 03:00:00 10.9 C 91 % 9.49 C
614 24-05-2016 03:05:00 10.9 C 91 % 9.49 C
615 24-05-2016 03:10:00 10.9 C 91 % 9.49 C
616 24-05-2016 03:15:00 10.9 C 92 % 9.65 C
617 24-05-2016 03:20:00 10.9 C 92 % 9.65 C
618 24-05-2016 03:25:00 10.9 C 92 % 9.65 C
619 24-05-2016 03:30:00 10.9 C 92 % 9.65 C
620 24-05-2016 03:35:00 10.8 C 92 % 9.55 C
621 24-05-2016 03:40:00 10.8 C 92 % 9.55 C
622 24-05-2016 03:45:00 10.8 C 92 % 9.55 C
623 24-05-2016 03:50:00 10.8 C 92 % 9.55 C
624 24-05-2016 03:55:00 10.8 C 92 % 9.55 C
625 24-05-2016 04:00:00 10.8 C 92 % 9.55 C
Sensor: Nr:Datum:Temp:Feuchte:Taupunkt:
Aussen-T/F 626 24-05-2016 04:05:00 10.8 C 92 % 9.55 C
627 24-05-2016 04:10:00 10.8 C 92 % 9.55 C
628 24-05-2016 04:15:00 10.8 C 92 % 9.55 C
629 24-05-2016 04:20:00 10.8 C 92 % 9.55 C
630 24-05-2016 04:25:00 10.8 C 92 % 9.55 C
631 24-05-2016 04:30:00 10.8 C 92 % 9.55 C
632 24-05-2016 04:35:00 10.8 C 92 % 9.55 C
633 24-05-2016 04:40:00 10.8 C 92 % 9.55 C
634 24-05-2016 04:45:00 10.8 C 92 % 9.55 C
635 24-05-2016 04:50:00 10.8 C 92 % 9.55 C
636 24-05-2016 04:55:00 10.8 C 92 % 9.55 C
637 24-05-2016 05:00:00 10.8 C 92 % 9.55 C
638 24-05-2016 05:05:00 10.8 C 91 % 9.39 C
639 24-05-2016 05:10:00 10.8 C 91 % 9.39 C
640 24-05-2016 05:15:00 10.8 C 91 % 9.39 C
641 24-05-2016 05:20:00 10.7 C 91 % 9.29 C
642 24-05-2016 05:25:00 10.7 C 91 % 9.29 C
643 24-05-2016 05:30:00 10.7 C 91 % 9.29 C
644 24-05-2016 05:35:00 10.7 C 91 % 9.29 C
645 24-05-2016 05:40:00 10.7 C 91 % 9.29 C
646 24-05-2016 05:45:00 10.7 C 91 % 9.29 C
647 24-05-2016 05:50:00 10.7 C 90 % 9.13 C
648 24-05-2016 05:55:00 10.7 C 90 % 9.13 C
649 24-05-2016 06:00:00 10.7 C 90 % 9.13 C
650 24-05-2016 06:05:00 10.7 C 90 % 9.13 C
Sensor: Nr:Datum:Temp:Feuchte:Taupunkt:
Aussen-T/F 651 24-05-2016 06:10:00 10.7 C 90 % 9.13 C
652 24-05-2016 06:15:00 10.7 C 90 % 9.13 C
653 24-05-2016 06:20:00 10.7 C 90 % 9.13 C
654 24-05-2016 06:25:00 10.7 C 90 % 9.13 C
655 24-05-2016 06:30:00 10.7 C 90 % 9.13 C
656 24-05-2016 06:35:00 10.7 C 90 % 9.13 C
657 24-05-2016 06:40:00 10.7 C 90 % 9.13 C
658 24-05-2016 06:45:00 10.6 C 90 % 9.03 C
659 24-05-2016 06:50:00 10.6 C 90 % 9.03 C
660 24-05-2016 06:55:00 10.6 C 90 % 9.03 C
661 24-05-2016 07:00:00 10.6 C 90 % 9.03 C
662 24-05-2016 07:05:00 10.6 C 90 % 9.03 C
663 24-05-2016 07:10:00 10.6 C 90 % 9.03 C
664 24-05-2016 07:15:00 10.5 C 90 % 8.93 C
665 24-05-2016 07:20:00 10.5 C 90 % 8.93 C
666 24-05-2016 07:25:00 10.4 C 90 % 8.83 C
667 24-05-2016 07:30:00 10.4 C 90 % 8.83 C
668 24-05-2016 07:35:00 10.4 C 90 % 8.83 C
669 24-05-2016 07:40:00 10.4 C 90 % 8.83 C
670 24-05-2016 07:45:00 10.4 C 90 % 8.83 C
671 24-05-2016 07:50:00 10.5 C 90 % 8.93 C
672 24-05-2016 07:55:00 10.5 C 90 % 8.93 C
673 24-05-2016 08:00:00 10.6 C 90 % 9.03 C
674 24-05-2016 08:05:00 10.6 C 90 % 9.03 C
675 24-05-2016 08:10:00 10.6 C 90 % 9.03 C
Sensor: Nr:Datum:Temp:Feuchte:Taupunkt:
Aussen-T/F 676 24-05-2016 08:15:00 10.6 C 90 % 9.03 C
677 24-05-2016 08:20:00 10.5 C 89 % 8.77 C
678 24-05-2016 08:25:00 10.5 C 89 % 8.77 C
679 24-05-2016 08:30:00 10.5 C 89 % 8.77 C
680 24-05-2016 08:35:00 10.5 C 90 % 8.93 C
681 24-05-2016 08:40:00 10.5 C 90 % 8.93 C
682 24-05-2016 08:45:00 10.6 C 90 % 9.03 C
683 24-05-2016 08:50:00 10.6 C 89 % 8.86 C
684 24-05-2016 08:55:00 10.6 C 89 % 8.86 C
685 24-05-2016 09:00:00 10.6 C 89 % 8.86 C
686 24-05-2016 09:05:00 10.7 C 89 % 8.96 C
687 24-05-2016 09:10:00 10.7 C 89 % 8.96 C
688 24-05-2016 09:15:00 10.7 C 89 % 8.96 C
689 24-05-2016 09:20:00 10.7 C 88 % 8.8 C
690 24-05-2016 09:25:00 10.7 C 88 % 8.8 C
691 24-05-2016 09:30:00 10.7 C 87 % 8.63 C
692 24-05-2016 09:35:00 10.8 C 88 % 8.89 C
693 24-05-2016 09:40:00 10.8 C 88 % 8.89 C
694 24-05-2016 09:45:00 10.8 C 87 % 8.73 C
695 24-05-2016 09:50:00 10.8 C 87 % 8.73 C
696 24-05-2016 09:55:00 10.9 C 87 % 8.82 C
697 24-05-2016 10:00:00 10.8 C 87 % 8.73 C
698 24-05-2016 10:05:00 10.9 C 87 % 8.82 C
699 24-05-2016 10:10:00 10.8 C 87 % 8.73 C
700 24-05-2016 10:15:00 10.8 C 87 % 8.73 C
Sensor: Nr:Datum:Temp:Feuchte:Taupunkt:
Aussen-T/F 701 24-05-2016 10:20:00 10.8 C 88 % 8.89 C
702 24-05-2016 10:25:00 10.8 C 88 % 8.89 C
703 24-05-2016 10:30:00 10.8 C 88 % 8.89 C
704 24-05-2016 10:35:00 10.8 C 88 % 8.89 C
705 24-05-2016 10:40:00 10.7 C 88 % 8.8 C
706 24-05-2016 10:45:00 10.8 C 88 % 8.89 C
707 24-05-2016 10:50:00 10.8 C 88 % 8.89 C
708 24-05-2016 10:55:00 10.9 C 87 % 8.82 C
709 24-05-2016 11:00:00 11.1 C 87 % 9.02 C
710 24-05-2016 11:05:00 11.2 C 86 % 8.95 C
711 24-05-2016 11:10:00 11.2 C 86 % 8.95 C
712 24-05-2016 11:15:00 11.2 C 87 % 9.12 C
713 24-05-2016 11:20:00 11.3 C 87 % 9.22 C
714 24-05-2016 11:25:00 11.2 C 87 % 9.12 C
715 24-05-2016 11:30:00 11.1 C 88 % 9.19 C
716 24-05-2016 11:35:00 11 C 89 % 9.26 C
717 24-05-2016 11:40:00 10.8 C 89 % 9.06 C
718 24-05-2016 11:45:00 10.7 C 90 % 9.13 C
719 24-05-2016 11:50:00 10.6 C 90 % 9.03 C
720 24-05-2016 11:55:00 10.5 C 90 % 8.93 C
721 24-05-2016 12:00:00 10.4 C 91 % 9 C
722 24-05-2016 12:05:00 10.4 C 91 % 9 C
723 24-05-2016 12:10:00 10.4 C 91 % 9 C
724 24-05-2016 12:15:00 10.4 C 91 % 9 C
725 24-05-2016 12:20:00 10.4 C 92 % 9.16 C
Sensor: Nr:Datum:Temp:Feuchte:Taupunkt:
Aussen-T/F 726 24-05-2016 12:25:00 10.4 C 92 % 9.16 C
727 24-05-2016 12:30:00 10.4 C 92 % 9.16 C
728 24-05-2016 12:35:00 10.5 C 92 % 9.26 C
729 24-05-2016 12:40:00 10.5 C 91 % 9.09 C
730 24-05-2016 12:45:00 10.6 C 91 % 9.19 C
731 24-05-2016 12:50:00 10.7 C 91 % 9.29 C
732 24-05-2016 12:55:00 10.8 C 90 % 9.23 C
733 24-05-2016 13:00:00 10.7 C 89 % 8.96 C
734 24-05-2016 13:05:00 10.8 C 90 % 9.23 C
735 24-05-2016 13:10:00 10.7 C 90 % 9.13 C
736 24-05-2016 13:15:00 10.6 C 89 % 8.86 C
737 24-05-2016 13:20:00 10.6 C 90 % 9.03 C
738 24-05-2016 13:25:00 10.6 C 91 % 9.19 C
739 24-05-2016 13:30:00 10.6 C 90 % 9.03 C
740 24-05-2016 13:35:00 10.6 C 90 % 9.03 C
741 24-05-2016 13:40:00 10.6 C 91 % 9.19 C
742 24-05-2016 13:45:00 10.6 C 90 % 9.03 C
743 24-05-2016 13:50:00 10.7 C 91 % 9.29 C
744 24-05-2016 13:55:00 10.7 C 90 % 9.13 C
745 24-05-2016 14:00:00 10.8 C 91 % 9.39 C
746 24-05-2016 14:05:00 10.8 C 91 % 9.39 C
747 24-05-2016 14:10:00 10.9 C 91 % 9.49 C
748 24-05-2016 14:15:00 11 C 91 % 9.59 C
749 24-05-2016 14:20:00 11 C 91 % 9.59 C
750 24-05-2016 14:25:00 11.1 C 92 % 9.85 C
Sensor: Nr:Datum:Temp:Feuchte:Taupunkt:
Aussen-T/F 751 24-05-2016 14:30:00 11.2 C 92 % 9.95 C
752 24-05-2016 14:35:00 11.2 C 92 % 9.95 C
753 24-05-2016 14:40:00 11.2 C 92 % 9.95 C
754 24-05-2016 14:45:00 11.1 C 91 % 9.69 C
755 24-05-2016 14:50:00 10.9 C 91 % 9.49 C
756 24-05-2016 14:55:00 10.9 C 91 % 9.49 C
757 24-05-2016 15:00:00 10.9 C 92 % 9.65 C
758 24-05-2016 15:05:00 11.1 C 93 % 10.01 C
759 24-05-2016 15:10:00 11.2 C 92 % 9.95 C
760 24-05-2016 15:15:00 11.2 C 92 % 9.95 C
761 24-05-2016 15:20:00 11.2 C 92 % 9.95 C
762 24-05-2016 15:25:00 11.3 C 93 % 10.21 C
763 24-05-2016 15:30:00 11.3 C 93 % 10.21 C
764 24-05-2016 15:35:00 11.3 C 93 % 10.21 C
765 24-05-2016 15:40:00 11.3 C 93 % 10.21 C
766 24-05-2016 15:45:00 11.3 C 92 % 10.05 C
767 24-05-2016 15:50:00 11.2 C 92 % 9.95 C
768 24-05-2016 15:55:00 11.2 C 92 % 9.95 C
769 24-05-2016 16:00:00 11.2 C 93 % 10.11 C
770 24-05-2016 16:05:00 11.2 C 93 % 10.11 C
771 24-05-2016 16:10:00 11.2 C 93 % 10.11 C
772 24-05-2016 16:15:00 11.2 C 93 % 10.11 C
773 24-05-2016 16:20:00 11.2 C 93 % 10.11 C
774 24-05-2016 16:25:00 11.2 C 92 % 9.95 C
775 24-05-2016 16:30:00 11.2 C 92 % 9.95 C
Sensor: Nr:Datum:Temp:Feuchte:Taupunkt:
Aussen-T/F 776 24-05-2016 16:35:00 11.2 C 92 % 9.95 C
777 24-05-2016 16:40:00 11.2 C 92 % 9.95 C
778 24-05-2016 16:45:00 11.2 C 92 % 9.95 C
779 24-05-2016 16:50:00 11.2 C 92 % 9.95 C
780 24-05-2016 16:55:00 11.2 C 93 % 10.11 C
781 24-05-2016 17:00:00 11.3 C 93 % 10.21 C
782 24-05-2016 17:05:00 11.2 C 92 % 9.95 C
783 24-05-2016 17:10:00 11.3 C 93 % 10.21 C
784 24-05-2016 17:15:00 11.4 C 93 % 10.31 C
785 24-05-2016 17:20:00 11.6 C 94 % 10.67 C
786 24-05-2016 17:25:00 11.6 C 93 % 10.51 C
787 24-05-2016 17:30:00 11.6 C 92 % 10.35 C
788 24-05-2016 17:35:00 11.7 C 93 % 10.61 C
789 24-05-2016 17:40:00 11.8 C 93 % 10.71 C
790 24-05-2016 17:45:00 11.8 C 93 % 10.71 C
791 24-05-2016 17:50:00 11.9 C 92 % 10.64 C
792 24-05-2016 17:55:00 11.9 C 92 % 10.64 C
793 24-05-2016 18:00:00 11.9 C 91 % 10.48 C
794 24-05-2016 18:05:00 12 C 92 % 10.74 C
795 24-05-2016 18:10:00 12 C 92 % 10.74 C
796 24-05-2016 18:15:00 11.9 C 91 % 10.48 C
797 24-05-2016 18:20:00 11.9 C 91 % 10.48 C
798 24-05-2016 18:25:00 12 C 91 % 10.58 C
799 24-05-2016 18:30:00 12.1 C 92 % 10.84 C
800 24-05-2016 18:35:00 12.1 C 91 % 10.68 C
Sensor: Nr:Datum:Temp:Feuchte:Taupunkt:
Aussen-T/F 801 24-05-2016 18:40:00 12.1 C 92 % 10.84 C
802 24-05-2016 18:45:00 12.1 C 92 % 10.84 C
803 24-05-2016 18:50:00 12 C 92 % 10.74 C
804 24-05-2016 18:55:00 12.1 C 93 % 11 C
805 24-05-2016 19:00:00 12.1 C 93 % 11 C
806 24-05-2016 19:05:00 12.1 C 92 % 10.84 C
807 24-05-2016 19:10:00 12.1 C 93 % 11 C
808 24-05-2016 19:15:00 12.1 C 93 % 11 C
809 24-05-2016 19:20:00 12 C 93 % 10.9 C
810 24-05-2016 19:25:00 12 C 93 % 10.9 C
811 24-05-2016 19:30:00 11.9 C 93 % 10.81 C
812 24-05-2016 19:35:00 11.9 C 93 % 10.81 C
813 24-05-2016 19:40:00 11.9 C 93 % 10.81 C
814 24-05-2016 19:45:00 11.8 C 93 % 10.71 C
815 24-05-2016 19:50:00 11.8 C 93 % 10.71 C
816 24-05-2016 19:55:00 11.7 C 93 % 10.61 C
817 24-05-2016 20:00:00 11.7 C 93 % 10.61 C
818 24-05-2016 20:05:00 11.7 C 93 % 10.61 C
819 24-05-2016 20:10:00 11.6 C 94 % 10.67 C
820 24-05-2016 20:15:00 11.6 C 93 % 10.51 C
821 24-05-2016 20:20:00 11.4 C 94 % 10.47 C
822 24-05-2016 20:25:00 11.4 C 94 % 10.47 C
823 24-05-2016 20:30:00 11.3 C 94 % 10.37 C
824 24-05-2016 20:35:00 11.3 C 94 % 10.37 C
825 24-05-2016 20:40:00 11.3 C 94 % 10.37 C
Sensor: Nr:Datum:Temp:Feuchte:Taupunkt:
Aussen-T/F 826 24-05-2016 20:45:00 11.2 C 94 % 10.27 C
827 24-05-2016 20:50:00 11.2 C 94 % 10.27 C
828 24-05-2016 20:55:00 11.1 C 94 % 10.17 C
829 24-05-2016 21:00:00 11 C 94 % 10.07 C
830 24-05-2016 21:05:00 11 C 94 % 10.07 C
831 24-05-2016 21:10:00 10.9 C 94 % 9.97 C
832 24-05-2016 21:15:00 10.9 C 94 % 9.97 C
833 24-05-2016 21:20:00 10.9 C 94 % 9.97 C
834 24-05-2016 21:25:00 10.8 C 94 % 9.87 C
835 24-05-2016 21:30:00 10.8 C 95 % 10.03 C
836 24-05-2016 21:35:00 10.8 C 95 % 10.03 C
837 24-05-2016 21:40:00 10.8 C 95 % 10.03 C
838 24-05-2016 21:45:00 10.7 C 95 % 9.93 C
839 24-05-2016 21:50:00 10.7 C 95 % 9.93 C
840 24-05-2016 21:55:00 10.7 C 95 % 9.93 C
841 24-05-2016 22:00:00 10.7 C 95 % 9.93 C
842 24-05-2016 22:05:00 10.6 C 95 % 9.83 C
843 24-05-2016 22:10:00 10.6 C 95 % 9.83 C
844 24-05-2016 22:15:00 10.6 C 95 % 9.83 C
845 24-05-2016 22:20:00 10.5 C 95 % 9.73 C
846 24-05-2016 22:25:00 10.5 C 95 % 9.73 C
847 24-05-2016 22:30:00 10.5 C 95 % 9.73 C
848 24-05-2016 22:35:00 10.5 C 95 % 9.73 C
849 24-05-2016 22:40:00 10.4 C 95 % 9.63 C
850 24-05-2016 22:45:00 10.4 C 95 % 9.63 C
Sensor: Nr:Datum:Temp:Feuchte:Taupunkt:
Aussen-T/F 851 24-05-2016 22:50:00 10.4 C 95 % 9.63 C
852 24-05-2016 22:55:00 10.4 C 95 % 9.63 C
853 24-05-2016 23:00:00 10.3 C 95 % 9.54 C
854 24-05-2016 23:05:00 10.3 C 95 % 9.54 C
855 24-05-2016 23:10:00 10.2 C 95 % 9.44 C
856 24-05-2016 23:15:00 10.2 C 95 % 9.44 C
857 24-05-2016 23:20:00 10.2 C 95 % 9.44 C
858 24-05-2016 23:25:00 10.1 C 95 % 9.34 C
859 24-05-2016 23:30:00 10.1 C 96 % 9.49 C
860 24-05-2016 23:35:00 10.1 C 96 % 9.49 C
861 24-05-2016 23:40:00 10.1 C 96 % 9.49 C
862 24-05-2016 23:45:00 10.2 C 96 % 9.59 C
863 24-05-2016 23:50:00 10.2 C 96 % 9.59 C
864 24-05-2016 23:55:00 10.2 C 96 % 9.59 C
865 25-05-2016 00:00:00 10.2 C 96 % 9.59 C
866 25-05-2016 00:05:00 10.2 C 96 % 9.59 C
867 25-05-2016 00:10:00 10.2 C 96 % 9.59 C
868 25-05-2016 00:15:00 10.2 C 96 % 9.59 C
869 25-05-2016 00:20:00 10.2 C 96 % 9.59 C
870 25-05-2016 00:25:00 10.2 C 96 % 9.59 C
871 25-05-2016 00:30:00 10.2 C 96 % 9.59 C
872 25-05-2016 00:35:00 10.2 C 96 % 9.59 C
873 25-05-2016 00:40:00 10.2 C 96 % 9.59 C
874 25-05-2016 00:45:00 10.2 C 96 % 9.59 C
875 25-05-2016 00:50:00 10.2 C 96 % 9.59 C
Sensor: Nr:Datum:Temp:Feuchte:Taupunkt:
Aussen-T/F 876 25-05-2016 00:55:00 10.2 C 96 % 9.59 C
877 25-05-2016 01:00:00 10.2 C 96 % 9.59 C
878 25-05-2016 01:05:00 10.2 C 96 % 9.59 C
879 25-05-2016 01:10:00 10.2 C 96 % 9.59 C
880 25-05-2016 01:15:00 10.1 C 96 % 9.49 C
881 25-05-2016 01:20:00 10.1 C 96 % 9.49 C
882 25-05-2016 01:25:00 10.1 C 96 % 9.49 C
883 25-05-2016 01:30:00 10.1 C 96 % 9.49 C
884 25-05-2016 01:35:00 10.1 C 96 % 9.49 C
885 25-05-2016 01:40:00 10.1 C 96 % 9.49 C
886 25-05-2016 01:45:00 10.1 C 96 % 9.49 C
887 25-05-2016 01:50:00 10.1 C 96 % 9.49 C
888 25-05-2016 01:55:00 10.1 C 96 % 9.49 C
889 25-05-2016 02:00:00 10.1 C 96 % 9.49 C
890 25-05-2016 02:05:00 10.1 C 96 % 9.49 C
891 25-05-2016 02:10:00 10.1 C 96 % 9.49 C
892 25-05-2016 02:15:00 10.1 C 96 % 9.49 C
893 25-05-2016 02:20:00 10.1 C 96 % 9.49 C
894 25-05-2016 02:25:00 10.1 C 96 % 9.49 C
895 25-05-2016 02:30:00 10.1 C 96 % 9.49 C
896 25-05-2016 02:35:00 10.2 C 96 % 9.59 C
897 25-05-2016 02:40:00 10.2 C 96 % 9.59 C
898 25-05-2016 02:45:00 10.2 C 96 % 9.59 C
899 25-05-2016 02:50:00 10.2 C 96 % 9.59 C
900 25-05-2016 02:55:00 10.2 C 96 % 9.59 C
Sensor: Nr:Datum:Temp:Feuchte:Taupunkt:
Aussen-T/F 901 25-05-2016 03:00:00 10.2 C 96 % 9.59 C
902 25-05-2016 03:05:00 10.2 C 96 % 9.59 C
903 25-05-2016 03:10:00 10.2 C 96 % 9.59 C
904 25-05-2016 03:15:00 10.2 C 96 % 9.59 C
905 25-05-2016 03:20:00 10.2 C 96 % 9.59 C
906 25-05-2016 03:25:00 10.3 C 96 % 9.69 C
907 25-05-2016 03:30:00 10.3 C 96 % 9.69 C
908 25-05-2016 03:35:00 10.3 C 96 % 9.69 C
909 25-05-2016 03:40:00 10.3 C 96 % 9.69 C
910 25-05-2016 03:45:00 10.3 C 96 % 9.69 C
911 25-05-2016 03:50:00 10.3 C 96 % 9.69 C
912 25-05-2016 03:55:00 10.3 C 96 % 9.69 C
913 25-05-2016 04:00:00 10.4 C 96 % 9.79 C
914 25-05-2016 04:05:00 10.4 C 96 % 9.79 C
915 25-05-2016 04:10:00 10.4 C 96 % 9.79 C
916 25-05-2016 04:15:00 10.4 C 96 % 9.79 C
917 25-05-2016 04:20:00 10.4 C 96 % 9.79 C
918 25-05-2016 04:25:00 10.4 C 96 % 9.79 C
919 25-05-2016 04:30:00 10.4 C 96 % 9.79 C
920 25-05-2016 04:35:00 10.4 C 96 % 9.79 C
921 25-05-2016 04:40:00 10.4 C 97 % 9.94 C
922 25-05-2016 04:45:00 10.4 C 97 % 9.94 C
923 25-05-2016 04:50:00 10.4 C 96 % 9.79 C
924 25-05-2016 04:55:00 10.4 C 97 % 9.94 C
925 25-05-2016 05:00:00 10.4 C 97 % 9.94 C
Sensor: Nr:Datum:Temp:Feuchte:Taupunkt:
Aussen-T/F 926 25-05-2016 05:05:00 10.4 C 97 % 9.94 C
927 25-05-2016 05:10:00 10.5 C 96 % 9.89 C
928 25-05-2016 05:15:00 10.5 C 96 % 9.89 C
929 25-05-2016 05:20:00 10.5 C 96 % 9.89 C
930 25-05-2016 05:25:00 10.5 C 96 % 9.89 C
931 25-05-2016 05:30:00 10.5 C 96 % 9.89 C
932 25-05-2016 05:35:00 10.5 C 96 % 9.89 C
933 25-05-2016 05:40:00 10.5 C 96 % 9.89 C
934 25-05-2016 05:45:00 10.5 C 96 % 9.89 C
935 25-05-2016 05:50:00 10.5 C 96 % 9.89 C
936 25-05-2016 05:55:00 10.5 C 96 % 9.89 C
937 25-05-2016 06:00:00 10.5 C 96 % 9.89 C
938 25-05-2016 06:05:00 10.5 C 96 % 9.89 C
939 25-05-2016 06:10:00 10.5 C 96 % 9.89 C
940 25-05-2016 06:15:00 10.5 C 96 % 9.89 C
941 25-05-2016 06:20:00 10.5 C 96 % 9.89 C
942 25-05-2016 06:25:00 10.5 C 96 % 9.89 C
943 25-05-2016 06:30:00 10.5 C 96 % 9.89 C
944 25-05-2016 06:35:00 10.5 C 96 % 9.89 C
945 25-05-2016 06:40:00 10.5 C 96 % 9.89 C
946 25-05-2016 06:45:00 10.5 C 96 % 9.89 C
947 25-05-2016 06:50:00 10.5 C 96 % 9.89 C
948 25-05-2016 06:55:00 10.6 C 96 % 9.99 C
949 25-05-2016 07:00:00 10.6 C 96 % 9.99 C
950 25-05-2016 07:05:00 10.6 C 96 % 9.99 C
Sensor: Nr:Datum:Temp:Feuchte:Taupunkt:
Aussen-T/F 951 25-05-2016 07:10:00 10.6 C 96 % 9.99 C
952 25-05-2016 07:15:00 10.6 C 96 % 9.99 C
953 25-05-2016 07:20:00 10.6 C 96 % 9.99 C
954 25-05-2016 07:25:00 10.6 C 96 % 9.99 C
955 25-05-2016 07:30:00 10.5 C 96 % 9.89 C
956 25-05-2016 07:35:00 10.4 C 96 % 9.79 C
957 25-05-2016 07:40:00 10.4 C 96 % 9.79 C
958 25-05-2016 07:45:00 10.3 C 96 % 9.69 C
959 25-05-2016 07:50:00 10.3 C 96 % 9.69 C
960 25-05-2016 07:55:00 10.4 C 96 % 9.79 C
961 25-05-2016 08:00:00 10.4 C 96 % 9.79 C
962 25-05-2016 08:05:00 10.4 C 96 % 9.79 C
963 25-05-2016 08:10:00 10.5 C 96 % 9.89 C
964 25-05-2016 08:15:00 10.5 C 96 % 9.89 C
965 25-05-2016 08:20:00 10.6 C 96 % 9.99 C
966 25-05-2016 08:25:00 10.7 C 96 % 10.09 C
967 25-05-2016 08:30:00 10.7 C 96 % 10.09 C
968 25-05-2016 08:35:00 10.8 C 96 % 10.19 C
969 25-05-2016 08:40:00 10.8 C 96 % 10.19 C
970 25-05-2016 08:45:00 10.9 C 95 % 10.13 C
971 25-05-2016 08:50:00 10.9 C 95 % 10.13 C
972 25-05-2016 08:55:00 11.1 C 95 % 10.33 C
973 25-05-2016 09:00:00 11.1 C 94 % 10.17 C
974 25-05-2016 09:05:00 11.1 C 94 % 10.17 C
975 25-05-2016 09:10:00 11.2 C 93 % 10.11 C
Sensor: Nr:Datum:Temp:Feuchte:Taupunkt:
Aussen-T/F 976 25-05-2016 09:15:00 11.3 C 92 % 10.05 C
977 25-05-2016 09:20:00 11.5 C 92 % 10.25 C
978 25-05-2016 09:25:00 11.5 C 90 % 9.92 C
979 25-05-2016 09:30:00 11.7 C 91 % 10.28 C
980 25-05-2016 09:35:00 11.8 C 89 % 10.05 C
981 25-05-2016 09:40:00 11.9 C 90 % 10.31 C
982 25-05-2016 09:45:00 12.1 C 90 % 10.51 C
983 25-05-2016 09:50:00 12.2 C 88 % 10.27 C
984 25-05-2016 09:55:00 12.2 C 88 % 10.27 C
985 25-05-2016 10:00:00 12.3 C 88 % 10.37 C
986 25-05-2016 10:05:00 12.4 C 88 % 10.47 C
987 25-05-2016 10:10:00 12.6 C 88 % 10.67 C
988 25-05-2016 10:15:00 12.6 C 87 % 10.5 C
989 25-05-2016 10:20:00 12.8 C 87 % 10.69 C
990 25-05-2016 10:25:00 12.9 C 88 % 10.96 C
991 25-05-2016 10:30:00 13 C 85 % 10.54 C
992 25-05-2016 10:35:00 13.1 C 86 % 10.81 C
993 25-05-2016 10:40:00 13.2 C 84 % 10.56 C
994 25-05-2016 10:45:00 13.3 C 86 % 11.01 C
995 25-05-2016 10:50:00 13.3 C 85 % 10.83 C
996 25-05-2016 10:55:00 13.4 C 84 % 10.75 C
997 25-05-2016 11:00:00 13.4 C 83 % 10.57 C
998 25-05-2016 11:05:00 13.6 C 84 % 10.95 C
999 25-05-2016 11:10:00 13.6 C 83 % 10.77 C
1000 25-05-2016 11:15:00 13.7 C 83 % 10.87 C
Sensor: Nr:Datum:Temp:Feuchte:Taupunkt:
Aussen-T/F 1001 25-05-2016 11:20:00 13.8 C 81 % 10.6 C
1002 25-05-2016 11:25:00 13.8 C 82 % 10.78 C
1003 25-05-2016 11:30:00 13.9 C 81 % 10.7 C
1004 25-05-2016 11:35:00 14 C 80 % 10.61 C
1005 25-05-2016 11:40:00 14.1 C 80 % 10.71 C
1006 25-05-2016 11:45:00 14.1 C 80 % 10.71 C
1007 25-05-2016 11:50:00 14.2 C 79 % 10.61 C
1008 25-05-2016 11:55:00 14.3 C 77 % 10.33 C
1009 25-05-2016 12:00:00 14.4 C 80 % 11 C
1010 25-05-2016 12:05:00 14.6 C 77 % 10.62 C
1011 25-05-2016 12:10:00 14.6 C 77 % 10.62 C
1012 25-05-2016 12:15:00 14.5 C 77 % 10.52 C
1013 25-05-2016 12:20:00 14.6 C 78 % 10.81 C
1014 25-05-2016 12:25:00 14.5 C 76 % 10.32 C
1015 25-05-2016 12:30:00 14.4 C 76 % 10.23 C
1016 25-05-2016 12:35:00 14.6 C 83 % 11.75 C
1017 25-05-2016 12:40:00 14.5 C 77 % 10.52 C
1018 25-05-2016 12:45:00 14.4 C 78 % 10.62 C
1019 25-05-2016 12:50:00 14.4 C 77 % 10.42 C
1020 25-05-2016 12:55:00 14.6 C 78 % 10.81 C
1021 25-05-2016 13:00:00 14.7 C 78 % 10.91 C
1022 25-05-2016 13:05:00 14.8 C 77 % 10.81 C
1023 25-05-2016 13:10:00 14.9 C 75 % 10.51 C
1024 25-05-2016 13:15:00 15 C 75 % 10.61 C
1025 25-05-2016 13:20:00 15.1 C 75 % 10.71 C
Sensor: Nr:Datum:Temp:Feuchte:Taupunkt:
Aussen-T/F 1026 25-05-2016 13:25:00 15.1 C 75 % 10.71 C
1027 25-05-2016 13:30:00 15.2 C 75 % 10.8 C
1028 25-05-2016 13:35:00 15.3 C 75 % 10.9 C
1029 25-05-2016 13:40:00 15.3 C 75 % 10.9 C
1030 25-05-2016 13:45:00 15.3 C 74 % 10.7 C
1031 25-05-2016 13:50:00 15.2 C 75 % 10.8 C
1032 25-05-2016 13:55:00 15.2 C 74 % 10.6 C
1033 25-05-2016 14:00:00 15.2 C 75 % 10.8 C
1034 25-05-2016 14:05:00 15.2 C 74 % 10.6 C
1035 25-05-2016 14:10:00 15.2 C 75 % 10.8 C
1036 25-05-2016 14:15:00 15.3 C 76 % 11.1 C
1037 25-05-2016 14:20:00 15.3 C 73 % 10.49 C
1038 25-05-2016 14:25:00 15.4 C 74 % 10.79 C
1039 25-05-2016 14:30:00 15.5 C 76 % 11.29 C
1040 25-05-2016 14:35:00 15.6 C 75 % 11.19 C
1041 25-05-2016 14:40:00 15.6 C 74 % 10.99 C
1042 25-05-2016 14:45:00 15.6 C 75 % 11.19 C
1043 25-05-2016 14:50:00 15.7 C 73 % 10.88 C
1044 25-05-2016 14:55:00 15.7 C 73 % 10.88 C
1045 25-05-2016 15:00:00 15.7 C 73 % 10.88 C
1046 25-05-2016 15:05:00 15.7 C 73 % 10.88 C
1047 25-05-2016 15:10:00 15.7 C 73 % 10.88 C
1048 25-05-2016 15:15:00 15.7 C 73 % 10.88 C
1049 25-05-2016 15:20:00 15.8 C 73 % 10.97 C
1050 25-05-2016 15:25:00 16 C 73 % 11.17 C
Sensor: Nr:Datum:Temp:Feuchte:Taupunkt:
Aussen-T/F 1051 25-05-2016 15:30:00 15.9 C 72 % 10.86 C
1052 25-05-2016 15:35:00 15.8 C 71 % 10.56 C
1053 25-05-2016 15:40:00 15.8 C 73 % 10.97 C
1054 25-05-2016 15:45:00 15.8 C 79 % 12.17 C
1055 25-05-2016 15:50:00 15.9 C 82 % 12.83 C
1056 25-05-2016 15:55:00 15.8 C 78 % 11.97 C
1057 25-05-2016 16:00:00 15.8 C 76 % 11.58 C
1058 25-05-2016 16:05:00 15.8 C 74 % 11.18 C
1059 25-05-2016 16:10:00 15.8 C 74 % 11.18 C
1060 25-05-2016 16:15:00 15.8 C 74 % 11.18 C
1061 25-05-2016 16:20:00 15.8 C 74 % 11.18 C
1062 25-05-2016 16:25:00 15.9 C 74 % 11.28 C
1063 25-05-2016 16:30:00 15.9 C 74 % 11.28 C
1064 25-05-2016 16:35:00 16 C 74 % 11.37 C
1065 25-05-2016 16:40:00 15.9 C 74 % 11.28 C
1066 25-05-2016 16:45:00 15.9 C 74 % 11.28 C
1067 25-05-2016 16:50:00 15.9 C 74 % 11.28 C
1068 25-05-2016 16:55:00 16 C 79 % 12.36 C
1069 25-05-2016 17:00:00 16 C 78 % 12.17 C
1070 25-05-2016 17:05:00 16 C 78 % 12.17 C
1071 25-05-2016 17:10:00 16 C 80 % 12.55 C
1072 25-05-2016 17:15:00 16 C 81 % 12.74 C
1073 25-05-2016 17:20:00 15.9 C 81 % 12.65 C
1074 25-05-2016 17:25:00 15.8 C 83 % 12.92 C
1075 25-05-2016 17:30:00 15.7 C 84 % 13.01 C
Sensor: Nr:Datum:Temp:Feuchte:Taupunkt:
Aussen-T/F 1076 25-05-2016 17:35:00 15.6 C 85 % 13.09 C
1077 25-05-2016 17:40:00 15.5 C 85 % 12.99 C
1078 25-05-2016 17:45:00 15.5 C 86 % 13.17 C
1079 25-05-2016 17:50:00 15.4 C 85 % 12.89 C
1080 25-05-2016 17:55:00 15.4 C 86 % 13.07 C
1081 25-05-2016 18:00:00 15.3 C 86 % 12.97 C
1082 25-05-2016 18:05:00 15.3 C 85 % 12.79 C
1083 25-05-2016 18:10:00 15.2 C 85 % 12.7 C
1084 25-05-2016 18:15:00 15.1 C 85 % 12.6 C
1085 25-05-2016 18:20:00 14.9 C 86 % 12.58 C
1086 25-05-2016 18:25:00 14.9 C 86 % 12.58 C
1087 25-05-2016 18:30:00 14.8 C 87 % 12.66 C
1088 25-05-2016 18:35:00 14.8 C 87 % 12.66 C
1089 25-05-2016 18:40:00 14.7 C 88 % 12.73 C
1090 25-05-2016 18:45:00 14.7 C 88 % 12.73 C
1091 25-05-2016 18:50:00 14.7 C 89 % 12.91 C
1092 25-05-2016 18:55:00 14.7 C 87 % 12.56 C
1093 25-05-2016 19:00:00 14.8 C 86 % 12.48 C
1094 25-05-2016 19:05:00 15 C 86 % 12.68 C
1095 25-05-2016 19:10:00 15.2 C 86 % 12.88 C
1096 25-05-2016 19:15:00 15.4 C 82 % 12.35 C
1097 25-05-2016 19:20:00 15.9 C 78 % 12.07 C
1098 25-05-2016 19:25:00 16.3 C 77 % 12.26 C
1099 25-05-2016 19:30:00 16.6 C 75 % 12.15 C
1100 25-05-2016 19:35:00 16.5 C 74 % 11.85 C
Sensor: Nr:Datum:Temp:Feuchte:Taupunkt:
Aussen-T/F 1101 25-05-2016 19:40:00 16.4 C 76 % 12.16 C
1102 25-05-2016 19:45:00 16.6 C 75 % 12.15 C
1103 25-05-2016 19:50:00 16.7 C 74 % 12.05 C
1104 25-05-2016 19:55:00 16.7 C 76 % 12.45 C
1105 25-05-2016 20:00:00 16.8 C 75 % 12.35 C
1106 25-05-2016 20:05:00 16.8 C 79 % 13.14 C
1107 25-05-2016 20:10:00 16.7 C 78 % 12.85 C
1108 25-05-2016 20:15:00 16.5 C 79 % 12.85 C
1109 25-05-2016 20:20:00 16.2 C 80 % 12.75 C
1110 25-05-2016 20:25:00 15.8 C 80 % 12.36 C
1111 25-05-2016 20:30:00 15.3 C 81 % 12.06 C
1112 25-05-2016 20:35:00 14.9 C 82 % 11.86 C
1113 25-05-2016 20:40:00 14.6 C 83 % 11.75 C
1114 25-05-2016 20:45:00 14.3 C 84 % 11.64 C
1115 25-05-2016 20:50:00 14 C 85 % 11.52 C
1116 25-05-2016 20:55:00 13.8 C 86 % 11.5 C
1117 25-05-2016 21:00:00 13.6 C 86 % 11.3 C
1118 25-05-2016 21:05:00 13.4 C 87 % 11.28 C
1119 25-05-2016 21:10:00 13.2 C 87 % 11.09 C
1120 25-05-2016 21:15:00 13.1 C 88 % 11.16 C
1121 25-05-2016 21:20:00 12.9 C 88 % 10.96 C
1122 25-05-2016 21:25:00 12.8 C 88 % 10.86 C
1123 25-05-2016 21:30:00 12.6 C 89 % 10.84 C
1124 25-05-2016 21:35:00 12.4 C 89 % 10.64 C
1125 25-05-2016 21:40:00 12.3 C 89 % 10.54 C
Sensor: Nr:Datum:Temp:Feuchte:Taupunkt:
Aussen-T/F 1126 25-05-2016 21:45:00 12.2 C 89 % 10.44 C
1127 25-05-2016 21:50:00 12.1 C 90 % 10.51 C
1128 25-05-2016 21:55:00 12 C 90 % 10.41 C
1129 25-05-2016 22:00:00 11.9 C 90 % 10.31 C
1130 25-05-2016 22:05:00 11.8 C 91 % 10.38 C
1131 25-05-2016 22:10:00 11.8 C 91 % 10.38 C
1132 25-05-2016 22:15:00 11.7 C 91 % 10.28 C
1133 25-05-2016 22:20:00 11.6 C 91 % 10.18 C
1134 25-05-2016 22:25:00 11.5 C 91 % 10.08 C
1135 25-05-2016 22:30:00 11.4 C 91 % 9.98 C
1136 25-05-2016 22:35:00 11.3 C 91 % 9.89 C
1137 25-05-2016 22:40:00 11.3 C 92 % 10.05 C
1138 25-05-2016 22:45:00 11.2 C 92 % 9.95 C
1139 25-05-2016 22:50:00 11.1 C 91 % 9.69 C
1140 25-05-2016 22:55:00 10.9 C 92 % 9.65 C
1141 25-05-2016 23:00:00 10.8 C 92 % 9.55 C
1142 25-05-2016 23:05:00 10.7 C 92 % 9.45 C
1143 25-05-2016 23:10:00 10.6 C 92 % 9.36 C
1144 25-05-2016 23:15:00 10.5 C 92 % 9.26 C
1145 25-05-2016 23:20:00 10.4 C 93 % 9.32 C
1146 25-05-2016 23:25:00 10.4 C 93 % 9.32 C
1147 25-05-2016 23:30:00 10.3 C 93 % 9.22 C
1148 25-05-2016 23:35:00 10.2 C 93 % 9.12 C
1149 25-05-2016 23:40:00 10.2 C 93 % 9.12 C
1150 25-05-2016 23:45:00 10.1 C 93 % 9.02 C
Sensor: Nr:Datum:Temp:Feuchte:Taupunkt:
Aussen-T/F 1151 25-05-2016 23:50:00 10.1 C 93 % 9.02 C
1152 25-05-2016 23:55:00 9.9 C 93 % 8.82 C
1153 26-05-2016 00:00:00 9.8 C 93 % 8.72 C
1154 26-05-2016 00:05:00 9.8 C 94 % 8.88 C
1155 26-05-2016 00:10:00 9.8 C 94 % 8.88 C
1156 26-05-2016 00:15:00 9.7 C 94 % 8.78 C
1157 26-05-2016 00:20:00 9.6 C 94 % 8.68 C
1158 26-05-2016 00:25:00 9.6 C 94 % 8.68 C
1159 26-05-2016 00:30:00 9.6 C 94 % 8.68 C
1160 26-05-2016 00:35:00 9.6 C 94 % 8.68 C
1161 26-05-2016 00:40:00 9.5 C 94 % 8.58 C
1162 26-05-2016 00:45:00 9.4 C 94 % 8.48 C
1163 26-05-2016 00:50:00 9.3 C 94 % 8.39 C
1164 26-05-2016 00:55:00 9.3 C 94 % 8.39 C
1165 26-05-2016 01:00:00 9.2 C 95 % 8.44 C
1166 26-05-2016 01:05:00 9.1 C 94 % 8.19 C
1167 26-05-2016 01:10:00 9 C 94 % 8.09 C
1168 26-05-2016 01:15:00 8.9 C 95 % 8.14 C
1169 26-05-2016 01:20:00 8.8 C 94 % 7.89 C
1170 26-05-2016 01:25:00 8.8 C 94 % 7.89 C
1171 26-05-2016 01:30:00 8.8 C 95 % 8.04 C
1172 26-05-2016 01:35:00 8.8 C 95 % 8.04 C
1173 26-05-2016 01:40:00 8.8 C 95 % 8.04 C
1174 26-05-2016 01:45:00 8.9 C 95 % 8.14 C
1175 26-05-2016 01:50:00 8.8 C 95 % 8.04 C
Sensor: Nr:Datum:Temp:Feuchte:Taupunkt:
Aussen-T/F 1176 26-05-2016 01:55:00 8.8 C 95 % 8.04 C
1177 26-05-2016 02:00:00 8.7 C 95 % 7.94 C
1178 26-05-2016 02:05:00 8.7 C 95 % 7.94 C
1179 26-05-2016 02:10:00 8.6 C 95 % 7.85 C
1180 26-05-2016 02:15:00 8.5 C 95 % 7.75 C
1181 26-05-2016 02:20:00 8.4 C 95 % 7.65 C
1182 26-05-2016 02:25:00 8.5 C 95 % 7.75 C
1183 26-05-2016 02:30:00 8.4 C 95 % 7.65 C
1184 26-05-2016 02:35:00 8.4 C 95 % 7.65 C
1185 26-05-2016 02:40:00 8.3 C 95 % 7.55 C
1186 26-05-2016 02:45:00 8.2 C 95 % 7.45 C
1187 26-05-2016 02:50:00 8.1 C 95 % 7.35 C
1188 26-05-2016 02:55:00 8.1 C 95 % 7.35 C
1189 26-05-2016 03:00:00 8 C 95 % 7.25 C
1190 26-05-2016 03:05:00 8.1 C 96 % 7.5 C
1191 26-05-2016 03:10:00 8.2 C 96 % 7.6 C
1192 26-05-2016 03:15:00 8.2 C 96 % 7.6 C
1193 26-05-2016 03:20:00 8 C 95 % 7.25 C
1194 26-05-2016 03:25:00 7.9 C 95 % 7.15 C
1195 26-05-2016 03:30:00 7.9 C 95 % 7.15 C
1196 26-05-2016 03:35:00 7.9 C 96 % 7.3 C
1197 26-05-2016 03:40:00 7.8 C 96 % 7.2 C
1198 26-05-2016 03:45:00 7.9 C 96 % 7.3 C
1199 26-05-2016 03:50:00 7.9 C 96 % 7.3 C
1200 26-05-2016 03:55:00 7.8 C 96 % 7.2 C
Sensor: Nr:Datum:Temp:Feuchte:Taupunkt:
Aussen-T/F 1201 26-05-2016 04:00:00 7.7 C 96 % 7.1 C
1202 26-05-2016 04:05:00 7.7 C 95 % 6.95 C
1203 26-05-2016 04:10:00 7.8 C 96 % 7.2 C
1204 26-05-2016 04:15:00 7.9 C 96 % 7.3 C
1205 26-05-2016 04:20:00 8.1 C 96 % 7.5 C
1206 26-05-2016 04:25:00 8.2 C 96 % 7.6 C
1207 26-05-2016 04:30:00 8.3 C 96 % 7.7 C
1208 26-05-2016 04:35:00 8.3 C 96 % 7.7 C
1209 26-05-2016 04:40:00 8.3 C 96 % 7.7 C
1210 26-05-2016 04:45:00 8.3 C 96 % 7.7 C
1211 26-05-2016 04:50:00 8.3 C 96 % 7.7 C
1212 26-05-2016 04:55:00 8.3 C 96 % 7.7 C
1213 26-05-2016 05:00:00 8.3 C 96 % 7.7 C
1214 26-05-2016 05:05:00 8.2 C 96 % 7.6 C
1215 26-05-2016 05:10:00 8.2 C 96 % 7.6 C
1216 26-05-2016 05:15:00 8.2 C 96 % 7.6 C
1217 26-05-2016 05:20:00 8.2 C 96 % 7.6 C
1218 26-05-2016 05:25:00 8.3 C 96 % 7.7 C
1219 26-05-2016 05:30:00 8.3 C 96 % 7.7 C
1220 26-05-2016 05:35:00 8.2 C 96 % 7.6 C
1221 26-05-2016 05:40:00 8.2 C 96 % 7.6 C
1222 26-05-2016 05:45:00 8.2 C 96 % 7.6 C
1223 26-05-2016 05:50:00 8.1 C 96 % 7.5 C
1224 26-05-2016 05:55:00 8.1 C 96 % 7.5 C
1225 26-05-2016 06:00:00 8.1 C 96 % 7.5 C
Sensor: Nr:Datum:Temp:Feuchte:Taupunkt:
Aussen-T/F 1226 26-05-2016 06:05:00 8.1 C 96 % 7.5 C
1227 26-05-2016 06:10:00 8.1 C 96 % 7.5 C
1228 26-05-2016 06:15:00 8.1 C 96 % 7.5 C
1229 26-05-2016 06:20:00 8.1 C 96 % 7.5 C
1230 26-05-2016 06:25:00 8.1 C 96 % 7.5 C
1231 26-05-2016 06:30:00 8.1 C 96 % 7.5 C
1232 26-05-2016 06:35:00 8.1 C 96 % 7.5 C
1233 26-05-2016 06:40:00 8.2 C 96 % 7.6 C
1234 26-05-2016 06:45:00 8.2 C 96 % 7.6 C
1235 26-05-2016 06:50:00 8.2 C 96 % 7.6 C
1236 26-05-2016 06:55:00 8.2 C 96 % 7.6 C
1237 26-05-2016 07:00:00 8.2 C 96 % 7.6 C
1238 26-05-2016 07:05:00 8.3 C 96 % 7.7 C
1239 26-05-2016 07:10:00 8.3 C 97 % 7.85 C
1240 26-05-2016 07:15:00 8.3 C 97 % 7.85 C
1241 26-05-2016 07:20:00 8.3 C 97 % 7.85 C
1242 26-05-2016 07:25:00 8.3 C 96 % 7.7 C
1243 26-05-2016 07:30:00 8.2 C 96 % 7.6 C
1244 26-05-2016 07:35:00 8.3 C 96 % 7.7 C
1245 26-05-2016 07:40:00 8.3 C 97 % 7.85 C
1246 26-05-2016 07:45:00 8.3 C 97 % 7.85 C
1247 26-05-2016 07:50:00 8.4 C 97 % 7.95 C
1248 26-05-2016 07:55:00 8.4 C 97 % 7.95 C
1249 26-05-2016 08:00:00 8.6 C 97 % 8.15 C
1250 26-05-2016 08:05:00 8.7 C 97 % 8.25 C
Sensor: Nr:Datum:Temp:Feuchte:Taupunkt:
Aussen-T/F 1251 26-05-2016 08:10:00 8.7 C 97 % 8.25 C
1252 26-05-2016 08:15:00 8.7 C 97 % 8.25 C
1253 26-05-2016 08:20:00 8.8 C 97 % 8.35 C
1254 26-05-2016 08:25:00 8.9 C 97 % 8.45 C
1255 26-05-2016 08:30:00 9.1 C 97 % 8.65 C
1256 26-05-2016 08:35:00 9.2 C 97 % 8.75 C
1257 26-05-2016 08:40:00 9.3 C 97 % 8.85 C
1258 26-05-2016 08:45:00 9.5 C 97 % 9.05 C
1259 26-05-2016 08:50:00 9.6 C 97 % 9.15 C
1260 26-05-2016 08:55:00 9.7 C 97 % 9.25 C
1261 26-05-2016 09:00:00 9.7 C 97 % 9.25 C
1262 26-05-2016 09:05:00 9.8 C 97 % 9.35 C
1263 26-05-2016 09:10:00 9.8 C 97 % 9.35 C
1264 26-05-2016 09:15:00 10 C 97 % 9.55 C
1265 26-05-2016 09:20:00 10.1 C 97 % 9.65 C
1266 26-05-2016 09:25:00 10.3 C 97 % 9.85 C
1267 26-05-2016 09:30:00 10.3 C 97 % 9.85 C
1268 26-05-2016 09:35:00 10.4 C 97 % 9.94 C
1269 26-05-2016 09:40:00 10.6 C 97 % 10.14 C
1270 26-05-2016 09:45:00 10.6 C 97 % 10.14 C
1271 26-05-2016 09:50:00 10.7 C 97 % 10.24 C
1272 26-05-2016 09:55:00 10.8 C 97 % 10.34 C
1273 26-05-2016 10:00:00 10.8 C 97 % 10.34 C
1274 26-05-2016 10:05:00 11.1 C 97 % 10.64 C
1275 26-05-2016 10:10:00 11.2 C 97 % 10.74 C
Sensor: Nr:Datum:Temp:Feuchte:Taupunkt:
Aussen-T/F 1276 26-05-2016 10:15:00 11.5 C 97 % 11.04 C
1277 26-05-2016 10:20:00 11.8 C 97 % 11.34 C
1278 26-05-2016 10:25:00 12.2 C 97 % 11.74 C
1279 26-05-2016 10:30:00 12.4 C 97 % 11.94 C
1280 26-05-2016 10:35:00 12.7 C 96 % 12.08 C
1281 26-05-2016 10:40:00 13.2 C 96 % 12.58 C
1282 26-05-2016 10:45:00 13.5 C 94 % 12.55 C
1283 26-05-2016 10:50:00 13.8 C 93 % 12.69 C
1284 26-05-2016 10:55:00 14 C 93 % 12.89 C
1285 26-05-2016 11:00:00 14.2 C 90 % 12.58 C
1286 26-05-2016 11:05:00 14.4 C 89 % 12.61 C
1287 26-05-2016 11:10:00 14.7 C 89 % 12.91 C
1288 26-05-2016 11:15:00 14.9 C 89 % 13.1 C
1289 26-05-2016 11:20:00 15.2 C 88 % 13.23 C
1290 26-05-2016 11:25:00 15.3 C 86 % 12.97 C
1291 26-05-2016 11:30:00 15.6 C 85 % 13.09 C
1292 26-05-2016 11:35:00 15.8 C 83 % 12.92 C
1293 26-05-2016 11:40:00 16.2 C 82 % 13.13 C
1294 26-05-2016 11:45:00 16.4 C 84 % 13.69 C
1295 26-05-2016 11:50:00 16.6 C 78 % 12.75 C
1296 26-05-2016 11:55:00 16.8 C 76 % 12.55 C
1297 26-05-2016 12:00:00 17.2 C 72 % 12.11 C
1298 26-05-2016 12:05:00 17.7 C 71 % 12.38 C
1299 26-05-2016 12:10:00 18 C 70 % 12.45 C
1300 26-05-2016 12:15:00 18.2 C 69 % 12.42 C
Sensor: Nr:Datum:Temp:Feuchte:Taupunkt:
Aussen-T/F 1301 26-05-2016 12:20:00 18.3 C 76 % 14 C
1302 26-05-2016 12:25:00 18.2 C 79 % 14.5 C
1303 26-05-2016 12:30:00 18 C 72 % 12.88 C
1304 26-05-2016 12:35:00 18.2 C 69 % 12.42 C
1305 26-05-2016 12:40:00 18.3 C 76 % 14 C
1306 26-05-2016 12:45:00 18.2 C 79 % 14.5 C
1307 26-05-2016 12:50:00 18 C 81 % 14.69 C
1308 26-05-2016 12:55:00 17.8 C 81 % 14.5 C
1309 26-05-2016 13:00:00 17.7 C 81 % 14.4 C
1310 26-05-2016 13:05:00 17.6 C 82 % 14.49 C
1311 26-05-2016 13:10:00 17.4 C 83 % 14.48 C
1312 26-05-2016 13:15:00 17.3 C 84 % 14.57 C
1313 26-05-2016 13:20:00 17.3 C 77 % 13.23 C
1314 26-05-2016 13:25:00 17.8 C 75 % 13.31 C
1315 26-05-2016 13:30:00 18.3 C 72 % 13.17 C
1316 26-05-2016 13:35:00 18.8 C 68 % 12.77 C
1317 26-05-2016 13:40:00 19.3 C 66 % 12.79 C
1318 26-05-2016 13:45:00 19.6 C 63 % 12.37 C
1319 26-05-2016 13:50:00 19.8 C 62 % 12.31 C
1320 26-05-2016 13:55:00 19.9 C 74 % 15.13 C
1321 26-05-2016 14:00:00 19.8 C 75 % 15.24 C
1322 26-05-2016 14:05:00 19.7 C 75 % 15.15 C
1323 26-05-2016 14:10:00 19.6 C 64 % 12.61 C
1324 26-05-2016 14:15:00 19.9 C 62 % 12.41 C
1325 26-05-2016 14:20:00 20.3 C 60 % 12.29 C
Sensor: Nr:Datum:Temp:Feuchte:Taupunkt:
Aussen-T/F 1326 26-05-2016 14:25:00 20.8 C 60 % 12.76 C
1327 26-05-2016 14:30:00 21.2 C 58 % 12.61 C
1328 26-05-2016 14:35:00 21.5 C 54 % 11.81 C
1329 26-05-2016 14:40:00 21.6 C 55 % 12.18 C
1330 26-05-2016 14:45:00 21.6 C 65 % 14.74 C
1331 26-05-2016 14:50:00 21.3 C 69 % 15.38 C
1332 26-05-2016 14:55:00 21.1 C 65 % 14.27 C
1333 26-05-2016 15:00:00 20.9 C 58 % 12.33 C
1334 26-05-2016 15:05:00 21.2 C 59 % 12.87 C
1335 26-05-2016 15:10:00 21.5 C 60 % 13.41 C
1336 26-05-2016 15:15:00 21.9 C 58 % 13.27 C
1337 26-05-2016 15:20:00 22.2 C 54 % 12.45 C
1338 26-05-2016 15:25:00 22.4 C 54 % 12.64 C
1339 26-05-2016 15:30:00 22.7 C 52 % 12.34 C
1340 26-05-2016 15:35:00 22.7 C 52 % 12.34 C
1341 26-05-2016 15:40:00 22.7 C 51 % 12.05 C
1342 26-05-2016 15:45:00 22.9 C 52 % 12.53 C
1343 26-05-2016 15:50:00 22.8 C 53 % 12.73 C
1344 26-05-2016 15:55:00 22.5 C 54 % 12.73 C
1345 26-05-2016 16:00:00 22.4 C 58 % 13.73 C
1346 26-05-2016 16:05:00 22.2 C 57 % 13.28 C
1347 26-05-2016 16:10:00 22.4 C 53 % 12.36 C
1348 26-05-2016 16:15:00 22.8 C 54 % 13.01 C
1349 26-05-2016 16:20:00 22.9 C 54 % 13.1 C
1350 26-05-2016 16:25:00 23.1 C 50 % 12.11 C
Sensor: Nr:Datum:Temp:Feuchte:Taupunkt:
Aussen-T/F 1351 26-05-2016 16:30:00 23.3 C 49 % 11.99 C
1352 26-05-2016 16:35:00 23.4 C 49 % 12.08 C
1353 26-05-2016 16:40:00 23.6 C 49 % 12.27 C
1354 26-05-2016 16:45:00 23.4 C 51 % 12.69 C
1355 26-05-2016 16:50:00 23.3 C 57 % 14.31 C
1356 26-05-2016 16:55:00 23.1 C 55 % 13.57 C
1357 26-05-2016 17:00:00 22.8 C 63 % 15.39 C
1358 26-05-2016 17:05:00 22.6 C 53 % 12.54 C
1359 26-05-2016 17:10:00 22.9 C 53 % 12.82 C
1360 26-05-2016 17:15:00 23.3 C 50 % 12.3 C
1361 26-05-2016 17:20:00 23.3 C 55 % 13.76 C
1362 26-05-2016 17:25:00 23.3 C 53 % 13.19 C
1363 26-05-2016 17:30:00 23.8 C 49 % 12.45 C
1364 26-05-2016 17:35:00 24.1 C 48 % 12.41 C
1365 26-05-2016 17:40:00 24.4 C 51 % 13.61 C
1366 26-05-2016 17:45:00 24.6 C 48 % 12.87 C
1367 26-05-2016 17:50:00 24.6 C 51 % 13.79 C
1368 26-05-2016 17:55:00 24.6 C 46 % 12.22 C
1369 26-05-2016 18:00:00 24.1 C 48 % 12.41 C
1370 26-05-2016 18:05:00 23.9 C 48 % 12.23 C
1371 26-05-2016 18:10:00 24 C 51 % 13.24 C
1372 26-05-2016 18:15:00 24 C 55 % 14.41 C
1373 26-05-2016 18:20:00 23.8 C 51 % 13.06 C
1374 26-05-2016 18:25:00 23.6 C 50 % 12.57 C
1375 26-05-2016 18:30:00 23.6 C 62 % 15.89 C
Sensor: Nr:Datum:Temp:Feuchte:Taupunkt:
Aussen-T/F 1376 26-05-2016 18:35:00 23.8 C 53 % 13.65 C
1377 26-05-2016 18:40:00 24.1 C 49 % 12.72 C
1378 26-05-2016 18:45:00 24.1 C 48 % 12.41 C
1379 26-05-2016 18:50:00 24.3 C 50 % 13.22 C
1380 26-05-2016 18:55:00 24.3 C 49 % 12.91 C
1381 26-05-2016 19:00:00 24.3 C 50 % 13.22 C
1382 26-05-2016 19:05:00 24.5 C 60 % 16.23 C
1383 26-05-2016 19:10:00 24.6 C 49 % 13.18 C
1384 26-05-2016 19:15:00 24.4 C 49 % 13 C
1385 26-05-2016 19:20:00 24.2 C 50 % 13.12 C
1386 26-05-2016 19:25:00 23.9 C 49 % 12.54 C
1387 26-05-2016 19:30:00 23.6 C 50 % 12.57 C
1388 26-05-2016 19:35:00 23.4 C 57 % 14.4 C
1389 26-05-2016 19:40:00 23.3 C 61 % 15.36 C
1390 26-05-2016 19:45:00 22.9 C 63 % 15.48 C
1391 26-05-2016 19:50:00 22.4 C 64 % 15.26 C
1392 26-05-2016 19:55:00 21.8 C 67 % 15.4 C
1393 26-05-2016 20:00:00 21.3 C 68 % 15.16 C
1394 26-05-2016 20:05:00 20.8 C 70 % 15.13 C
1395 26-05-2016 20:10:00 20.4 C 71 % 14.97 C
1396 26-05-2016 20:15:00 20.1 C 73 % 15.11 C
1397 26-05-2016 20:20:00 19.8 C 73 % 14.82 C
1398 26-05-2016 20:25:00 19.6 C 74 % 14.84 C
1399 26-05-2016 20:30:00 19.4 C 74 % 14.65 C
1400 26-05-2016 20:35:00 19.2 C 75 % 14.66 C
Sensor: Nr:Datum:Temp:Feuchte:Taupunkt:
Aussen-T/F 1401 26-05-2016 20:40:00 18.9 C 76 % 14.58 C
1402 26-05-2016 20:45:00 18.7 C 76 % 14.39 C
1403 26-05-2016 20:50:00 18.5 C 77 % 14.39 C
1404 26-05-2016 20:55:00 18.3 C 77 % 14.2 C
1405 26-05-2016 21:00:00 18.2 C 77 % 14.1 C
1406 26-05-2016 21:05:00 18.1 C 78 % 14.21 C
1407 26-05-2016 21:10:00 17.9 C 78 % 14.01 C
1408 26-05-2016 21:15:00 17.8 C 79 % 14.11 C
1409 26-05-2016 21:20:00 17.7 C 79 % 14.01 C
1410 26-05-2016 21:25:00 17.6 C 78 % 13.72 C
1411 26-05-2016 21:30:00 17.6 C 79 % 13.92 C
1412 26-05-2016 21:35:00 17.4 C 79 % 13.72 C
1413 26-05-2016 21:40:00 17.4 C 79 % 13.72 C
1414 26-05-2016 21:45:00 17.3 C 80 % 13.82 C
1415 26-05-2016 21:50:00 17.3 C 79 % 13.63 C
1416 26-05-2016 21:55:00 17.3 C 80 % 13.82 C
1417 26-05-2016 22:00:00 17.2 C 80 % 13.72 C
1418 26-05-2016 22:05:00 17.2 C 81 % 13.91 C
1419 26-05-2016 22:10:00 17.1 C 82 % 14 C
1420 26-05-2016 22:15:00 16.9 C 83 % 14 C
1421 26-05-2016 22:20:00 16.8 C 85 % 14.26 C
1422 26-05-2016 22:25:00 16.7 C 86 % 14.35 C
1423 26-05-2016 22:30:00 16.5 C 87 % 14.33 C
1424 26-05-2016 22:35:00 16.3 C 87 % 14.13 C
1425 26-05-2016 22:40:00 16.2 C 88 % 14.21 C
Sensor: Nr:Datum:Temp:Feuchte:Taupunkt:
Aussen-T/F 1426 26-05-2016 22:45:00 16.1 C 89 % 14.29 C
1427 26-05-2016 22:50:00 16 C 89 % 14.19 C
1428 26-05-2016 22:55:00 15.9 C 90 % 14.26 C
1429 26-05-2016 23:00:00 15.8 C 90 % 14.16 C
1430 26-05-2016 23:05:00 15.7 C 90 % 14.06 C
1431 26-05-2016 23:10:00 15.7 C 90 % 14.06 C
1432 26-05-2016 23:15:00 15.6 C 91 % 14.14 C
1433 26-05-2016 23:20:00 15.5 C 91 % 14.04 C
1434 26-05-2016 23:25:00 15.4 C 92 % 14.11 C
1435 26-05-2016 23:30:00 15.3 C 92 % 14.01 C
1436 26-05-2016 23:35:00 15.3 C 92 % 14.01 C
1437 26-05-2016 23:40:00 15.3 C 92 % 14.01 C
1438 26-05-2016 23:45:00 15.2 C 92 % 13.91 C
1439 26-05-2016 23:50:00 15.2 C 92 % 13.91 C
1440 26-05-2016 23:55:00 15.1 C 92 % 13.81 C
1441 27-05-2016 00:00:00 15 C 93 % 13.88 C
1442 27-05-2016 00:05:00 15 C 93 % 13.88 C
1443 27-05-2016 00:10:00 15 C 93 % 13.88 C
1444 27-05-2016 00:15:00 14.9 C 93 % 13.78 C
1445 27-05-2016 00:20:00 14.9 C 93 % 13.78 C
1446 27-05-2016 00:25:00 14.8 C 93 % 13.68 C
1447 27-05-2016 00:30:00 14.8 C 93 % 13.68 C
1448 27-05-2016 00:35:00 14.8 C 93 % 13.68 C
1449 27-05-2016 00:40:00 14.7 C 93 % 13.58 C
1450 27-05-2016 00:45:00 14.7 C 93 % 13.58 C
Sensor: Nr:Datum:Temp:Feuchte:Taupunkt:
Aussen-T/F 1451 27-05-2016 00:50:00 14.7 C 93 % 13.58 C
1452 27-05-2016 00:55:00 14.6 C 93 % 13.48 C
1453 27-05-2016 01:00:00 14.6 C 93 % 13.48 C
1454 27-05-2016 01:05:00 14.5 C 93 % 13.38 C
1455 27-05-2016 01:10:00 14.4 C 93 % 13.28 C
1456 27-05-2016 01:15:00 14.4 C 93 % 13.28 C
1457 27-05-2016 01:20:00 14.4 C 93 % 13.28 C
1458 27-05-2016 01:25:00 14.3 C 93 % 13.18 C
1459 27-05-2016 01:30:00 14.3 C 94 % 13.35 C
1460 27-05-2016 01:35:00 14.3 C 94 % 13.35 C
1461 27-05-2016 01:40:00 14.3 C 94 % 13.35 C
1462 27-05-2016 01:45:00 14.3 C 94 % 13.35 C
1463 27-05-2016 01:50:00 14.3 C 94 % 13.35 C
1464 27-05-2016 01:55:00 14.3 C 94 % 13.35 C
1465 27-05-2016 02:00:00 14.3 C 94 % 13.35 C
1466 27-05-2016 02:05:00 14.3 C 94 % 13.35 C
1467 27-05-2016 02:10:00 14.3 C 94 % 13.35 C
1468 27-05-2016 02:15:00 14.4 C 94 % 13.45 C
1469 27-05-2016 02:20:00 14.4 C 94 % 13.45 C
1470 27-05-2016 02:25:00 14.4 C 95 % 13.61 C
1471 27-05-2016 02:30:00 14.5 C 95 % 13.71 C
1472 27-05-2016 02:35:00 14.6 C 95 % 13.81 C
1473 27-05-2016 02:40:00 14.6 C 95 % 13.81 C
1474 27-05-2016 02:45:00 14.6 C 95 % 13.81 C
1475 27-05-2016 02:50:00 14.6 C 95 % 13.81 C
Sensor: Nr:Datum:Temp:Feuchte:Taupunkt:
Aussen-T/F 1476 27-05-2016 02:55:00 14.6 C 95 % 13.81 C
1477 27-05-2016 03:00:00 14.6 C 95 % 13.81 C
1478 27-05-2016 03:05:00 14.6 C 95 % 13.81 C
1479 27-05-2016 03:10:00 14.6 C 95 % 13.81 C
1480 27-05-2016 03:15:00 14.7 C 95 % 13.91 C
1481 27-05-2016 03:20:00 14.7 C 95 % 13.91 C
1482 27-05-2016 03:25:00 14.7 C 95 % 13.91 C
1483 27-05-2016 03:30:00 14.6 C 95 % 13.81 C
1484 27-05-2016 03:35:00 14.6 C 95 % 13.81 C
1485 27-05-2016 03:40:00 14.6 C 95 % 13.81 C
1486 27-05-2016 03:45:00 14.6 C 95 % 13.81 C
1487 27-05-2016 03:50:00 14.6 C 95 % 13.81 C
1488 27-05-2016 03:55:00 14.6 C 95 % 13.81 C
1489 27-05-2016 04:00:00 14.6 C 95 % 13.81 C
1490 27-05-2016 04:05:00 14.6 C 95 % 13.81 C
1491 27-05-2016 04:10:00 14.6 C 95 % 13.81 C
1492 27-05-2016 04:15:00 14.5 C 95 % 13.71 C
1493 27-05-2016 04:20:00 14.5 C 95 % 13.71 C
1494 27-05-2016 04:25:00 14.4 C 96 % 13.77 C
1495 27-05-2016 04:30:00 14.4 C 96 % 13.77 C
1496 27-05-2016 04:35:00 14.4 C 96 % 13.77 C
1497 27-05-2016 04:40:00 14.3 C 95 % 13.51 C
1498 27-05-2016 04:45:00 14.3 C 95 % 13.51 C
1499 27-05-2016 04:50:00 14.2 C 95 % 13.41 C
1500 27-05-2016 04:55:00 14.2 C 95 % 13.41 C
Sensor: Nr:Datum:Temp:Feuchte:Taupunkt:
Aussen-T/F 1501 27-05-2016 05:00:00 14.1 C 96 % 13.47 C
1502 27-05-2016 05:05:00 14 C 96 % 13.37 C
1503 27-05-2016 05:10:00 14 C 96 % 13.37 C
1504 27-05-2016 05:15:00 13.9 C 96 % 13.27 C
1505 27-05-2016 05:20:00 13.9 C 96 % 13.27 C
1506 27-05-2016 05:25:00 13.9 C 96 % 13.27 C
1507 27-05-2016 05:30:00 13.9 C 96 % 13.27 C
1508 27-05-2016 05:35:00 13.9 C 96 % 13.27 C
1509 27-05-2016 05:40:00 13.9 C 96 % 13.27 C
1510 27-05-2016 05:45:00 13.9 C 96 % 13.27 C
1511 27-05-2016 05:50:00 13.9 C 96 % 13.27 C
1512 27-05-2016 08:00:00 14.1 C 96 % 13.47 C
1513 27-05-2016 08:05:00 14.1 C 96 % 13.47 C
1514 27-05-2016 08:10:00 14.2 C 96 % 13.57 C
1515 27-05-2016 08:15:00 14.3 C 96 % 13.67 C
1516 27-05-2016 08:20:00 14.5 C 96 % 13.87 C
1517 27-05-2016 08:25:00 14.6 C 96 % 13.97 C
1518 27-05-2016 08:30:00 14.7 C 96 % 14.07 C
1519 27-05-2016 08:35:00 14.8 C 97 % 14.33 C
1520 27-05-2016 08:40:00 15 C 97 % 14.53 C
1521 27-05-2016 08:45:00 15.1 C 97 % 14.63 C
1522 27-05-2016 08:50:00 15.2 C 97 % 14.73 C
1523 27-05-2016 08:55:00 15.2 C 96 % 14.57 C
1524 27-05-2016 09:00:00 15.2 C 96 % 14.57 C
1525 27-05-2016 09:05:00 15.2 C 96 % 14.57 C
Sensor: Nr:Datum:Temp:Feuchte:Taupunkt:
Aussen-T/F 1526 27-05-2016 09:10:00 15.2 C 96 % 14.57 C
1527 27-05-2016 09:15:00 15.2 C 96 % 14.57 C
1528 27-05-2016 09:20:00 15.2 C 96 % 14.57 C
1529 27-05-2016 09:25:00 15.3 C 96 % 14.67 C
1530 27-05-2016 09:30:00 15.3 C 96 % 14.67 C
1531 27-05-2016 09:35:00 15.4 C 96 % 14.77 C
1532 27-05-2016 09:40:00 15.4 C 95 % 14.6 C
1533 27-05-2016 09:45:00 15.6 C 95 % 14.8 C
1534 27-05-2016 09:50:00 15.5 C 95 % 14.7 C
1535 27-05-2016 09:55:00 15.6 C 95 % 14.8 C
1536 27-05-2016 10:00:00 15.8 C 95 % 15 C
1537 27-05-2016 10:05:00 16 C 95 % 15.2 C
1538 27-05-2016 10:10:00 16.1 C 94 % 15.13 C
1539 27-05-2016 10:15:00 16.2 C 94 % 15.23 C
1540 27-05-2016 10:20:00 16.3 C 94 % 15.33 C
1541 27-05-2016 10:25:00 16.4 C 93 % 15.27 C
1542 27-05-2016 10:30:00 16.6 C 93 % 15.46 C
1543 27-05-2016 10:35:00 16.8 C 92 % 15.49 C
1544 27-05-2016 10:40:00 17 C 91 % 15.52 C
1545 27-05-2016 10:45:00 17.2 C 90 % 15.55 C
1546 27-05-2016 10:50:00 17.3 C 90 % 15.64 C
1547 27-05-2016 10:55:00 17.3 C 89 % 15.47 C
1548 27-05-2016 11:00:00 17.4 C 89 % 15.57 C
1549 27-05-2016 11:05:00 17.4 C 88 % 15.39 C
1550 27-05-2016 11:10:00 17.5 C 88 % 15.49 C
Sensor: Nr:Datum:Temp:Feuchte:Taupunkt:
Aussen-T/F 1551 27-05-2016 11:15:00 17.6 C 87 % 15.41 C
1552 27-05-2016 11:20:00 17.6 C 87 % 15.41 C
1553 27-05-2016 11:25:00 17.7 C 88 % 15.69 C
1554 27-05-2016 11:30:00 17.8 C 88 % 15.79 C
1555 27-05-2016 11:35:00 17.9 C 87 % 15.71 C
1556 27-05-2016 11:40:00 18 C 86 % 15.62 C
1557 27-05-2016 11:45:00 18.2 C 85 % 15.64 C
1558 27-05-2016 11:50:00 18.4 C 86 % 16.02 C
1559 27-05-2016 11:55:00 18.6 C 84 % 15.84 C
1560 27-05-2016 12:00:00 18.6 C 84 % 15.84 C
1561 27-05-2016 12:05:00 18.7 C 82 % 15.57 C
1562 27-05-2016 12:10:00 18.8 C 85 % 16.23 C
1563 27-05-2016 12:15:00 18.9 C 89 % 17.05 C
1564 27-05-2016 12:20:00 18.8 C 89 % 16.95 C
1565 27-05-2016 12:25:00 18.7 C 90 % 17.03 C
1566 27-05-2016 12:30:00 18.6 C 91 % 17.1 C
1567 27-05-2016 12:35:00 18.4 C 92 % 17.08 C
1568 27-05-2016 12:40:00 18.4 C 92 % 17.08 C
1569 27-05-2016 12:45:00 18.3 C 92 % 16.98 C
1570 27-05-2016 12:50:00 18.2 C 90 % 16.53 C
1571 27-05-2016 12:55:00 18.3 C 92 % 16.98 C
1572 27-05-2016 13:00:00 18.3 C 89 % 16.46 C
1573 27-05-2016 13:05:00 18.7 C 89 % 16.85 C
1574 27-05-2016 13:10:00 19 C 91 % 17.5 C
1575 27-05-2016 13:15:00 19.1 C 88 % 17.07 C
Sensor: Nr:Datum:Temp:Feuchte:Taupunkt:
Aussen-T/F 1576 27-05-2016 13:20:00 19.2 C 87 % 16.98 C
1577 27-05-2016 13:25:00 19.4 C 86 % 17 C
1578 27-05-2016 13:30:00 19.6 C 90 % 17.91 C
1579 27-05-2016 13:35:00 19.7 C 89 % 17.84 C
1580 27-05-2016 13:40:00 19.6 C 89 % 17.74 C
1581 27-05-2016 13:45:00 19.4 C 83 % 16.44 C
1582 27-05-2016 13:50:00 19.6 C 80 % 16.06 C
1583 27-05-2016 13:55:00 19.9 C 82 % 16.74 C
1584 27-05-2016 14:00:00 20.1 C 78 % 16.14 C
1585 27-05-2016 14:05:00 20.2 C 78 % 16.24 C
1586 27-05-2016 14:10:00 20.3 C 78 % 16.34 C
1587 27-05-2016 14:15:00 20.3 C 86 % 17.88 C
1588 27-05-2016 14:20:00 20.3 C 87 % 18.06 C
1589 27-05-2016 14:25:00 20.2 C 88 % 18.15 C
1590 27-05-2016 14:30:00 20.2 C 89 % 18.33 C
1591 27-05-2016 14:35:00 20 C 80 % 16.44 C
1592 27-05-2016 14:40:00 20.2 C 76 % 15.83 C
1593 27-05-2016 14:45:00 20.7 C 74 % 15.9 C
1594 27-05-2016 14:50:00 21.1 C 74 % 16.29 C
1595 27-05-2016 14:55:00 21.4 C 72 % 16.14 C
1596 27-05-2016 15:00:00 21.7 C 71 % 16.21 C
1597 27-05-2016 15:05:00 21.8 C 68 % 15.63 C
1598 27-05-2016 15:10:00 22.1 C 67 % 15.69 C
1599 27-05-2016 15:15:00 22.2 C 65 % 15.31 C
1600 27-05-2016 15:20:00 22.4 C 69 % 16.43 C
Sensor: Nr:Datum:Temp:Feuchte:Taupunkt:
Aussen-T/F 1601 27-05-2016 15:25:00 22.6 C 66 % 15.93 C
1602 27-05-2016 15:30:00 22.8 C 65 % 15.88 C
1603 27-05-2016 15:35:00 23.1 C 65 % 16.16 C
1604 27-05-2016 15:40:00 23.3 C 65 % 16.35 C
1605 27-05-2016 15:45:00 23.5 C 64 % 16.3 C
1606 27-05-2016 15:50:00 23.6 C 59 % 15.12 C
1607 27-05-2016 15:55:00 23.3 C 64 % 16.11 C
1608 27-05-2016 16:00:00 23.2 C 71 % 17.65 C
1609 27-05-2016 16:05:00 22.9 C 74 % 18.02 C
1610 27-05-2016 16:10:00 22.6 C 76 % 18.15 C
1611 27-05-2016 16:15:00 22.3 C 79 % 18.48 C
1612 27-05-2016 16:20:00 22.2 C 78 % 18.18 C
1613 27-05-2016 16:25:00 22.3 C 72 % 17.01 C
1614 27-05-2016 16:30:00 22.2 C 79 % 18.38 C
1615 27-05-2016 16:35:00 21.8 C 79 % 18 C
1616 27-05-2016 16:40:00 21.3 C 81 % 17.91 C
1617 27-05-2016 16:45:00 20.9 C 83 % 17.9 C
1618 27-05-2016 16:50:00 20.5 C 84 % 17.7 C
1619 27-05-2016 16:55:00 20.1 C 85 % 17.5 C
1620 27-05-2016 17:00:00 19.7 C 86 % 17.29 C
1621 27-05-2016 17:05:00 19.4 C 86 % 17 C
1622 27-05-2016 17:10:00 18.8 C 84 % 16.04 C
1623 27-05-2016 17:15:00 18.1 C 85 % 15.54 C
1624 27-05-2016 17:20:00 17.4 C 87 % 15.21 C
1625 27-05-2016 17:25:00 16.9 C 89 % 15.08 C
Sensor: Nr:Datum:Temp:Feuchte:Taupunkt:
Aussen-T/F 1626 27-05-2016 17:30:00 16.7 C 91 % 15.22 C
1627 27-05-2016 17:35:00 16.6 C 92 % 15.3 C
1628 27-05-2016 17:40:00 16.5 C 92 % 15.2 C
1629 27-05-2016 17:45:00 16.4 C 93 % 15.27 C
1630 27-05-2016 17:50:00 16.4 C 93 % 15.27 C
1631 27-05-2016 17:55:00 16.4 C 93 % 15.27 C
1632 27-05-2016 18:00:00 16.4 C 94 % 15.43 C
1633 27-05-2016 18:05:00 16.4 C 94 % 15.43 C
1634 27-05-2016 18:10:00 16.4 C 94 % 15.43 C
1635 27-05-2016 18:15:00 16.5 C 94 % 15.53 C
1636 27-05-2016 18:20:00 16.5 C 94 % 15.53 C
1637 27-05-2016 18:25:00 16.6 C 95 % 15.8 C
1638 27-05-2016 18:30:00 16.6 C 95 % 15.8 C
1639 27-05-2016 18:35:00 16.6 C 95 % 15.8 C
1640 27-05-2016 18:40:00 16.7 C 95 % 15.9 C
1641 27-05-2016 18:45:00 16.7 C 95 % 15.9 C
1642 27-05-2016 18:50:00 16.7 C 95 % 15.9 C
1643 27-05-2016 18:55:00 16.7 C 95 % 15.9 C
1644 27-05-2016 19:00:00 16.7 C 95 % 15.9 C
1645 27-05-2016 19:05:00 16.7 C 95 % 15.9 C
1646 27-05-2016 19:10:00 16.7 C 95 % 15.9 C
1647 27-05-2016 19:15:00 16.7 C 95 % 15.9 C
1648 27-05-2016 19:20:00 16.7 C 95 % 15.9 C
1649 27-05-2016 19:25:00 16.7 C 95 % 15.9 C
1650 27-05-2016 19:30:00 16.7 C 95 % 15.9 C
Sensor: Nr:Datum:Temp:Feuchte:Taupunkt:
Aussen-T/F 1651 27-05-2016 19:35:00 16.7 C 95 % 15.9 C
1652 27-05-2016 19:40:00 16.7 C 95 % 15.9 C
1653 27-05-2016 19:45:00 16.7 C 95 % 15.9 C
1654 27-05-2016 19:50:00 16.7 C 95 % 15.9 C
1655 27-05-2016 19:55:00 16.7 C 95 % 15.9 C
1656 27-05-2016 20:00:00 16.7 C 95 % 15.9 C
1657 27-05-2016 20:05:00 16.7 C 95 % 15.9 C
1658 27-05-2016 20:10:00 16.7 C 95 % 15.9 C
1659 27-05-2016 20:15:00 16.7 C 95 % 15.9 C
1660 27-05-2016 20:20:00 16.7 C 95 % 15.9 C
1661 27-05-2016 20:25:00 16.6 C 95 % 15.8 C
1662 27-05-2016 20:30:00 16.6 C 95 % 15.8 C
1663 27-05-2016 20:35:00 16.5 C 95 % 15.7 C
1664 27-05-2016 20:40:00 16.4 C 96 % 15.76 C
1665 27-05-2016 20:45:00 16.4 C 95 % 15.6 C
1666 27-05-2016 20:50:00 16.3 C 95 % 15.5 C
1667 27-05-2016 20:55:00 16.2 C 95 % 15.4 C
1668 27-05-2016 21:00:00 16.2 C 95 % 15.4 C
1669 27-05-2016 21:05:00 16.1 C 95 % 15.3 C
1670 27-05-2016 21:10:00 16.1 C 95 % 15.3 C
1671 27-05-2016 21:15:00 15.9 C 95 % 15.1 C
1672 27-05-2016 21:20:00 15.9 C 95 % 15.1 C
1673 27-05-2016 21:25:00 15.9 C 96 % 15.26 C
1674 27-05-2016 21:30:00 15.8 C 96 % 15.16 C
1675 27-05-2016 21:35:00 15.8 C 96 % 15.16 C
Sensor: Nr:Datum:Temp:Feuchte:Taupunkt:
Aussen-T/F 1676 27-05-2016 21:40:00 15.7 C 96 % 15.06 C
1677 27-05-2016 21:45:00 15.7 C 96 % 15.06 C
1678 27-05-2016 21:50:00 15.6 C 96 % 14.96 C
1679 27-05-2016 21:55:00 15.6 C 96 % 14.96 C
1680 27-05-2016 22:00:00 15.6 C 96 % 14.96 C
1681 27-05-2016 22:05:00 15.6 C 96 % 14.96 C
1682 27-05-2016 22:10:00 15.5 C 96 % 14.86 C
1683 27-05-2016 22:15:00 15.4 C 96 % 14.77 C
1684 27-05-2016 22:20:00 15.3 C 96 % 14.67 C
1685 27-05-2016 22:25:00 15.1 C 96 % 14.47 C
1686 27-05-2016 22:30:00 14.9 C 95 % 14.11 C
1687 27-05-2016 22:35:00 14.9 C 96 % 14.27 C
1688 27-05-2016 22:40:00 14.8 C 96 % 14.17 C
1689 27-05-2016 22:45:00 14.8 C 96 % 14.17 C
1690 27-05-2016 22:50:00 14.8 C 96 % 14.17 C
1691 27-05-2016 22:55:00 14.8 C 96 % 14.17 C
1692 28-05-2016 01:30:00 13.3 C 96 % 12.68 C
1693 28-05-2016 01:35:00 13.3 C 96 % 12.68 C
1694 28-05-2016 01:40:00 13.7 C 97 % 13.23 C
1695 28-05-2016 01:45:00 13.9 C 97 % 13.43 C
1696 28-05-2016 01:50:00 14.1 C 97 % 13.63 C
1697 28-05-2016 01:55:00 14.1 C 97 % 13.63 C
1698 28-05-2016 02:00:00 14.2 C 97 % 13.73 C
1699 28-05-2016 02:05:00 14.2 C 97 % 13.73 C
1700 28-05-2016 02:10:00 14.2 C 97 % 13.73 C
Sensor: Nr:Datum:Temp:Feuchte:Taupunkt:
Aussen-T/F 1701 28-05-2016 02:15:00 14.2 C 97 % 13.73 C
1702 28-05-2016 02:20:00 14.3 C 97 % 13.83 C
1703 28-05-2016 02:25:00 14.3 C 97 % 13.83 C
1704 28-05-2016 02:30:00 14.2 C 97 % 13.73 C
1705 28-05-2016 02:35:00 14.1 C 97 % 13.63 C
1706 28-05-2016 02:40:00 14.1 C 97 % 13.63 C
1707 28-05-2016 02:45:00 14 C 97 % 13.53 C
1708 28-05-2016 02:50:00 13.9 C 97 % 13.43 C
1709 28-05-2016 02:55:00 13.9 C 97 % 13.43 C
1710 28-05-2016 03:00:00 13.9 C 97 % 13.43 C
1711 28-05-2016 03:05:00 13.8 C 97 % 13.33 C
1712 28-05-2016 03:10:00 13.8 C 97 % 13.33 C
1713 28-05-2016 03:15:00 13.8 C 97 % 13.33 C
1714 28-05-2016 03:20:00 13.9 C 97 % 13.43 C
1715 28-05-2016 03:25:00 13.9 C 97 % 13.43 C
1716 28-05-2016 03:30:00 13.9 C 97 % 13.43 C
1717 28-05-2016 03:35:00 13.8 C 97 % 13.33 C
1718 28-05-2016 03:40:00 13.8 C 97 % 13.33 C
1719 28-05-2016 03:45:00 13.8 C 97 % 13.33 C
1720 28-05-2016 03:50:00 13.7 C 97 % 13.23 C
1721 28-05-2016 03:55:00 13.7 C 97 % 13.23 C
1722 28-05-2016 04:00:00 13.7 C 97 % 13.23 C
1723 28-05-2016 04:05:00 13.7 C 97 % 13.23 C
1724 28-05-2016 04:10:00 13.7 C 97 % 13.23 C
1725 28-05-2016 12:50:00 18.2 C 91 % 16.71 C
Sensor: Nr:Datum:Temp:Feuchte:Taupunkt:
Aussen-T/F 1726 28-05-2016 12:55:00 18.4 C 90 % 16.73 C
1727 28-05-2016 13:00:00 18.6 C 90 % 16.93 C
1728 28-05-2016 13:05:00 18.8 C 90 % 17.12 C
1729 28-05-2016 13:10:00 18.9 C 90 % 17.22 C
1730 28-05-2016 13:15:00 19.2 C 89 % 17.34 C
1731 28-05-2016 13:20:00 19.3 C 87 % 17.08 C
1732 28-05-2016 13:25:00 19.6 C 86 % 17.19 C
1733 28-05-2016 13:30:00 19.9 C 85 % 17.3 C
1734 28-05-2016 13:35:00 20.1 C 84 % 17.31 C
1735 28-05-2016 13:40:00 20.3 C 83 % 17.32 C
1736 28-05-2016 13:45:00 20.6 C 81 % 17.22 C
1737 28-05-2016 13:50:00 20.7 C 78 % 16.73 C
1738 28-05-2016 13:55:00 20.8 C 76 % 16.41 C
1739 28-05-2016 14:00:00 20.9 C 76 % 16.51 C
1740 28-05-2016 14:05:00 21.1 C 76 % 16.7 C
1741 28-05-2016 14:10:00 21.2 C 75 % 16.59 C
1742 28-05-2016 14:15:00 21.3 C 74 % 16.48 C
1743 28-05-2016 14:20:00 21.4 C 73 % 16.36 C
1744 28-05-2016 14:25:00 21.7 C 73 % 16.65 C
1745 28-05-2016 14:30:00 21.9 C 71 % 16.4 C
1746 28-05-2016 14:35:00 22.1 C 73 % 17.03 C
1747 28-05-2016 14:40:00 22.1 C 71 % 16.6 C
1748 28-05-2016 14:45:00 22.2 C 69 % 16.24 C
1749 28-05-2016 14:50:00 22.5 C 70 % 16.76 C
1750 28-05-2016 14:55:00 22.6 C 70 % 16.85 C
Sensor: Nr:Datum:Temp:Feuchte:Taupunkt:
Aussen-T/F 1751 28-05-2016 15:00:00 22.6 C 64 % 15.45 C
1752 28-05-2016 15:05:00 22.5 C 79 % 18.67 C
1753 28-05-2016 15:10:00 22.3 C 78 % 18.28 C
1754 28-05-2016 15:15:00 22.2 C 76 % 17.77 C
1755 28-05-2016 15:20:00 22.4 C 70 % 16.66 C
1756 28-05-2016 15:25:00 22.8 C 66 % 16.12 C
1757 28-05-2016 15:30:00 23 C 76 % 18.54 C
1758 28-05-2016 15:35:00 23.2 C 80 % 19.56 C
1759 28-05-2016 15:40:00 23 C 80 % 19.36 C
1760 28-05-2016 15:45:00 22.8 C 81 % 19.37 C
1761 28-05-2016 15:50:00 22.7 C 82 % 19.47 C
1762 28-05-2016 15:55:00 22.7 C 77 % 18.46 C
1763 28-05-2016 16:00:00 23.1 C 64 % 15.92 C
1764 28-05-2016 16:05:00 23.6 C 65 % 16.64 C
1765 28-05-2016 16:10:00 23.9 C 61 % 15.92 C
1766 28-05-2016 16:15:00 24.1 C 72 % 18.73 C
1767 28-05-2016 16:20:00 23.9 C 76 % 19.41 C
1768 28-05-2016 16:25:00 23.6 C 77 % 19.33 C
1769 28-05-2016 16:30:00 23.1 C 77 % 18.85 C
1770 28-05-2016 16:35:00 22.7 C 78 % 18.67 C
1771 28-05-2016 16:40:00 22.4 C 80 % 18.78 C
1772 28-05-2016 16:45:00 22.2 C 81 % 18.78 C
1773 28-05-2016 16:50:00 22 C 82 % 18.78 C
1774 28-05-2016 16:55:00 21.8 C 84 % 18.97 C
1775 28-05-2016 17:00:00 21.8 C 84 % 18.97 C
Sensor: Nr:Datum:Temp:Feuchte:Taupunkt:
Aussen-T/F 1776 28-05-2016 17:05:00 21.6 C 83 % 18.59 C
1777 28-05-2016 17:10:00 21.4 C 83 % 18.39 C
1778 28-05-2016 17:15:00 21.2 C 84 % 18.39 C
1779 28-05-2016 17:20:00 21 C 84 % 18.19 C
1780 28-05-2016 17:25:00 20.7 C 84 % 17.9 C
1781 28-05-2016 17:30:00 20.5 C 85 % 17.89 C
1782 28-05-2016 17:35:00 20.3 C 86 % 17.88 C
1783 28-05-2016 17:40:00 20.1 C 87 % 17.87 C
1784 28-05-2016 17:45:00 19.9 C 87 % 17.67 C
1785 28-05-2016 17:50:00 19.7 C 88 % 17.66 C
1786 28-05-2016 17:55:00 19.6 C 88 % 17.56 C
1787 28-05-2016 18:00:00 19.4 C 89 % 17.54 C
1788 28-05-2016 18:05:00 19.3 C 90 % 17.62 C
1789 28-05-2016 18:10:00 19.2 C 90 % 17.52 C
1790 28-05-2016 18:15:00 19.1 C 90 % 17.42 C
1791 28-05-2016 18:20:00 19.1 C 91 % 17.6 C
1792 28-05-2016 18:25:00 18.9 C 91 % 17.4 C
1793 28-05-2016 18:30:00 18.9 C 91 % 17.4 C
1794 28-05-2016 18:35:00 18.8 C 91 % 17.3 C
1795 28-05-2016 18:40:00 18.7 C 92 % 17.37 C
1796 28-05-2016 18:45:00 18.7 C 92 % 17.37 C
1797 28-05-2016 18:50:00 18.6 C 92 % 17.27 C
1798 28-05-2016 18:55:00 18.4 C 92 % 17.08 C
1799 28-05-2016 19:00:00 18.3 C 92 % 16.98 C
1800 28-05-2016 19:05:00 18.3 C 92 % 16.98 C
Sensor: Nr:Datum:Temp:Feuchte:Taupunkt:
Aussen-T/F 1801 28-05-2016 19:10:00 18.2 C 93 % 17.05 C
1802 28-05-2016 19:15:00 18.2 C 93 % 17.05 C
1803 28-05-2016 19:20:00 18.1 C 93 % 16.95 C
1804 28-05-2016 19:25:00 18.1 C 93 % 16.95 C
1805 28-05-2016 19:30:00 18 C 93 % 16.85 C
1806 28-05-2016 19:35:00 17.9 C 93 % 16.75 C
1807 28-05-2016 19:40:00 18 C 94 % 17.02 C
1808 28-05-2016 19:45:00 18 C 94 % 17.02 C
1809 28-05-2016 19:50:00 18.1 C 94 % 17.12 C
1810 28-05-2016 19:55:00 18 C 94 % 17.02 C
1811 28-05-2016 20:00:00 18 C 94 % 17.02 C
1812 28-05-2016 20:05:00 18 C 94 % 17.02 C
1813 28-05-2016 20:10:00 17.9 C 94 % 16.92 C
1814 28-05-2016 20:15:00 17.9 C 94 % 16.92 C
1815 28-05-2016 20:20:00 17.9 C 94 % 16.92 C
1816 28-05-2016 20:25:00 17.8 C 94 % 16.82 C
1817 28-05-2016 20:30:00 17.8 C 94 % 16.82 C
1818 28-05-2016 20:35:00 17.7 C 94 % 16.72 C
1819 28-05-2016 20:40:00 17.6 C 94 % 16.62 C
1820 28-05-2016 20:45:00 17.5 C 94 % 16.52 C
1821 28-05-2016 20:50:00 17.4 C 94 % 16.42 C
1822 28-05-2016 20:55:00 17.3 C 94 % 16.33 C
1823 28-05-2016 21:00:00 17.1 C 94 % 16.13 C
1824 28-05-2016 21:05:00 17 C 94 % 16.03 C
1825 28-05-2016 21:10:00 16.8 C 94 % 15.83 C
Sensor: Nr:Datum:Temp:Feuchte:Taupunkt:
Aussen-T/F 1826 28-05-2016 21:15:00 16.7 C 94 % 15.73 C
1827 28-05-2016 21:20:00 16.6 C 94 % 15.63 C
1828 28-05-2016 21:25:00 16.5 C 94 % 15.53 C
1829 28-05-2016 21:30:00 16.4 C 94 % 15.43 C
1830 28-05-2016 21:35:00 16.3 C 94 % 15.33 C
1831 28-05-2016 21:40:00 16.2 C 94 % 15.23 C
1832 28-05-2016 21:45:00 16.2 C 94 % 15.23 C
1833 28-05-2016 21:50:00 16.1 C 94 % 15.13 C
1834 28-05-2016 21:55:00 16.1 C 95 % 15.3 C
1835 28-05-2016 22:00:00 16.1 C 95 % 15.3 C
1836 28-05-2016 22:05:00 16.1 C 95 % 15.3 C
1837 28-05-2016 22:10:00 16 C 95 % 15.2 C
1838 28-05-2016 22:15:00 16 C 95 % 15.2 C
1839 28-05-2016 22:20:00 15.9 C 95 % 15.1 C
1840 28-05-2016 22:25:00 15.9 C 95 % 15.1 C
1841 28-05-2016 22:30:00 15.9 C 95 % 15.1 C
1842 28-05-2016 22:35:00 15.8 C 95 % 15 C
1843 28-05-2016 22:40:00 15.8 C 95 % 15 C
1844 28-05-2016 22:45:00 15.7 C 95 % 14.9 C
1845 28-05-2016 22:50:00 15.6 C 95 % 14.8 C
1846 28-05-2016 22:55:00 15.6 C 95 % 14.8 C
1847 28-05-2016 23:00:00 15.5 C 95 % 14.7 C
1848 28-05-2016 23:05:00 15.6 C 95 % 14.8 C
1849 28-05-2016 23:10:00 15.5 C 95 % 14.7 C
1850 28-05-2016 23:15:00 15.5 C 95 % 14.7 C
Sensor: Nr:Datum:Temp:Feuchte:Taupunkt:
Aussen-T/F 1851 28-05-2016 23:20:00 15.4 C 95 % 14.6 C
1852 28-05-2016 23:25:00 15.4 C 95 % 14.6 C
1853 28-05-2016 23:30:00 15.4 C 95 % 14.6 C
1854 28-05-2016 23:35:00 15.4 C 95 % 14.6 C
1855 28-05-2016 23:40:00 15.3 C 95 % 14.5 C
1856 28-05-2016 23:45:00 15.3 C 95 % 14.5 C
1857 28-05-2016 23:50:00 15.3 C 95 % 14.5 C
1858 28-05-2016 23:55:00 15.2 C 95 % 14.4 C
1859 29-05-2016 00:00:00 15.2 C 96 % 14.57 C
1860 29-05-2016 00:05:00 15.2 C 96 % 14.57 C
1861 29-05-2016 00:10:00 15.1 C 96 % 14.47 C
1862 29-05-2016 00:15:00 15.1 C 96 % 14.47 C
1863 29-05-2016 00:20:00 14.9 C 95 % 14.11 C
1864 29-05-2016 00:25:00 14.8 C 95 % 14.01 C
1865 29-05-2016 00:30:00 14.7 C 95 % 13.91 C
1866 29-05-2016 00:35:00 14.7 C 96 % 14.07 C
1867 29-05-2016 00:40:00 14.6 C 95 % 13.81 C
1868 29-05-2016 00:45:00 14.6 C 96 % 13.97 C
1869 29-05-2016 00:50:00 14.6 C 96 % 13.97 C
1870 29-05-2016 00:55:00 14.5 C 96 % 13.87 C
1871 29-05-2016 01:00:00 14.4 C 96 % 13.77 C
1872 29-05-2016 01:05:00 14.5 C 96 % 13.87 C
1873 29-05-2016 01:10:00 14.6 C 96 % 13.97 C
1874 29-05-2016 01:15:00 14.6 C 96 % 13.97 C
1875 29-05-2016 01:20:00 14.4 C 96 % 13.77 C
Sensor: Nr:Datum:Temp:Feuchte:Taupunkt:
Aussen-T/F 1876 29-05-2016 01:25:00 14.4 C 96 % 13.77 C
1877 29-05-2016 01:30:00 14.3 C 96 % 13.67 C
1878 29-05-2016 01:35:00 14.3 C 96 % 13.67 C
1879 29-05-2016 01:40:00 14.3 C 96 % 13.67 C
1880 29-05-2016 01:45:00 14.2 C 96 % 13.57 C
1881 29-05-2016 01:50:00 14.3 C 96 % 13.67 C
1882 29-05-2016 01:55:00 14.3 C 96 % 13.67 C
1883 29-05-2016 02:00:00 14.3 C 96 % 13.67 C
1884 29-05-2016 02:05:00 14.2 C 96 % 13.57 C
1885 29-05-2016 02:10:00 14.2 C 96 % 13.57 C
1886 29-05-2016 02:15:00 14.2 C 96 % 13.57 C
1887 29-05-2016 02:20:00 14.1 C 96 % 13.47 C
1888 29-05-2016 02:25:00 14.1 C 96 % 13.47 C
1889 29-05-2016 02:30:00 14.1 C 96 % 13.47 C
1890 29-05-2016 02:35:00 14.1 C 96 % 13.47 C
1891 29-05-2016 02:40:00 14.1 C 96 % 13.47 C
1892 29-05-2016 02:45:00 14.1 C 96 % 13.47 C
1893 29-05-2016 02:50:00 13.9 C 96 % 13.27 C
1894 29-05-2016 02:55:00 13.8 C 96 % 13.17 C
1895 29-05-2016 03:00:00 13.7 C 96 % 13.07 C
1896 29-05-2016 03:05:00 13.6 C 96 % 12.97 C
1897 29-05-2016 03:10:00 13.5 C 96 % 12.87 C
1898 29-05-2016 03:15:00 13.4 C 96 % 12.78 C
1899 29-05-2016 03:20:00 13.4 C 96 % 12.78 C
1900 29-05-2016 03:25:00 13.3 C 96 % 12.68 C
Sensor: Nr:Datum:Temp:Feuchte:Taupunkt:
Aussen-T/F 1901 29-05-2016 03:30:00 13.3 C 96 % 12.68 C
1902 29-05-2016 03:35:00 13.2 C 96 % 12.58 C
1903 29-05-2016 03:40:00 13.2 C 96 % 12.58 C
1904 29-05-2016 03:45:00 13.2 C 96 % 12.58 C
1905 29-05-2016 03:50:00 13.1 C 96 % 12.48 C
1906 29-05-2016 03:55:00 12.9 C 96 % 12.28 C
1907 29-05-2016 04:00:00 12.8 C 96 % 12.18 C
1908 29-05-2016 04:05:00 12.8 C 96 % 12.18 C
1909 29-05-2016 04:10:00 12.8 C 96 % 12.18 C
1910 29-05-2016 04:15:00 12.7 C 96 % 12.08 C
1911 29-05-2016 04:20:00 12.8 C 97 % 12.34 C
1912 29-05-2016 04:25:00 12.9 C 97 % 12.44 C
1913 29-05-2016 04:30:00 12.8 C 96 % 12.18 C
1914 29-05-2016 04:35:00 12.7 C 96 % 12.08 C
1915 29-05-2016 04:40:00 12.7 C 97 % 12.24 C
1916 29-05-2016 04:45:00 12.8 C 97 % 12.34 C
1917 29-05-2016 04:50:00 12.9 C 97 % 12.44 C
1918 29-05-2016 04:55:00 12.9 C 97 % 12.44 C
1919 29-05-2016 05:00:00 12.9 C 97 % 12.44 C
1920 29-05-2016 05:05:00 13 C 97 % 12.54 C
1921 29-05-2016 05:10:00 13.1 C 97 % 12.63 C
1922 29-05-2016 05:15:00 13.1 C 97 % 12.63 C
1923 29-05-2016 05:20:00 13.1 C 97 % 12.63 C
1924 29-05-2016 05:25:00 13.2 C 97 % 12.73 C
1925 29-05-2016 05:30:00 13.1 C 97 % 12.63 C
Sensor: Nr:Datum:Temp:Feuchte:Taupunkt:
Aussen-T/F 1926 29-05-2016 05:35:00 13.1 C 97 % 12.63 C
1927 29-05-2016 05:40:00 13.2 C 97 % 12.73 C
1928 29-05-2016 05:45:00 13.1 C 97 % 12.63 C
1929 29-05-2016 05:50:00 13.1 C 97 % 12.63 C
1930 29-05-2016 05:55:00 13.1 C 97 % 12.63 C
1931 29-05-2016 06:00:00 13.1 C 97 % 12.63 C
1932 29-05-2016 06:05:00 13.2 C 97 % 12.73 C
1933 29-05-2016 06:10:00 13.2 C 97 % 12.73 C
1934 29-05-2016 06:15:00 13.3 C 97 % 12.83 C
1935 29-05-2016 06:20:00 13.4 C 97 % 12.93 C
1936 29-05-2016 06:25:00 13.4 C 97 % 12.93 C
1937 29-05-2016 06:30:00 13.6 C 97 % 13.13 C
1938 29-05-2016 06:35:00 13.6 C 97 % 13.13 C
1939 29-05-2016 06:40:00 13.6 C 97 % 13.13 C
1940 29-05-2016 06:45:00 13.7 C 97 % 13.23 C
1941 29-05-2016 06:50:00 13.7 C 97 % 13.23 C
1942 29-05-2016 06:55:00 13.7 C 97 % 13.23 C
1943 29-05-2016 07:00:00 13.7 C 97 % 13.23 C
1944 29-05-2016 07:05:00 13.7 C 97 % 13.23 C
1945 29-05-2016 07:10:00 13.7 C 97 % 13.23 C
1946 29-05-2016 07:15:00 13.7 C 97 % 13.23 C
1947 29-05-2016 07:20:00 13.8 C 97 % 13.33 C
1948 29-05-2016 07:25:00 13.8 C 97 % 13.33 C
1949 29-05-2016 07:30:00 13.9 C 97 % 13.43 C
1950 29-05-2016 07:35:00 14 C 97 % 13.53 C
Sensor: Nr:Datum:Temp:Feuchte:Taupunkt:
Aussen-T/F 1951 29-05-2016 07:40:00 14.1 C 97 % 13.63 C
1952 29-05-2016 07:45:00 14.2 C 97 % 13.73 C
1953 29-05-2016 07:50:00 14.2 C 97 % 13.73 C
1954 29-05-2016 07:55:00 14.3 C 97 % 13.83 C
1955 29-05-2016 08:00:00 14.3 C 97 % 13.83 C
1956 29-05-2016 08:05:00 14.3 C 97 % 13.83 C
1957 29-05-2016 08:10:00 14.3 C 97 % 13.83 C
1958 29-05-2016 08:15:00 14.3 C 97 % 13.83 C
1959 29-05-2016 08:20:00 14.3 C 97 % 13.83 C
1960 29-05-2016 08:25:00 14.3 C 97 % 13.83 C
1961 29-05-2016 08:30:00 14.4 C 97 % 13.93 C
1962 29-05-2016 08:35:00 14.5 C 97 % 14.03 C
1963 29-05-2016 08:40:00 14.6 C 97 % 14.13 C
1964 29-05-2016 08:45:00 14.7 C 97 % 14.23 C
1965 29-05-2016 08:50:00 14.8 C 97 % 14.33 C
1966 29-05-2016 08:55:00 15.1 C 98 % 14.79 C
1967 29-05-2016 09:00:00 15.2 C 97 % 14.73 C
1968 29-05-2016 09:05:00 15.3 C 98 % 14.99 C
1969 29-05-2016 09:10:00 15.5 C 97 % 15.03 C
1970 29-05-2016 09:15:00 15.6 C 97 % 15.13 C
1971 29-05-2016 09:20:00 15.7 C 98 % 15.38 C
1972 29-05-2016 09:25:00 15.7 C 97 % 15.23 C
1973 29-05-2016 09:30:00 15.7 C 97 % 15.23 C
1974 29-05-2016 09:35:00 15.7 C 97 % 15.23 C
1975 29-05-2016 09:40:00 15.8 C 97 % 15.32 C
Sensor: Nr:Datum:Temp:Feuchte:Taupunkt:
Aussen-T/F 1976 29-05-2016 09:45:00 15.8 C 97 % 15.32 C
1977 29-05-2016 09:50:00 15.8 C 97 % 15.32 C
1978 29-05-2016 09:55:00 15.9 C 97 % 15.42 C
1979 29-05-2016 10:00:00 16.1 C 97 % 15.62 C
1980 29-05-2016 10:05:00 16.2 C 96 % 15.56 C
1981 29-05-2016 10:10:00 16.2 C 96 % 15.56 C
1982 29-05-2016 10:15:00 16.3 C 96 % 15.66 C
1983 29-05-2016 10:20:00 16.3 C 95 % 15.5 C
1984 29-05-2016 10:25:00 16.3 C 94 % 15.33 C
1985 29-05-2016 10:30:00 16.3 C 94 % 15.33 C
1986 29-05-2016 10:35:00 16.4 C 93 % 15.27 C
1987 29-05-2016 10:40:00 16.4 C 92 % 15.1 C
1988 29-05-2016 10:45:00 16.5 C 93 % 15.36 C
1989 29-05-2016 10:50:00 16.5 C 92 % 15.2 C
1990 29-05-2016 10:55:00 16.6 C 92 % 15.3 C
1991 29-05-2016 11:00:00 16.7 C 91 % 15.22 C
1992 29-05-2016 11:05:00 16.7 C 91 % 15.22 C
1993 29-05-2016 11:10:00 16.8 C 91 % 15.32 C
1994 29-05-2016 11:15:00 16.8 C 91 % 15.32 C
1995 29-05-2016 11:20:00 17 C 90 % 15.35 C
1996 29-05-2016 11:25:00 17.1 C 90 % 15.45 C
1997 29-05-2016 11:30:00 17.2 C 90 % 15.55 C
1998 29-05-2016 11:35:00 17.3 C 89 % 15.47 C
1999 29-05-2016 11:40:00 17.4 C 89 % 15.57 C
2000 29-05-2016 11:45:00 17.5 C 88 % 15.49 C
Sensor: Nr:Datum:Temp:Feuchte:Taupunkt:
Aussen-T/F 2001 29-05-2016 11:50:00 17.6 C 88 % 15.59 C
2002 29-05-2016 11:55:00 17.7 C 89 % 15.86 C
2003 29-05-2016 12:00:00 17.8 C 88 % 15.79 C
2004 29-05-2016 12:05:00 17.8 C 88 % 15.79 C
2005 29-05-2016 12:10:00 17.8 C 88 % 15.79 C
2006 29-05-2016 12:15:00 17.9 C 87 % 15.71 C
2007 29-05-2016 12:20:00 17.9 C 87 % 15.71 C
2008 29-05-2016 12:25:00 18.1 C 88 % 16.08 C
2009 29-05-2016 12:30:00 18.3 C 87 % 16.1 C
2010 29-05-2016 12:35:00 18.5 C 87 % 16.3 C
2011 29-05-2016 12:40:00 18.7 C 86 % 16.31 C
2012 29-05-2016 12:45:00 18.8 C 86 % 16.41 C
2013 29-05-2016 12:50:00 19.1 C 85 % 16.52 C
2014 29-05-2016 12:55:00 19.2 C 84 % 16.43 C
2015 29-05-2016 13:00:00 19.3 C 84 % 16.53 C
2016 29-05-2016 13:05:00 19.3 C 83 % 16.34 C
2017 29-05-2016 13:10:00 19.5 C 85 % 16.91 C
2018 29-05-2016 13:15:00 19.8 C 85 % 17.21 C
2019 29-05-2016 13:20:00 20.1 C 82 % 16.93 C
2020 29-05-2016 13:25:00 20.2 C 80 % 16.64 C
2021 29-05-2016 13:30:00 20.2 C 81 % 16.84 C
2022 29-05-2016 13:35:00 20.3 C 82 % 17.13 C
2023 29-05-2016 13:40:00 20.3 C 80 % 16.74 C
2024 29-05-2016 13:45:00 20.3 C 80 % 16.74 C
2025 29-05-2016 13:50:00 20.3 C 82 % 17.13 C
Sensor: Nr:Datum:Temp:Feuchte:Taupunkt:
Aussen-T/F 2026 29-05-2016 13:55:00 20.4 C 80 % 16.83 C
2027 29-05-2016 14:00:00 20.5 C 80 % 16.93 C
2028 29-05-2016 14:05:00 20.6 C 79 % 16.83 C
2029 29-05-2016 14:10:00 20.6 C 79 % 16.83 C
2030 29-05-2016 14:15:00 20.7 C 78 % 16.73 C
2031 29-05-2016 14:20:00 20.7 C 78 % 16.73 C
2032 29-05-2016 14:25:00 20.8 C 79 % 17.02 C
2033 29-05-2016 14:30:00 20.9 C 78 % 16.92 C
2034 29-05-2016 14:35:00 21.1 C 79 % 17.32 C
2035 29-05-2016 14:40:00 21.2 C 77 % 17.01 C
2036 29-05-2016 14:45:00 21.3 C 77 % 17.1 C
2037 29-05-2016 14:50:00 21.3 C 82 % 18.1 C
2038 29-05-2016 14:55:00 21.2 C 83 % 18.2 C
2039 29-05-2016 15:00:00 21 C 82 % 17.81 C
2040 29-05-2016 15:05:00 20.8 C 82 % 17.61 C
2041 29-05-2016 15:10:00 20.9 C 83 % 17.9 C
2042 29-05-2016 15:15:00 21.1 C 82 % 17.91 C
2043 29-05-2016 15:20:00 21.4 C 79 % 17.61 C
2044 29-05-2016 15:25:00 21.8 C 79 % 18 C
2045 29-05-2016 15:30:00 22.2 C 76 % 17.77 C
2046 29-05-2016 15:35:00 22.6 C 75 % 17.94 C
2047 29-05-2016 15:40:00 23 C 74 % 18.12 C
2048 29-05-2016 15:45:00 23.3 C 71 % 17.75 C
2049 29-05-2016 15:50:00 23.4 C 70 % 17.62 C
2050 29-05-2016 15:55:00 23.6 C 71 % 18.03 C
Sensor: Nr:Datum:Temp:Feuchte:Taupunkt:
Aussen-T/F 2051 29-05-2016 16:00:00 23.7 C 70 % 17.9 C
2052 29-05-2016 16:05:00 23.7 C 70 % 17.9 C
2053 29-05-2016 16:10:00 23.8 C 68 % 17.54 C
2054 29-05-2016 16:15:00 23.5 C 68 % 17.25 C
2055 29-05-2016 16:20:00 23.3 C 69 % 17.29 C
2056 29-05-2016 16:25:00 23.1 C 71 % 17.55 C
2057 29-05-2016 16:30:00 23.1 C 71 % 17.55 C
2058 29-05-2016 16:35:00 23.1 C 72 % 17.78 C
2059 29-05-2016 16:40:00 23.3 C 72 % 17.97 C
2060 29-05-2016 16:45:00 23.4 C 69 % 17.39 C
2061 29-05-2016 16:50:00 23.4 C 68 % 17.16 C
2062 29-05-2016 16:55:00 23.5 C 67 % 17.02 C
2063 29-05-2016 17:00:00 23.6 C 68 % 17.35 C
2064 29-05-2016 17:05:00 23.7 C 68 % 17.44 C
2065 29-05-2016 17:10:00 23.9 C 66 % 17.16 C
2066 29-05-2016 17:15:00 24.2 C 66 % 17.45 C
2067 29-05-2016 17:20:00 24.2 C 64 % 16.96 C
2068 29-05-2016 17:25:00 24.2 C 66 % 17.45 C
2069 29-05-2016 17:30:00 24.2 C 66 % 17.45 C
2070 29-05-2016 17:35:00 24.1 C 67 % 17.59 C
2071 29-05-2016 17:40:00 23.8 C 67 % 17.3 C
2072 29-05-2016 17:45:00 23.6 C 72 % 18.26 C
2073 29-05-2016 17:50:00 23.4 C 76 % 18.93 C
2074 29-05-2016 17:55:00 23.3 C 77 % 19.04 C
2075 29-05-2016 18:00:00 23.1 C 78 % 19.05 C
Sensor: Nr:Datum:Temp:Feuchte:Taupunkt:
Aussen-T/F 2076 29-05-2016 18:05:00 22.7 C 78 % 18.67 C
2077 29-05-2016 18:10:00 22.4 C 79 % 18.58 C
2078 29-05-2016 18:15:00 22.1 C 79 % 18.29 C
2079 29-05-2016 18:20:00 21.8 C 80 % 18.2 C
2080 29-05-2016 18:25:00 21.6 C 82 % 18.39 C
2081 29-05-2016 18:30:00 21.3 C 82 % 18.1 C
2082 29-05-2016 18:35:00 21.2 C 83 % 18.2 C
2083 29-05-2016 18:40:00 21.1 C 84 % 18.29 C
2084 29-05-2016 18:45:00 21.1 C 85 % 18.48 C
2085 29-05-2016 18:50:00 21.1 C 85 % 18.48 C
2086 29-05-2016 18:55:00 21 C 86 % 18.57 C
2087 29-05-2016 19:00:00 21 C 86 % 18.57 C
2088 29-05-2016 19:05:00 21 C 86 % 18.57 C
2089 29-05-2016 19:10:00 21.1 C 86 % 18.67 C
2090 29-05-2016 19:15:00 21.1 C 85 % 18.48 C
2091 29-05-2016 19:20:00 21.1 C 85 % 18.48 C
2092 29-05-2016 19:25:00 21 C 85 % 18.38 C
2093 29-05-2016 19:30:00 20.9 C 84 % 18.09 C
2094 29-05-2016 19:35:00 20.8 C 85 % 18.18 C
2095 29-05-2016 19:40:00 20.8 C 85 % 18.18 C
2096 29-05-2016 19:45:00 20.7 C 85 % 18.09 C
2097 29-05-2016 19:50:00 20.6 C 85 % 17.99 C
2098 29-05-2016 19:55:00 20.3 C 86 % 17.88 C
2099 29-05-2016 20:00:00 20.1 C 86 % 17.68 C
2100 29-05-2016 20:05:00 19.9 C 86 % 17.49 C
Sensor: Nr:Datum:Temp:Feuchte:Taupunkt:
Aussen-T/F 2101 29-05-2016 20:10:00 19.7 C 87 % 17.47 C
2102 29-05-2016 20:15:00 19.5 C 87 % 17.28 C
2103 29-05-2016 20:20:00 19.3 C 87 % 17.08 C
2104 29-05-2016 20:25:00 19.2 C 88 % 17.16 C
2105 29-05-2016 20:30:00 19.2 C 89 % 17.34 C
2106 29-05-2016 20:35:00 19 C 89 % 17.15 C
2107 29-05-2016 20:40:00 18.9 C 90 % 17.22 C
2108 29-05-2016 20:45:00 18.8 C 90 % 17.12 C
2109 29-05-2016 20:50:00 18.7 C 91 % 17.2 C
2110 29-05-2016 20:55:00 18.7 C 91 % 17.2 C
2111 29-05-2016 21:00:00 18.6 C 92 % 17.27 C
2112 29-05-2016 21:05:00 18.4 C 92 % 17.08 C
2113 29-05-2016 21:10:00 18.4 C 92 % 17.08 C
2114 29-05-2016 21:15:00 18.3 C 92 % 16.98 C
2115 29-05-2016 21:20:00 18.3 C 93 % 17.15 C
2116 29-05-2016 21:25:00 18.2 C 93 % 17.05 C
2117 29-05-2016 21:30:00 18.1 C 93 % 16.95 C
2118 29-05-2016 21:35:00 17.9 C 92 % 16.58 C
2119 29-05-2016 21:40:00 17.9 C 93 % 16.75 C
2120 29-05-2016 21:45:00 17.8 C 93 % 16.65 C
2121 29-05-2016 21:50:00 17.7 C 93 % 16.55 C
2122 29-05-2016 21:55:00 17.6 C 93 % 16.45 C
2123 29-05-2016 22:00:00 17.6 C 93 % 16.45 C
2124 29-05-2016 22:05:00 17.5 C 94 % 16.52 C
2125 29-05-2016 22:10:00 17.4 C 94 % 16.42 C
Sensor: Nr:Datum:Temp:Feuchte:Taupunkt:
Aussen-T/F 2126 29-05-2016 22:15:00 17.4 C 94 % 16.42 C
2127 29-05-2016 22:20:00 17.3 C 94 % 16.33 C
2128 29-05-2016 22:25:00 17.3 C 94 % 16.33 C
2129 29-05-2016 22:30:00 17.3 C 94 % 16.33 C
2130 29-05-2016 22:35:00 17.2 C 94 % 16.23 C
2131 29-05-2016 22:40:00 17.2 C 95 % 16.39 C
2132 29-05-2016 22:45:00 17.2 C 95 % 16.39 C
2133 29-05-2016 22:50:00 17.2 C 95 % 16.39 C
2134 29-05-2016 22:55:00 17.2 C 95 % 16.39 C
2135 29-05-2016 23:00:00 17.3 C 95 % 16.49 C
2136 29-05-2016 23:05:00 17.3 C 95 % 16.49 C
2137 29-05-2016 23:10:00 17.4 C 96 % 16.76 C
2138 29-05-2016 23:15:00 17.5 C 96 % 16.85 C
2139 29-05-2016 23:20:00 17.5 C 96 % 16.85 C
2140 29-05-2016 23:25:00 17.6 C 96 % 16.95 C
2141 29-05-2016 23:30:00 17.5 C 96 % 16.85 C
2142 29-05-2016 23:35:00 17.5 C 96 % 16.85 C
2143 29-05-2016 23:40:00 17.4 C 96 % 16.76 C
2144 29-05-2016 23:45:00 17.4 C 96 % 16.76 C
2145 29-05-2016 23:50:00 17.3 C 96 % 16.66 C
2146 29-05-2016 23:55:00 17.2 C 96 % 16.56 C
2147 30-05-2016 00:00:00 17.2 C 96 % 16.56 C
2148 30-05-2016 00:05:00 17.1 C 95 % 16.29 C
2149 30-05-2016 00:10:00 17.1 C 95 % 16.29 C
2150 30-05-2016 00:15:00 17.1 C 95 % 16.29 C
Sensor: Nr:Datum:Temp:Feuchte:Taupunkt:
Aussen-T/F 2151 30-05-2016 00:20:00 17 C 96 % 16.36 C
2152 30-05-2016 00:25:00 17 C 96 % 16.36 C
2153 30-05-2016 00:30:00 16.9 C 96 % 16.26 C
2154 30-05-2016 00:35:00 16.9 C 96 % 16.26 C
2155 30-05-2016 00:40:00 16.9 C 96 % 16.26 C
2156 30-05-2016 00:45:00 16.9 C 96 % 16.26 C
2157 30-05-2016 00:50:00 16.9 C 96 % 16.26 C
2158 30-05-2016 00:55:00 16.8 C 96 % 16.16 C
2159 30-05-2016 01:00:00 16.9 C 96 % 16.26 C
2160 30-05-2016 01:05:00 16.9 C 96 % 16.26 C
2161 30-05-2016 01:10:00 16.9 C 96 % 16.26 C
2162 30-05-2016 01:15:00 16.9 C 96 % 16.26 C
2163 30-05-2016 01:20:00 16.9 C 96 % 16.26 C
2164 30-05-2016 01:25:00 17 C 96 % 16.36 C
2165 30-05-2016 01:30:00 17 C 96 % 16.36 C
2166 30-05-2016 01:35:00 17 C 96 % 16.36 C
2167 30-05-2016 01:40:00 17 C 96 % 16.36 C
2168 30-05-2016 01:45:00 16.9 C 96 % 16.26 C
2169 30-05-2016 01:50:00 16.9 C 96 % 16.26 C
2170 30-05-2016 01:55:00 16.9 C 96 % 16.26 C
2171 30-05-2016 02:00:00 16.8 C 96 % 16.16 C
2172 30-05-2016 02:05:00 16.8 C 96 % 16.16 C
2173 30-05-2016 02:10:00 16.8 C 96 % 16.16 C
2174 30-05-2016 02:15:00 16.7 C 96 % 16.06 C
2175 30-05-2016 02:20:00 16.7 C 96 % 16.06 C
Sensor: Nr:Datum:Temp:Feuchte:Taupunkt:
Aussen-T/F 2176 30-05-2016 02:25:00 16.7 C 96 % 16.06 C
2177 30-05-2016 02:30:00 16.6 C 96 % 15.96 C
2178 30-05-2016 02:35:00 16.6 C 96 % 15.96 C
2179 30-05-2016 02:40:00 16.6 C 96 % 15.96 C
2180 30-05-2016 02:45:00 16.6 C 96 % 15.96 C
2181 30-05-2016 02:50:00 16.6 C 96 % 15.96 C
2182 30-05-2016 02:55:00 16.5 C 96 % 15.86 C
2183 30-05-2016 03:00:00 16.5 C 96 % 15.86 C
2184 30-05-2016 03:05:00 16.4 C 96 % 15.76 C
2185 30-05-2016 03:10:00 16.4 C 96 % 15.76 C
2186 30-05-2016 03:15:00 16.4 C 96 % 15.76 C
2187 30-05-2016 03:20:00 16.4 C 96 % 15.76 C
2188 30-05-2016 03:25:00 16.4 C 96 % 15.76 C
2189 30-05-2016 03:30:00 16.4 C 96 % 15.76 C
2190 30-05-2016 03:35:00 16.4 C 96 % 15.76 C
2191 30-05-2016 03:40:00 16.3 C 96 % 15.66 C
2192 30-05-2016 03:45:00 16.3 C 96 % 15.66 C
2193 30-05-2016 03:50:00 16.3 C 96 % 15.66 C
2194 30-05-2016 03:55:00 16.3 C 96 % 15.66 C
2195 30-05-2016 04:00:00 16.3 C 96 % 15.66 C
2196 30-05-2016 04:05:00 16.3 C 96 % 15.66 C
2197 30-05-2016 04:10:00 16.2 C 96 % 15.56 C
2198 30-05-2016 04:15:00 16.2 C 96 % 15.56 C
2199 30-05-2016 04:20:00 16.2 C 96 % 15.56 C
2200 30-05-2016 04:25:00 16.1 C 96 % 15.46 C
Sensor: Nr:Datum:Temp:Feuchte:Taupunkt:
Aussen-T/F 2201 30-05-2016 04:30:00 16.1 C 96 % 15.46 C
2202 30-05-2016 04:35:00 16.1 C 96 % 15.46 C
2203 30-05-2016 04:40:00 16.1 C 96 % 15.46 C
2204 30-05-2016 04:45:00 16.1 C 96 % 15.46 C
2205 30-05-2016 04:50:00 16 C 96 % 15.36 C
2206 30-05-2016 04:55:00 16 C 96 % 15.36 C
2207 30-05-2016 05:00:00 15.9 C 96 % 15.26 C
2208 30-05-2016 05:05:00 15.9 C 96 % 15.26 C
2209 30-05-2016 05:10:00 15.9 C 96 % 15.26 C
2210 30-05-2016 05:15:00 15.8 C 96 % 15.16 C
2211 30-05-2016 05:20:00 15.8 C 96 % 15.16 C
2212 30-05-2016 05:25:00 15.8 C 96 % 15.16 C
2213 30-05-2016 05:30:00 15.8 C 96 % 15.16 C
2214 30-05-2016 05:35:00 15.8 C 96 % 15.16 C
2215 30-05-2016 05:40:00 15.8 C 96 % 15.16 C
2216 30-05-2016 05:45:00 15.8 C 96 % 15.16 C
2217 30-05-2016 05:50:00 15.8 C 96 % 15.16 C
2218 30-05-2016 05:55:00 15.8 C 96 % 15.16 C
2219 30-05-2016 06:00:00 15.8 C 96 % 15.16 C
2220 30-05-2016 06:05:00 15.8 C 96 % 15.16 C
2221 30-05-2016 06:10:00 15.8 C 97 % 15.32 C
2222 30-05-2016 06:15:00 15.8 C 97 % 15.32 C
2223 30-05-2016 06:20:00 15.9 C 97 % 15.42 C
2224 30-05-2016 06:25:00 15.9 C 97 % 15.42 C
2225 30-05-2016 06:30:00 15.9 C 97 % 15.42 C
Sensor: Nr:Datum:Temp:Feuchte:Taupunkt:
Aussen-T/F 2226 30-05-2016 06:35:00 15.9 C 97 % 15.42 C
2227 30-05-2016 06:40:00 15.9 C 97 % 15.42 C
2228 30-05-2016 06:45:00 15.9 C 97 % 15.42 C
2229 30-05-2016 06:50:00 15.9 C 97 % 15.42 C
2230 30-05-2016 06:55:00 16 C 97 % 15.52 C
2231 30-05-2016 07:00:00 16 C 97 % 15.52 C
2232 30-05-2016 07:05:00 16 C 97 % 15.52 C
2233 30-05-2016 07:10:00 16.1 C 97 % 15.62 C
2234 30-05-2016 07:15:00 16.1 C 97 % 15.62 C
2235 30-05-2016 07:20:00 16.1 C 97 % 15.62 C
2236 30-05-2016 07:25:00 16.1 C 97 % 15.62 C
2237 30-05-2016 07:30:00 16.1 C 97 % 15.62 C
2238 30-05-2016 07:35:00 16.2 C 97 % 15.72 C
2239 30-05-2016 07:40:00 16.2 C 97 % 15.72 C
2240 30-05-2016 07:45:00 16.2 C 97 % 15.72 C
2241 30-05-2016 07:50:00 16.2 C 97 % 15.72 C
2242 30-05-2016 07:55:00 16.3 C 97 % 15.82 C
2243 30-05-2016 08:00:00 16.3 C 97 % 15.82 C
2244 30-05-2016 08:05:00 16.3 C 97 % 15.82 C
2245 30-05-2016 08:10:00 16.3 C 97 % 15.82 C
2246 30-05-2016 08:15:00 16.3 C 97 % 15.82 C
2247 30-05-2016 08:20:00 16.4 C 97 % 15.92 C
2248 30-05-2016 08:25:00 16.4 C 97 % 15.92 C
2249 30-05-2016 08:30:00 16.4 C 97 % 15.92 C
2250 30-05-2016 08:35:00 16.6 C 97 % 16.12 C
Sensor: Nr:Datum:Temp:Feuchte:Taupunkt:
Aussen-T/F 2251 30-05-2016 08:40:00 16.8 C 97 % 16.32 C
2252 30-05-2016 08:45:00 17 C 97 % 16.52 C
2253 30-05-2016 08:50:00 17.1 C 97 % 16.62 C
2254 30-05-2016 08:55:00 17.1 C 97 % 16.62 C
2255 30-05-2016 09:00:00 17.1 C 97 % 16.62 C
2256 30-05-2016 09:05:00 17.1 C 97 % 16.62 C
2257 30-05-2016 09:10:00 17 C 97 % 16.52 C
2258 30-05-2016 09:15:00 16.9 C 97 % 16.42 C
2259 30-05-2016 09:20:00 16.9 C 97 % 16.42 C
2260 30-05-2016 09:25:00 16.9 C 97 % 16.42 C
2261 30-05-2016 09:30:00 16.9 C 97 % 16.42 C
2262 30-05-2016 09:35:00 17 C 97 % 16.52 C
2263 30-05-2016 09:40:00 17 C 97 % 16.52 C
2264 30-05-2016 09:45:00 16.9 C 97 % 16.42 C
2265 30-05-2016 09:50:00 16.9 C 97 % 16.42 C
2266 30-05-2016 09:55:00 16.9 C 97 % 16.42 C
2267 30-05-2016 10:00:00 17 C 97 % 16.52 C
2268 30-05-2016 10:05:00 17.1 C 97 % 16.62 C
2269 30-05-2016 10:10:00 17.1 C 97 % 16.62 C
2270 30-05-2016 10:15:00 17.3 C 97 % 16.82 C
2271 30-05-2016 10:20:00 17.3 C 97 % 16.82 C
2272 30-05-2016 10:25:00 17.3 C 97 % 16.82 C
2273 30-05-2016 10:30:00 17.4 C 97 % 16.92 C
2274 30-05-2016 10:35:00 17.4 C 97 % 16.92 C
2275 30-05-2016 10:40:00 17.4 C 97 % 16.92 C
Sensor: Nr:Datum:Temp:Feuchte:Taupunkt:
Aussen-T/F 2276 30-05-2016 10:45:00 17.5 C 96 % 16.85 C
2277 30-05-2016 10:50:00 17.6 C 96 % 16.95 C
2278 30-05-2016 10:55:00 17.6 C 96 % 16.95 C
2279 30-05-2016 11:00:00 17.7 C 95 % 16.89 C
2280 30-05-2016 11:05:00 17.7 C 95 % 16.89 C
2281 30-05-2016 11:10:00 17.8 C 95 % 16.99 C
2282 30-05-2016 11:15:00 17.9 C 94 % 16.92 C
2283 30-05-2016 11:20:00 17.9 C 94 % 16.92 C
2284 30-05-2016 11:25:00 17.8 C 93 % 16.65 C
2285 30-05-2016 11:30:00 17.9 C 93 % 16.75 C
2286 30-05-2016 11:35:00 17.9 C 93 % 16.75 C
2287 30-05-2016 11:40:00 18 C 93 % 16.85 C
2288 30-05-2016 11:45:00 18.2 C 93 % 17.05 C
2289 30-05-2016 11:50:00 18.3 C 93 % 17.15 C
2290 30-05-2016 11:55:00 18.4 C 92 % 17.08 C
2291 30-05-2016 12:00:00 18.6 C 92 % 17.27 C
2292 30-05-2016 12:05:00 18.6 C 90 % 16.93 C
2293 30-05-2016 12:10:00 18.8 C 90 % 17.12 C
2294 30-05-2016 12:15:00 18.9 C 90 % 17.22 C
2295 30-05-2016 12:20:00 19.1 C 88 % 17.07 C
2296 30-05-2016 12:25:00 19.2 C 88 % 17.16 C
2297 30-05-2016 12:30:00 19.3 C 88 % 17.26 C
2298 30-05-2016 12:35:00 19.3 C 88 % 17.26 C
2299 30-05-2016 12:40:00 19.4 C 88 % 17.36 C
2300 30-05-2016 12:45:00 19.4 C 88 % 17.36 C
Sensor: Nr:Datum:Temp:Feuchte:Taupunkt:
Aussen-T/F 2301 30-05-2016 12:50:00 19.4 C 87 % 17.18 C
2302 30-05-2016 12:55:00 19.4 C 87 % 17.18 C
2303 30-05-2016 13:00:00 19.6 C 87 % 17.38 C
2304 30-05-2016 13:05:00 19.6 C 87 % 17.38 C
2305 30-05-2016 13:10:00 19.7 C 89 % 17.84 C
2306 30-05-2016 13:15:00 19.7 C 89 % 17.84 C
2307 30-05-2016 13:20:00 19.6 C 88 % 17.56 C
2308 30-05-2016 13:25:00 19.3 C 89 % 17.44 C
2309 30-05-2016 13:30:00 19.1 C 90 % 17.42 C
2310 30-05-2016 13:35:00 19.1 C 91 % 17.6 C
2311 30-05-2016 13:40:00 19.1 C 92 % 17.77 C
2312 30-05-2016 13:45:00 19.2 C 92 % 17.87 C
2313 30-05-2016 13:50:00 19.2 C 92 % 17.87 C
2314 30-05-2016 13:55:00 19.3 C 91 % 17.79 C
2315 30-05-2016 14:00:00 19.4 C 90 % 17.72 C
2316 30-05-2016 14:05:00 19.6 C 90 % 17.91 C
2317 30-05-2016 14:10:00 19.7 C 90 % 18.01 C
2318 30-05-2016 14:15:00 19.9 C 89 % 18.03 C
2319 30-05-2016 14:20:00 20.1 C 88 % 18.05 C
2320 30-05-2016 14:25:00 20.1 C 86 % 17.68 C
2321 30-05-2016 14:30:00 20.2 C 87 % 17.97 C
2322 30-05-2016 14:35:00 20.3 C 87 % 18.06 C
2323 30-05-2016 14:40:00 20.4 C 85 % 17.79 C
2324 30-05-2016 14:45:00 20.4 C 86 % 17.98 C
2325 30-05-2016 14:50:00 20.3 C 86 % 17.88 C
Sensor: Nr:Datum:Temp:Feuchte:Taupunkt:
Aussen-T/F 2326 30-05-2016 14:55:00 20.2 C 87 % 17.97 C
2327 30-05-2016 15:00:00 20.1 C 89 % 18.23 C
2328 30-05-2016 15:05:00 19.9 C 89 % 18.03 C
2329 30-05-2016 15:10:00 19.9 C 90 % 18.21 C
2330 30-05-2016 15:15:00 19.9 C 91 % 18.39 C
2331 30-05-2016 15:20:00 20.2 C 90 % 18.51 C
2332 30-05-2016 15:25:00 20.3 C 89 % 18.43 C
2333 30-05-2016 15:30:00 20.6 C 90 % 18.9 C
2334 30-05-2016 15:35:00 20.6 C 86 % 18.18 C
2335 30-05-2016 15:40:00 20.8 C 87 % 18.56 C
2336 30-05-2016 15:45:00 20.8 C 85 % 18.18 C
2337 30-05-2016 15:50:00 20.9 C 87 % 18.65 C
2338 30-05-2016 15:55:00 20.8 C 85 % 18.18 C
2339 30-05-2016 16:00:00 20.7 C 85 % 18.09 C
2340 30-05-2016 16:05:00 20.4 C 86 % 17.98 C
2341 30-05-2016 16:10:00 20.3 C 86 % 17.88 C
2342 30-05-2016 16:15:00 20.4 C 87 % 18.16 C
2343 30-05-2016 16:20:00 20.8 C 86 % 18.37 C
2344 30-05-2016 16:25:00 21.4 C 84 % 18.58 C
2345 30-05-2016 16:30:00 21.9 C 84 % 19.07 C
2346 30-05-2016 16:35:00 22.1 C 81 % 18.69 C
2347 30-05-2016 16:40:00 22.2 C 81 % 18.78 C
2348 30-05-2016 16:45:00 22.1 C 80 % 18.49 C
2349 30-05-2016 16:50:00 21.7 C 80 % 18.1 C
2350 30-05-2016 16:55:00 21.6 C 81 % 18.2 C
Sensor: Nr:Datum:Temp:Feuchte:Taupunkt:
Aussen-T/F 2351 30-05-2016 17:00:00 21.2 C 81 % 17.81 C
2352 30-05-2016 17:05:00 20.9 C 83 % 17.9 C
2353 30-05-2016 17:10:00 20.8 C 84 % 18 C
2354 30-05-2016 17:15:00 20.5 C 84 % 17.7 C
2355 30-05-2016 17:20:00 20.2 C 84 % 17.41 C
2356 30-05-2016 17:25:00 19.8 C 83 % 16.83 C
2357 30-05-2016 17:30:00 19.6 C 84 % 16.82 C
2358 30-05-2016 17:35:00 19.4 C 85 % 16.81 C
2359 30-05-2016 17:40:00 19.3 C 86 % 16.9 C
2360 30-05-2016 17:45:00 19.2 C 87 % 16.98 C
2361 30-05-2016 17:50:00 19.2 C 88 % 17.16 C
2362 30-05-2016 17:55:00 19 C 86 % 16.6 C
2363 30-05-2016 18:00:00 18.9 C 88 % 16.87 C
2364 30-05-2016 18:05:00 18.9 C 88 % 16.87 C
2365 30-05-2016 18:10:00 18.8 C 88 % 16.77 C
2366 30-05-2016 18:15:00 18.7 C 89 % 16.85 C
2367 30-05-2016 18:20:00 18.7 C 89 % 16.85 C
2368 30-05-2016 18:25:00 18.5 C 90 % 16.83 C
2369 30-05-2016 18:30:00 18.4 C 91 % 16.9 C
2370 30-05-2016 18:35:00 18.3 C 91 % 16.81 C
2371 30-05-2016 18:40:00 18.3 C 91 % 16.81 C
2372 30-05-2016 18:45:00 18.2 C 92 % 16.88 C
2373 30-05-2016 18:50:00 18.1 C 93 % 16.95 C
2374 30-05-2016 18:55:00 18.1 C 93 % 16.95 C
2375 30-05-2016 19:00:00 18.1 C 93 % 16.95 C
Sensor: Nr:Datum:Temp:Feuchte:Taupunkt:
Aussen-T/F 2376 30-05-2016 19:05:00 18.1 C 93 % 16.95 C
2377 30-05-2016 19:10:00 17.9 C 93 % 16.75 C
2378 30-05-2016 19:15:00 17.8 C 93 % 16.65 C
2379 30-05-2016 19:20:00 17.8 C 94 % 16.82 C
2380 30-05-2016 19:25:00 17.8 C 94 % 16.82 C
2381 30-05-2016 19:30:00 17.8 C 94 % 16.82 C
2382 30-05-2016 19:35:00 17.7 C 94 % 16.72 C
2383 30-05-2016 19:40:00 17.6 C 94 % 16.62 C
2384 30-05-2016 19:45:00 17.6 C 94 % 16.62 C
2385 30-05-2016 19:50:00 17.5 C 94 % 16.52 C
2386 30-05-2016 19:55:00 17.4 C 94 % 16.42 C
2387 30-05-2016 20:00:00 17.4 C 94 % 16.42 C
2388 30-05-2016 20:05:00 17.4 C 94 % 16.42 C
2389 30-05-2016 20:10:00 17.3 C 94 % 16.33 C
2390 30-05-2016 20:15:00 17.2 C 94 % 16.23 C
2391 30-05-2016 20:20:00 17.1 C 94 % 16.13 C
2392 30-05-2016 20:25:00 17 C 94 % 16.03 C
2393 30-05-2016 20:30:00 16.9 C 94 % 15.93 C
2394 30-05-2016 20:35:00 16.8 C 94 % 15.83 C
2395 30-05-2016 20:40:00 16.8 C 94 % 15.83 C
2396 30-05-2016 20:45:00 16.7 C 94 % 15.73 C
2397 30-05-2016 20:50:00 16.6 C 94 % 15.63 C
2398 30-05-2016 20:55:00 16.5 C 94 % 15.53 C
2399 30-05-2016 21:00:00 16.4 C 94 % 15.43 C
2400 30-05-2016 21:05:00 16.3 C 94 % 15.33 C
Sensor: Nr:Datum:Temp:Feuchte:Taupunkt:
Aussen-T/F 2401 30-05-2016 21:10:00 16.3 C 94 % 15.33 C
2402 30-05-2016 21:15:00 16.2 C 94 % 15.23 C
2403 30-05-2016 21:20:00 16.1 C 94 % 15.13 C
2404 30-05-2016 21:25:00 15.9 C 94 % 14.94 C
2405 30-05-2016 21:30:00 15.8 C 94 % 14.84 C
2406 30-05-2016 21:35:00 15.8 C 94 % 14.84 C
2407 30-05-2016 21:40:00 15.8 C 95 % 15 C
2408 30-05-2016 21:45:00 15.7 C 95 % 14.9 C
2409 30-05-2016 21:50:00 15.7 C 95 % 14.9 C
2410 30-05-2016 21:55:00 15.6 C 95 % 14.8 C
2411 30-05-2016 22:00:00 15.6 C 95 % 14.8 C
2412 30-05-2016 22:05:00 15.6 C 95 % 14.8 C
2413 30-05-2016 22:10:00 15.6 C 95 % 14.8 C
2414 30-05-2016 22:15:00 15.6 C 95 % 14.8 C
2415 30-05-2016 22:20:00 15.6 C 95 % 14.8 C
2416 30-05-2016 22:25:00 15.6 C 95 % 14.8 C
2417 30-05-2016 22:30:00 15.6 C 95 % 14.8 C
2418 30-05-2016 22:35:00 15.6 C 95 % 14.8 C
2419 30-05-2016 22:40:00 15.6 C 95 % 14.8 C
2420 30-05-2016 22:45:00 15.6 C 95 % 14.8 C
2421 30-05-2016 22:50:00 15.5 C 95 % 14.7 C
2422 30-05-2016 22:55:00 15.4 C 95 % 14.6 C
2423 30-05-2016 23:00:00 15.4 C 95 % 14.6 C
2424 30-05-2016 23:05:00 15.4 C 95 % 14.6 C
2425 30-05-2016 23:10:00 15.4 C 95 % 14.6 C
Sensor: Nr:Datum:Temp:Feuchte:Taupunkt:
Aussen-T/F 2426 30-05-2016 23:15:00 15.4 C 95 % 14.6 C
2427 30-05-2016 23:20:00 15.3 C 95 % 14.5 C
2428 30-05-2016 23:25:00 15.3 C 95 % 14.5 C
2429 30-05-2016 23:30:00 15.3 C 95 % 14.5 C
2430 30-05-2016 23:35:00 15.2 C 95 % 14.4 C
2431 30-05-2016 23:40:00 15.2 C 95 % 14.4 C
2432 30-05-2016 23:45:00 15.1 C 95 % 14.31 C
2433 30-05-2016 23:50:00 14.9 C 95 % 14.11 C
2434 30-05-2016 23:55:00 14.9 C 95 % 14.11 C
2435 31-05-2016 00:00:00 14.8 C 95 % 14.01 C
2436 31-05-2016 00:05:00 14.7 C 95 % 13.91 C
2437 31-05-2016 00:10:00 14.6 C 95 % 13.81 C
2438 31-05-2016 00:15:00 14.6 C 95 % 13.81 C
2439 31-05-2016 00:20:00 14.6 C 95 % 13.81 C
2440 31-05-2016 00:25:00 14.6 C 95 % 13.81 C
2441 31-05-2016 00:30:00 14.7 C 95 % 13.91 C
2442 31-05-2016 00:35:00 14.7 C 95 % 13.91 C
2443 31-05-2016 00:40:00 14.7 C 96 % 14.07 C
2444 31-05-2016 00:45:00 14.7 C 96 % 14.07 C
2445 31-05-2016 00:50:00 14.7 C 96 % 14.07 C
2446 31-05-2016 00:55:00 14.7 C 96 % 14.07 C
2447 31-05-2016 01:00:00 14.7 C 96 % 14.07 C
2448 31-05-2016 01:05:00 14.7 C 96 % 14.07 C
2449 31-05-2016 01:10:00 14.6 C 96 % 13.97 C
2450 31-05-2016 01:15:00 14.6 C 96 % 13.97 C
Sensor: Nr:Datum:Temp:Feuchte:Taupunkt:
Aussen-T/F 2451 31-05-2016 01:20:00 14.6 C 96 % 13.97 C
2452 31-05-2016 01:25:00 14.6 C 96 % 13.97 C
2453 31-05-2016 01:30:00 14.5 C 96 % 13.87 C
2454 31-05-2016 01:35:00 14.5 C 96 % 13.87 C
2455 31-05-2016 01:40:00 14.4 C 96 % 13.77 C
2456 31-05-2016 01:45:00 14.3 C 96 % 13.67 C
2457 31-05-2016 01:50:00 14.3 C 96 % 13.67 C
2458 31-05-2016 01:55:00 14.2 C 96 % 13.57 C
2459 31-05-2016 02:00:00 14.1 C 96 % 13.47 C
2460 31-05-2016 02:05:00 13.9 C 96 % 13.27 C
2461 31-05-2016 02:10:00 13.9 C 96 % 13.27 C
2462 31-05-2016 02:15:00 13.8 C 96 % 13.17 C
2463 31-05-2016 02:20:00 13.7 C 96 % 13.07 C
2464 31-05-2016 02:25:00 13.7 C 96 % 13.07 C
2465 31-05-2016 02:30:00 13.7 C 96 % 13.07 C
2466 31-05-2016 02:35:00 13.7 C 96 % 13.07 C
2467 31-05-2016 02:40:00 13.7 C 96 % 13.07 C
2468 31-05-2016 02:45:00 13.7 C 96 % 13.07 C
2469 31-05-2016 02:50:00 13.7 C 96 % 13.07 C
2470 31-05-2016 02:55:00 13.7 C 96 % 13.07 C
2471 31-05-2016 03:00:00 13.7 C 96 % 13.07 C
2472 31-05-2016 03:05:00 13.7 C 96 % 13.07 C
2473 31-05-2016 03:10:00 13.7 C 96 % 13.07 C
2474 31-05-2016 03:15:00 13.7 C 96 % 13.07 C
2475 31-05-2016 03:20:00 13.6 C 96 % 12.97 C
Sensor: Nr:Datum:Temp:Feuchte:Taupunkt:
Aussen-T/F 2476 31-05-2016 03:25:00 13.5 C 96 % 12.87 C
2477 31-05-2016 03:30:00 13.4 C 96 % 12.78 C
2478 31-05-2016 03:35:00 13.4 C 96 % 12.78 C
2479 31-05-2016 03:40:00 13.4 C 96 % 12.78 C
2480 31-05-2016 03:45:00 13.4 C 96 % 12.78 C
2481 31-05-2016 03:50:00 13.3 C 96 % 12.68 C
2482 31-05-2016 03:55:00 13.2 C 96 % 12.58 C
2483 31-05-2016 04:00:00 13.2 C 96 % 12.58 C
2484 31-05-2016 04:05:00 13.1 C 96 % 12.48 C
2485 31-05-2016 04:10:00 13.1 C 96 % 12.48 C
2486 31-05-2016 04:15:00 13.1 C 96 % 12.48 C
2487 31-05-2016 04:20:00 13.1 C 96 % 12.48 C
2488 31-05-2016 04:25:00 13.1 C 96 % 12.48 C
2489 31-05-2016 04:30:00 13.1 C 96 % 12.48 C
2490 31-05-2016 04:35:00 13.1 C 97 % 12.63 C
2491 31-05-2016 04:40:00 13.1 C 96 % 12.48 C
2492 31-05-2016 04:45:00 13.1 C 97 % 12.63 C
2493 31-05-2016 04:50:00 13.1 C 97 % 12.63 C
2494 31-05-2016 04:55:00 13.2 C 97 % 12.73 C
2495 31-05-2016 05:00:00 13.2 C 97 % 12.73 C
2496 31-05-2016 05:05:00 13.2 C 97 % 12.73 C
2497 31-05-2016 05:10:00 13.2 C 97 % 12.73 C
2498 31-05-2016 05:15:00 13.2 C 97 % 12.73 C
2499 31-05-2016 05:20:00 13.2 C 97 % 12.73 C
2500 31-05-2016 05:25:00 13.2 C 97 % 12.73 C
Sensor: Nr:Datum:Temp:Feuchte:Taupunkt:
Aussen-T/F 2501 31-05-2016 05:30:00 13.2 C 97 % 12.73 C
2502 31-05-2016 05:35:00 13.3 C 97 % 12.83 C
2503 31-05-2016 05:40:00 13.3 C 97 % 12.83 C
2504 31-05-2016 05:45:00 13.3 C 97 % 12.83 C
2505 31-05-2016 05:50:00 13.3 C 97 % 12.83 C
2506 31-05-2016 05:55:00 13.3 C 97 % 12.83 C
2507 31-05-2016 06:00:00 13.3 C 97 % 12.83 C
2508 31-05-2016 06:05:00 13.3 C 97 % 12.83 C
2509 31-05-2016 06:10:00 13.3 C 97 % 12.83 C
2510 31-05-2016 06:15:00 13.4 C 97 % 12.93 C
2511 31-05-2016 06:20:00 13.4 C 97 % 12.93 C
2512 31-05-2016 06:25:00 13.5 C 97 % 13.03 C
2513 31-05-2016 06:30:00 13.6 C 97 % 13.13 C
2514 31-05-2016 06:35:00 13.7 C 97 % 13.23 C
2515 31-05-2016 06:40:00 13.7 C 97 % 13.23 C
2516 31-05-2016 06:45:00 13.8 C 97 % 13.33 C
2517 31-05-2016 06:50:00 13.9 C 97 % 13.43 C
2518 31-05-2016 06:55:00 14 C 97 % 13.53 C
2519 31-05-2016 07:00:00 14.1 C 97 % 13.63 C
2520 31-05-2016 07:05:00 14.2 C 97 % 13.73 C
2521 31-05-2016 07:10:00 14.3 C 97 % 13.83 C
2522 31-05-2016 07:15:00 14.3 C 97 % 13.83 C
2523 31-05-2016 07:20:00 14.3 C 97 % 13.83 C
2524 31-05-2016 07:25:00 14.3 C 97 % 13.83 C
2525 31-05-2016 07:30:00 14.4 C 97 % 13.93 C
Sensor: Nr:Datum:Temp:Feuchte:Taupunkt:
Aussen-T/F 2526 31-05-2016 07:35:00 14.4 C 97 % 13.93 C
2527 31-05-2016 07:40:00 14.5 C 97 % 14.03 C
2528 31-05-2016 07:45:00 14.4 C 96 % 13.77 C
2529 31-05-2016 07:50:00 14.3 C 96 % 13.67 C
2530 31-05-2016 07:55:00 14.4 C 96 % 13.77 C
2531 31-05-2016 08:00:00 14.6 C 95 % 13.81 C
2532 31-05-2016 08:05:00 14.7 C 95 % 13.91 C
2533 31-05-2016 08:10:00 14.8 C 94 % 13.84 C
2534 31-05-2016 08:15:00 14.9 C 93 % 13.78 C
2535 31-05-2016 08:20:00 15.1 C 93 % 13.98 C
2536 31-05-2016 08:25:00 15.3 C 92 % 14.01 C
2537 31-05-2016 08:30:00 15.4 C 92 % 14.11 C
2538 31-05-2016 08:35:00 15.6 C 91 % 14.14 C
2539 31-05-2016 08:40:00 15.8 C 91 % 14.33 C
2540 31-05-2016 08:45:00 15.8 C 89 % 13.99 C
2541 31-05-2016 08:50:00 15.9 C 89 % 14.09 C
2542 31-05-2016 08:55:00 15.9 C 89 % 14.09 C
2543 31-05-2016 09:00:00 16 C 88 % 14.01 C
2544 31-05-2016 09:05:00 16.2 C 89 % 14.39 C
2545 31-05-2016 09:10:00 16.4 C 88 % 14.41 C
2546 31-05-2016 09:15:00 16.6 C 88 % 14.6 C
2547 31-05-2016 09:20:00 16.7 C 85 % 14.17 C
2548 31-05-2016 09:25:00 16.8 C 85 % 14.26 C
2549 31-05-2016 09:30:00 16.8 C 86 % 14.45 C
2550 31-05-2016 09:35:00 17 C 84 % 14.28 C
Sensor: Nr:Datum:Temp:Feuchte:Taupunkt:
Aussen-T/F 2551 31-05-2016 09:40:00 17.1 C 84 % 14.38 C
2552 31-05-2016 09:45:00 17 C 84 % 14.28 C
2553 31-05-2016 09:50:00 16.9 C 84 % 14.18 C
2554 31-05-2016 09:55:00 16.9 C 83 % 14 C
2555 31-05-2016 10:00:00 16.9 C 84 % 14.18 C
2556 31-05-2016 10:05:00 16.9 C 85 % 14.36 C
2557 31-05-2016 10:10:00 17.1 C 82 % 14 C
2558 31-05-2016 10:15:00 17.2 C 81 % 13.91 C
2559 31-05-2016 10:20:00 17.3 C 81 % 14.01 C
2560 31-05-2016 10:25:00 17.6 C 82 % 14.49 C
2561 31-05-2016 10:30:00 17.7 C 79 % 14.01 C
2562 31-05-2016 10:35:00 17.8 C 81 % 14.5 C
2563 31-05-2016 10:40:00 17.9 C 80 % 14.4 C
2564 31-05-2016 10:45:00 18.1 C 80 % 14.6 C
2565 31-05-2016 10:50:00 18.2 C 78 % 14.3 C
2566 31-05-2016 10:55:00 18.3 C 79 % 14.6 C
2567 31-05-2016 11:00:00 18.3 C 80 % 14.79 C
2568 31-05-2016 11:05:00 18.3 C 81 % 14.98 C
2569 31-05-2016 11:10:00 18.2 C 79 % 14.5 C
2570 31-05-2016 11:15:00 18.2 C 82 % 15.08 C
2571 31-05-2016 11:20:00 18.1 C 79 % 14.4 C
2572 31-05-2016 11:25:00 18.2 C 78 % 14.3 C
2573 31-05-2016 11:30:00 18.3 C 80 % 14.79 C
2574 31-05-2016 11:35:00 18.2 C 78 % 14.3 C
2575 31-05-2016 11:40:00 18.2 C 81 % 14.89 C
Sensor: Nr:Datum:Temp:Feuchte:Taupunkt:
Aussen-T/F 2576 31-05-2016 11:45:00 17.9 C 82 % 14.78 C
2577 31-05-2016 11:50:00 17.8 C 84 % 15.06 C
2578 31-05-2016 11:55:00 17.8 C 84 % 15.06 C
2579 31-05-2016 12:00:00 17.9 C 83 % 14.97 C
2580 31-05-2016 12:05:00 18.1 C 84 % 15.35 C
2581 31-05-2016 12:10:00 18.3 C 82 % 15.17 C
2582 31-05-2016 12:15:00 18.6 C 81 % 15.28 C
2583 31-05-2016 12:20:00 18.7 C 78 % 14.79 C
2584 31-05-2016 12:25:00 18.8 C 78 % 14.88 C
2585 31-05-2016 12:30:00 18.8 C 77 % 14.68 C
2586 31-05-2016 12:35:00 18.8 C 76 % 14.48 C
2587 31-05-2016 12:40:00 18.9 C 75 % 14.37 C
2588 31-05-2016 12:45:00 19.1 C 73 % 14.15 C
2589 31-05-2016 12:50:00 19.2 C 75 % 14.66 C
2590 31-05-2016 12:55:00 19.2 C 73 % 14.25 C
2591 31-05-2016 13:00:00 19.2 C 74 % 14.46 C
2592 31-05-2016 13:05:00 19.1 C 76 % 14.77 C
2593 31-05-2016 13:10:00 19.2 C 75 % 14.66 C
2594 31-05-2016 13:15:00 19.3 C 74 % 14.55 C
2595 31-05-2016 13:20:00 19.4 C 75 % 14.86 C
2596 31-05-2016 13:25:00 19.5 C 73 % 14.53 C
2597 31-05-2016 13:30:00 19.6 C 73 % 14.63 C
2598 31-05-2016 13:35:00 19.7 C 78 % 15.76 C
2599 31-05-2016 13:40:00 19.5 C 76 % 15.16 C
2600 31-05-2016 13:45:00 19.4 C 79 % 15.66 C
Sensor: Nr:Datum:Temp:Feuchte:Taupunkt:
Aussen-T/F 2601 31-05-2016 13:50:00 19.1 C 75 % 14.57 C
2602 31-05-2016 13:55:00 18.7 C 79 % 14.99 C
2603 31-05-2016 14:00:00 18.5 C 80 % 14.99 C
2604 31-05-2016 14:05:00 18.4 C 80 % 14.89 C
2605 31-05-2016 14:10:00 18.6 C 82 % 15.47 C
2606 31-05-2016 14:15:00 18.7 C 79 % 14.99 C
2607 31-05-2016 14:20:00 18.8 C 83 % 15.85 C
2608 31-05-2016 14:25:00 18.8 C 83 % 15.85 C
2609 31-05-2016 14:30:00 18.6 C 81 % 15.28 C
2610 31-05-2016 14:35:00 18.3 C 83 % 15.36 C
2611 31-05-2016 14:40:00 18.1 C 84 % 15.35 C
2612 31-05-2016 14:45:00 18 C 86 % 15.62 C
2613 31-05-2016 14:50:00 17.9 C 86 % 15.53 C
2614 31-05-2016 14:55:00 18.1 C 83 % 15.17 C
2615 31-05-2016 15:00:00 18.3 C 86 % 15.92 C
2616 31-05-2016 15:05:00 18.6 C 84 % 15.84 C
2617 31-05-2016 15:10:00 18.7 C 82 % 15.57 C
2618 31-05-2016 15:15:00 18.9 C 81 % 15.57 C
2619 31-05-2016 15:20:00 19.1 C 82 % 15.96 C
2620 31-05-2016 15:25:00 19.2 C 83 % 16.24 C
2621 31-05-2016 15:30:00 19.1 C 80 % 15.57 C
2622 31-05-2016 15:35:00 19.1 C 80 % 15.57 C
2623 31-05-2016 15:40:00 19.1 C 80 % 15.57 C
2624 31-05-2016 15:45:00 19.2 C 82 % 16.05 C
2625 31-05-2016 15:50:00 19.2 C 78 % 15.27 C
Sensor: Nr:Datum:Temp:Feuchte:Taupunkt:
Aussen-T/F 2626 31-05-2016 15:55:00 19.2 C 73 % 14.25 C
2627 31-05-2016 16:00:00 19.2 C 79 % 15.47 C
2628 31-05-2016 16:05:00 19.3 C 74 % 14.55 C
2629 31-05-2016 16:10:00 19.3 C 73 % 14.34 C
2630 31-05-2016 16:15:00 19.2 C 78 % 15.27 C
2631 31-05-2016 16:20:00 19.2 C 79 % 15.47 C
2632 31-05-2016 16:25:00 19.3 C 78 % 15.37 C
2633 31-05-2016 16:30:00 19.3 C 77 % 15.17 C
2634 31-05-2016 16:35:00 19.4 C 78 % 15.47 C
2635 31-05-2016 16:40:00 19.3 C 75 % 14.76 C
2636 31-05-2016 16:45:00 19.3 C 76 % 14.97 C
2637 31-05-2016 16:50:00 19.4 C 81 % 16.06 C
2638 31-05-2016 16:55:00 19.3 C 80 % 15.76 C
2639 31-05-2016 17:00:00 19.2 C 79 % 15.47 C
2640 31-05-2016 17:05:00 19.1 C 77 % 14.97 C
2641 31-05-2016 17:10:00 19.1 C 80 % 15.57 C
2642 31-05-2016 17:15:00 19 C 74 % 14.26 C
2643 31-05-2016 17:20:00 19.1 C 78 % 15.18 C
2644 31-05-2016 17:25:00 19.1 C 76 % 14.77 C
2645 31-05-2016 17:30:00 19.1 C 81 % 15.76 C
2646 31-05-2016 17:35:00 19.1 C 76 % 14.77 C
2647 31-05-2016 17:40:00 19.1 C 78 % 15.18 C
2648 31-05-2016 17:45:00 19 C 75 % 14.47 C
2649 31-05-2016 17:50:00 19 C 76 % 14.68 C
2650 31-05-2016 17:55:00 19.2 C 75 % 14.66 C
Sensor: Nr:Datum:Temp:Feuchte:Taupunkt:
Aussen-T/F 2651 31-05-2016 18:00:00 19.5 C 74 % 14.74 C
2652 31-05-2016 18:05:00 20.1 C 71 % 14.68 C
2653 31-05-2016 18:10:00 20.2 C 70 % 14.56 C
2654 31-05-2016 18:15:00 20.2 C 71 % 14.78 C
2655 31-05-2016 18:20:00 20.3 C 72 % 15.09 C
2656 31-05-2016 18:25:00 20.3 C 75 % 15.72 C
2657 31-05-2016 18:30:00 20.2 C 73 % 15.21 C
2658 31-05-2016 18:35:00 20 C 75 % 15.43 C
2659 31-05-2016 18:40:00 19.8 C 78 % 15.85 C
2660 31-05-2016 18:45:00 19.6 C 80 % 16.06 C
2661 31-05-2016 18:50:00 19.3 C 78 % 15.37 C
2662 31-05-2016 18:55:00 19.1 C 81 % 15.76 C
2663 31-05-2016 19:00:00 19 C 84 % 16.24 C
2664 31-05-2016 19:05:00 18.8 C 83 % 15.85 C
2665 31-05-2016 19:10:00 18.7 C 84 % 15.94 C
2666 31-05-2016 19:15:00 18.7 C 85 % 16.13 C
2667 31-05-2016 19:20:00 18.6 C 86 % 16.21 C
2668 31-05-2016 19:25:00 18.6 C 86 % 16.21 C
2669 31-05-2016 19:30:00 18.6 C 87 % 16.39 C
2670 31-05-2016 19:35:00 18.6 C 87 % 16.39 C
2671 31-05-2016 19:40:00 18.5 C 86 % 16.11 C
2672 31-05-2016 19:45:00 18.3 C 83 % 15.36 C
2673 31-05-2016 19:50:00 18.3 C 86 % 15.92 C
2674 31-05-2016 19:55:00 18.3 C 87 % 16.1 C
2675 31-05-2016 20:00:00 18.2 C 87 % 16 C
Sensor: Nr:Datum:Temp:Feuchte:Taupunkt:
Aussen-T/F 2676 31-05-2016 20:05:00 18.1 C 87 % 15.9 C
2677 31-05-2016 20:10:00 18 C 87 % 15.8 C
2678 31-05-2016 20:15:00 17.9 C 87 % 15.71 C
2679 31-05-2016 20:20:00 17.8 C 87 % 15.61 C
2680 31-05-2016 20:25:00 17.7 C 87 % 15.51 C
2681 31-05-2016 20:30:00 17.6 C 87 % 15.41 C
2682 31-05-2016 20:35:00 17.5 C 88 % 15.49 C
2683 31-05-2016 20:40:00 17.4 C 88 % 15.39 C
2684 31-05-2016 20:45:00 17.3 C 88 % 15.29 C
2685 31-05-2016 20:50:00 17.2 C 88 % 15.2 C
2686 31-05-2016 20:55:00 17.1 C 88 % 15.1 C
2687 31-05-2016 21:00:00 17.1 C 88 % 15.1 C
2688 31-05-2016 21:05:00 16.9 C 88 % 14.9 C
2689 31-05-2016 21:10:00 16.8 C 88 % 14.8 C
2690 31-05-2016 21:15:00 16.7 C 88 % 14.7 C
2691 31-05-2016 21:20:00 16.6 C 88 % 14.6 C
2692 31-05-2016 21:25:00 16.5 C 88 % 14.51 C
2693 31-05-2016 21:30:00 16.4 C 88 % 14.41 C
2694 31-05-2016 21:35:00 16.3 C 88 % 14.31 C
2695 31-05-2016 21:40:00 16.3 C 89 % 14.48 C
2696 31-05-2016 21:45:00 16.3 C 89 % 14.48 C
2697 31-05-2016 21:50:00 16.2 C 89 % 14.39 C
2698 31-05-2016 21:55:00 16.2 C 89 % 14.39 C
2699 31-05-2016 22:00:00 16.1 C 90 % 14.46 C
2700 31-05-2016 22:05:00 16.1 C 90 % 14.46 C
Sensor: Nr:Datum:Temp:Feuchte:Taupunkt:
Aussen-T/F 2701 31-05-2016 22:10:00 16.1 C 90 % 14.46 C
2702 31-05-2016 22:15:00 16 C 90 % 14.36 C
2703 31-05-2016 22:20:00 16 C 90 % 14.36 C
2704 31-05-2016 22:25:00 16 C 91 % 14.53 C
2705 31-05-2016 22:30:00 15.9 C 91 % 14.43 C
2706 31-05-2016 22:35:00 15.9 C 91 % 14.43 C
2707 31-05-2016 22:40:00 15.9 C 91 % 14.43 C
2708 31-05-2016 22:45:00 15.8 C 91 % 14.33 C
2709 31-05-2016 22:50:00 15.8 C 91 % 14.33 C
2710 31-05-2016 22:55:00 15.8 C 92 % 14.5 C
2711 31-05-2016 23:00:00 15.7 C 92 % 14.4 C
2712 31-05-2016 23:05:00 15.7 C 92 % 14.4 C
2713 31-05-2016 23:10:00 15.7 C 92 % 14.4 C
2714 31-05-2016 23:15:00 15.6 C 92 % 14.31 C
2715 31-05-2016 23:20:00 15.6 C 92 % 14.31 C
2716 31-05-2016 23:25:00 15.6 C 92 % 14.31 C
2717 31-05-2016 23:30:00 15.6 C 92 % 14.31 C
2718 31-05-2016 23:35:00 15.5 C 92 % 14.21 C
2719 31-05-2016 23:40:00 15.5 C 92 % 14.21 C
2720 31-05-2016 23:45:00 15.4 C 93 % 14.27 C
2721 31-05-2016 23:50:00 15.4 C 92 % 14.11 C
2722 31-05-2016 23:55:00 15.4 C 92 % 14.11 C
2723 01-06-2016 00:00:00 15.4 C 93 % 14.27 C
2724 01-06-2016 00:05:00 15.4 C 93 % 14.27 C
2725 01-06-2016 00:10:00 15.4 C 93 % 14.27 C
Sensor: Nr:Datum:Temp:Feuchte:Taupunkt:
Aussen-T/F 2726 01-06-2016 00:15:00 15.3 C 93 % 14.18 C
2727 01-06-2016 00:20:00 15.3 C 92 % 14.01 C
2728 01-06-2016 00:25:00 15.3 C 93 % 14.18 C
2729 01-06-2016 00:30:00 15.3 C 93 % 14.18 C
2730 01-06-2016 00:35:00 15.3 C 93 % 14.18 C
2731 01-06-2016 00:40:00 15.3 C 93 % 14.18 C
2732 01-06-2016 00:45:00 15.2 C 93 % 14.08 C
2733 01-06-2016 00:50:00 15.2 C 93 % 14.08 C
2734 01-06-2016 00:55:00 15.2 C 93 % 14.08 C
2735 01-06-2016 01:00:00 15.2 C 93 % 14.08 C
2736 01-06-2016 01:05:00 15.2 C 93 % 14.08 C
2737 01-06-2016 01:10:00 15.1 C 93 % 13.98 C
2738 01-06-2016 01:15:00 15.1 C 93 % 13.98 C
2739 01-06-2016 01:20:00 15.1 C 93 % 13.98 C
2740 01-06-2016 01:25:00 15.1 C 93 % 13.98 C
2741 01-06-2016 01:30:00 15 C 93 % 13.88 C
2742 01-06-2016 01:35:00 15 C 93 % 13.88 C
2743 01-06-2016 01:40:00 14.9 C 93 % 13.78 C
2744 01-06-2016 01:45:00 14.9 C 93 % 13.78 C
2745 01-06-2016 01:50:00 14.9 C 93 % 13.78 C
2746 01-06-2016 01:55:00 14.8 C 94 % 13.84 C
2747 01-06-2016 02:00:00 14.8 C 94 % 13.84 C
2748 01-06-2016 02:05:00 14.8 C 94 % 13.84 C
2749 01-06-2016 02:10:00 14.8 C 94 % 13.84 C
2750 01-06-2016 02:15:00 14.8 C 94 % 13.84 C
Sensor: Nr:Datum:Temp:Feuchte:Taupunkt:
Aussen-T/F 2751 01-06-2016 02:20:00 14.7 C 94 % 13.74 C
2752 01-06-2016 02:25:00 14.7 C 94 % 13.74 C
2753 01-06-2016 02:30:00 14.7 C 94 % 13.74 C
2754 01-06-2016 02:35:00 14.6 C 94 % 13.65 C
2755 01-06-2016 02:40:00 14.5 C 94 % 13.55 C
2756 01-06-2016 02:45:00 14.4 C 94 % 13.45 C
2757 01-06-2016 02:50:00 14.3 C 94 % 13.35 C
2758 01-06-2016 02:55:00 14.3 C 94 % 13.35 C
2759 01-06-2016 03:00:00 14.2 C 94 % 13.25 C
2760 01-06-2016 03:05:00 14.1 C 94 % 13.15 C
2761 01-06-2016 03:10:00 14.1 C 94 % 13.15 C
2762 01-06-2016 03:15:00 13.9 C 94 % 12.95 C
2763 01-06-2016 03:20:00 13.8 C 94 % 12.85 C
2764 01-06-2016 03:25:00 13.8 C 94 % 12.85 C
2765 01-06-2016 03:30:00 13.8 C 94 % 12.85 C
2766 01-06-2016 03:35:00 13.8 C 94 % 12.85 C
2767 01-06-2016 03:40:00 13.8 C 95 % 13.01 C
2768 01-06-2016 03:45:00 13.8 C 95 % 13.01 C
2769 01-06-2016 03:50:00 13.8 C 95 % 13.01 C
2770 01-06-2016 03:55:00 13.8 C 95 % 13.01 C
2771 01-06-2016 04:00:00 13.8 C 95 % 13.01 C
2772 01-06-2016 04:05:00 13.8 C 95 % 13.01 C
2773 01-06-2016 04:10:00 13.8 C 95 % 13.01 C
2774 01-06-2016 04:15:00 13.8 C 95 % 13.01 C
2775 01-06-2016 04:20:00 13.8 C 95 % 13.01 C
Sensor: Nr:Datum:Temp:Feuchte:Taupunkt:
Aussen-T/F 2776 01-06-2016 04:25:00 13.8 C 95 % 13.01 C
2777 01-06-2016 04:30:00 13.8 C 95 % 13.01 C
2778 01-06-2016 04:35:00 13.8 C 95 % 13.01 C
2779 01-06-2016 04:40:00 13.8 C 95 % 13.01 C
2780 01-06-2016 04:45:00 13.8 C 95 % 13.01 C
2781 01-06-2016 04:50:00 13.8 C 95 % 13.01 C
2782 01-06-2016 04:55:00 13.8 C 95 % 13.01 C
2783 01-06-2016 05:00:00 13.7 C 95 % 12.91 C
2784 01-06-2016 05:05:00 13.7 C 95 % 12.91 C
2785 01-06-2016 05:10:00 13.8 C 95 % 13.01 C
2786 01-06-2016 05:15:00 13.7 C 95 % 12.91 C
2787 01-06-2016 05:20:00 13.7 C 95 % 12.91 C
2788 01-06-2016 05:25:00 13.7 C 95 % 12.91 C
2789 01-06-2016 05:30:00 13.7 C 95 % 12.91 C
2790 01-06-2016 05:35:00 13.7 C 95 % 12.91 C
2791 01-06-2016 05:40:00 13.7 C 96 % 13.07 C
2792 01-06-2016 05:45:00 13.7 C 96 % 13.07 C
2793 01-06-2016 05:50:00 13.7 C 96 % 13.07 C
2794 01-06-2016 05:55:00 13.7 C 96 % 13.07 C
2795 01-06-2016 06:00:00 13.7 C 96 % 13.07 C
2796 01-06-2016 06:05:00 13.8 C 96 % 13.17 C
2797 01-06-2016 06:10:00 13.8 C 96 % 13.17 C
2798 01-06-2016 06:15:00 13.8 C 96 % 13.17 C
2799 01-06-2016 06:20:00 13.8 C 96 % 13.17 C
2800 01-06-2016 06:25:00 13.9 C 96 % 13.27 C
Sensor: Nr:Datum:Temp:Feuchte:Taupunkt:
Aussen-T/F 2801 01-06-2016 06:30:00 13.9 C 95 % 13.11 C
2802 01-06-2016 06:35:00 13.9 C 95 % 13.11 C
2803 01-06-2016 06:40:00 13.9 C 95 % 13.11 C
2804 01-06-2016 06:45:00 14 C 96 % 13.37 C
2805 01-06-2016 06:50:00 14 C 95 % 13.21 C
2806 01-06-2016 06:55:00 14.1 C 95 % 13.31 C
2807 01-06-2016 07:00:00 14.1 C 95 % 13.31 C
2808 01-06-2016 07:05:00 14.1 C 95 % 13.31 C
2809 01-06-2016 07:10:00 14.2 C 95 % 13.41 C
2810 01-06-2016 07:15:00 14.2 C 95 % 13.41 C
2811 01-06-2016 07:20:00 14.3 C 95 % 13.51 C
2812 01-06-2016 07:25:00 14.4 C 94 % 13.45 C
2813 01-06-2016 07:30:00 14.5 C 94 % 13.55 C
2814 01-06-2016 07:35:00 14.6 C 94 % 13.65 C
2815 01-06-2016 07:40:00 14.6 C 93 % 13.48 C
2816 01-06-2016 07:45:00 14.7 C 93 % 13.58 C
2817 01-06-2016 07:50:00 14.7 C 93 % 13.58 C
2818 01-06-2016 07:55:00 14.8 C 93 % 13.68 C
2819 01-06-2016 08:00:00 14.8 C 93 % 13.68 C
2820 01-06-2016 08:05:00 14.8 C 92 % 13.51 C
2821 01-06-2016 08:10:00 14.9 C 92 % 13.61 C
2822 01-06-2016 08:15:00 15 C 92 % 13.71 C
2823 01-06-2016 08:20:00 15.1 C 92 % 13.81 C
2824 01-06-2016 08:25:00 15.2 C 92 % 13.91 C
2825 01-06-2016 08:30:00 15.3 C 91 % 13.84 C
Sensor: Nr:Datum:Temp:Feuchte:Taupunkt:
Aussen-T/F 2826 01-06-2016 08:35:00 15.4 C 91 % 13.94 C
2827 01-06-2016 08:40:00 15.4 C 91 % 13.94 C
2828 01-06-2016 08:45:00 15.4 C 91 % 13.94 C
2829 01-06-2016 08:50:00 15.6 C 91 % 14.14 C
2830 01-06-2016 08:55:00 15.6 C 91 % 14.14 C
2831 01-06-2016 09:00:00 15.7 C 92 % 14.4 C
2832 01-06-2016 09:05:00 15.8 C 91 % 14.33 C
2833 01-06-2016 09:10:00 15.8 C 91 % 14.33 C
2834 01-06-2016 09:15:00 15.8 C 90 % 14.16 C
2835 01-06-2016 09:20:00 15.8 C 90 % 14.16 C
2836 01-06-2016 09:25:00 15.8 C 91 % 14.33 C
2837 01-06-2016 09:30:00 15.8 C 90 % 14.16 C
2838 01-06-2016 09:35:00 15.8 C 90 % 14.16 C
2839 01-06-2016 09:40:00 15.8 C 90 % 14.16 C
2840 01-06-2016 09:45:00 15.9 C 91 % 14.43 C
2841 01-06-2016 09:50:00 15.8 C 91 % 14.33 C
2842 01-06-2016 09:55:00 15.8 C 91 % 14.33 C
2843 01-06-2016 10:00:00 15.8 C 92 % 14.5 C
2844 01-06-2016 10:05:00 15.8 C 92 % 14.5 C
2845 01-06-2016 10:10:00 15.9 C 93 % 14.77 C
2846 01-06-2016 10:15:00 15.9 C 93 % 14.77 C
2847 01-06-2016 10:20:00 15.9 C 93 % 14.77 C
2848 01-06-2016 10:25:00 16 C 93 % 14.87 C
2849 01-06-2016 10:30:00 16.1 C 93 % 14.97 C
2850 01-06-2016 10:35:00 16.2 C 93 % 15.07 C
Sensor: Nr:Datum:Temp:Feuchte:Taupunkt:
Aussen-T/F 2851 01-06-2016 10:40:00 16.2 C 93 % 15.07 C
2852 01-06-2016 10:45:00 16.2 C 93 % 15.07 C
2853 01-06-2016 10:50:00 16.2 C 93 % 15.07 C
2854 01-06-2016 10:55:00 16.2 C 93 % 15.07 C
2855 01-06-2016 11:00:00 16.3 C 93 % 15.17 C
2856 01-06-2016 11:05:00 16.3 C 93 % 15.17 C
2857 01-06-2016 11:10:00 16.3 C 93 % 15.17 C
2858 01-06-2016 11:15:00 16.3 C 93 % 15.17 C
2859 01-06-2016 11:20:00 16.3 C 93 % 15.17 C
2860 01-06-2016 11:25:00 16.3 C 93 % 15.17 C
2861 01-06-2016 11:30:00 16.3 C 94 % 15.33 C
2862 01-06-2016 11:35:00 16.3 C 94 % 15.33 C
2863 01-06-2016 11:40:00 16.2 C 94 % 15.23 C
2864 01-06-2016 11:45:00 16.2 C 94 % 15.23 C
2865 01-06-2016 11:50:00 16.2 C 94 % 15.23 C
2866 01-06-2016 11:55:00 16.2 C 94 % 15.23 C
2867 01-06-2016 12:00:00 16.3 C 94 % 15.33 C
2868 01-06-2016 12:05:00 16.3 C 94 % 15.33 C
2869 01-06-2016 12:10:00 16.3 C 94 % 15.33 C
2870 01-06-2016 12:15:00 16.4 C 95 % 15.6 C
2871 01-06-2016 12:20:00 16.4 C 95 % 15.6 C
2872 01-06-2016 12:25:00 16.4 C 95 % 15.6 C
2873 01-06-2016 12:30:00 16.5 C 95 % 15.7 C
2874 01-06-2016 12:35:00 16.6 C 95 % 15.8 C
2875 01-06-2016 12:40:00 16.7 C 95 % 15.9 C
Sensor: Nr:Datum:Temp:Feuchte:Taupunkt:
Aussen-T/F 2876 01-06-2016 12:45:00 16.7 C 95 % 15.9 C
2877 01-06-2016 12:50:00 16.7 C 95 % 15.9 C
2878 01-06-2016 12:55:00 16.7 C 95 % 15.9 C
2879 01-06-2016 13:00:00 16.8 C 95 % 15.99 C
2880 01-06-2016 13:05:00 16.8 C 95 % 15.99 C
2881 01-06-2016 13:10:00 16.8 C 95 % 15.99 C
2882 01-06-2016 13:15:00 16.8 C 95 % 15.99 C
2883 01-06-2016 13:20:00 16.8 C 95 % 15.99 C
2884 01-06-2016 13:25:00 16.8 C 95 % 15.99 C
2885 01-06-2016 13:30:00 16.8 C 95 % 15.99 C
2886 01-06-2016 13:35:00 16.8 C 95 % 15.99 C
2887 01-06-2016 13:40:00 16.8 C 95 % 15.99 C
2888 01-06-2016 13:45:00 16.8 C 95 % 15.99 C
2889 01-06-2016 13:50:00 16.8 C 95 % 15.99 C
2890 01-06-2016 13:55:00 16.8 C 95 % 15.99 C
2891 01-06-2016 14:00:00 16.8 C 95 % 15.99 C
2892 01-06-2016 14:05:00 16.8 C 95 % 15.99 C
2893 01-06-2016 14:10:00 16.8 C 95 % 15.99 C
2894 01-06-2016 14:15:00 16.8 C 95 % 15.99 C
2895 01-06-2016 14:20:00 16.8 C 95 % 15.99 C
2896 01-06-2016 14:25:00 16.8 C 95 % 15.99 C
2897 01-06-2016 14:30:00 16.8 C 95 % 15.99 C
2898 01-06-2016 14:35:00 16.8 C 95 % 15.99 C
2899 01-06-2016 14:40:00 16.8 C 95 % 15.99 C
2900 01-06-2016 14:45:00 16.9 C 95 % 16.09 C
Sensor: Nr:Datum:Temp:Feuchte:Taupunkt:
Aussen-T/F 2901 01-06-2016 14:50:00 16.9 C 95 % 16.09 C
2902 01-06-2016 14:55:00 16.8 C 95 % 15.99 C
2903 01-06-2016 15:00:00 16.8 C 95 % 15.99 C
2904 01-06-2016 15:05:00 16.8 C 95 % 15.99 C
2905 01-06-2016 15:10:00 16.8 C 95 % 15.99 C
2906 01-06-2016 15:15:00 16.8 C 95 % 15.99 C
2907 01-06-2016 15:20:00 16.9 C 96 % 16.26 C
2908 01-06-2016 15:25:00 16.9 C 96 % 16.26 C
2909 01-06-2016 15:30:00 16.9 C 95 % 16.09 C
2910 01-06-2016 15:35:00 16.9 C 95 % 16.09 C
2911 01-06-2016 15:40:00 16.8 C 95 % 15.99 C
2912 01-06-2016 15:45:00 16.8 C 95 % 15.99 C
2913 01-06-2016 15:50:00 16.8 C 95 % 15.99 C
2914 01-06-2016 15:55:00 16.8 C 95 % 15.99 C
2915 01-06-2016 16:00:00 16.7 C 95 % 15.9 C
2916 01-06-2016 16:05:00 16.7 C 95 % 15.9 C
2917 01-06-2016 16:10:00 16.7 C 95 % 15.9 C
2918 01-06-2016 16:15:00 16.7 C 95 % 15.9 C
2919 01-06-2016 16:20:00 16.7 C 95 % 15.9 C
2920 01-06-2016 16:25:00 16.7 C 95 % 15.9 C
2921 01-06-2016 16:30:00 16.7 C 95 % 15.9 C
2922 01-06-2016 16:35:00 16.7 C 95 % 15.9 C
2923 01-06-2016 16:40:00 16.6 C 95 % 15.8 C
2924 01-06-2016 16:45:00 16.6 C 96 % 15.96 C
2925 01-06-2016 16:50:00 16.6 C 96 % 15.96 C
Sensor: Nr:Datum:Temp:Feuchte:Taupunkt:
Aussen-T/F 2926 01-06-2016 16:55:00 16.6 C 96 % 15.96 C
2927 01-06-2016 17:00:00 16.6 C 96 % 15.96 C
2928 01-06-2016 17:05:00 16.6 C 96 % 15.96 C
2929 01-06-2016 17:10:00 16.6 C 96 % 15.96 C
2930 01-06-2016 17:15:00 16.6 C 96 % 15.96 C
2931 01-06-2016 17:20:00 16.6 C 96 % 15.96 C
2932 01-06-2016 17:25:00 16.6 C 96 % 15.96 C
2933 01-06-2016 17:30:00 16.6 C 96 % 15.96 C
2934 01-06-2016 17:35:00 16.7 C 96 % 16.06 C
2935 01-06-2016 17:40:00 16.7 C 96 % 16.06 C
2936 01-06-2016 17:45:00 16.8 C 96 % 16.16 C
2937 01-06-2016 17:50:00 16.8 C 96 % 16.16 C
2938 01-06-2016 17:55:00 16.8 C 96 % 16.16 C
2939 01-06-2016 18:00:00 16.8 C 96 % 16.16 C
2940 01-06-2016 18:05:00 16.8 C 96 % 16.16 C
2941 01-06-2016 18:10:00 16.8 C 96 % 16.16 C
2942 01-06-2016 18:15:00 16.8 C 96 % 16.16 C
2943 01-06-2016 18:20:00 16.8 C 96 % 16.16 C
2944 01-06-2016 18:25:00 16.7 C 96 % 16.06 C
2945 01-06-2016 18:30:00 16.7 C 96 % 16.06 C
2946 01-06-2016 18:35:00 16.8 C 96 % 16.16 C
2947 01-06-2016 18:40:00 16.8 C 96 % 16.16 C
2948 01-06-2016 18:45:00 16.8 C 96 % 16.16 C
2949 01-06-2016 18:50:00 16.8 C 96 % 16.16 C
2950 01-06-2016 18:55:00 16.8 C 96 % 16.16 C
Sensor: Nr:Datum:Temp:Feuchte:Taupunkt:
Aussen-T/F 2951 01-06-2016 19:00:00 16.8 C 96 % 16.16 C
2952 01-06-2016 19:05:00 16.8 C 96 % 16.16 C
2953 01-06-2016 19:10:00 16.8 C 96 % 16.16 C
2954 01-06-2016 19:15:00 16.8 C 96 % 16.16 C
2955 01-06-2016 19:20:00 16.8 C 96 % 16.16 C
2956 01-06-2016 19:25:00 16.8 C 96 % 16.16 C
2957 01-06-2016 19:30:00 16.8 C 96 % 16.16 C
2958 01-06-2016 19:35:00 16.7 C 96 % 16.06 C
2959 01-06-2016 19:40:00 16.7 C 96 % 16.06 C
2960 01-06-2016 19:45:00 16.6 C 96 % 15.96 C
2961 01-06-2016 19:50:00 16.6 C 96 % 15.96 C
2962 01-06-2016 19:55:00 16.6 C 96 % 15.96 C
2963 01-06-2016 20:00:00 16.5 C 96 % 15.86 C
2964 01-06-2016 20:05:00 16.5 C 96 % 15.86 C
2965 01-06-2016 20:10:00 16.4 C 96 % 15.76 C
2966 01-06-2016 20:15:00 16.4 C 96 % 15.76 C
2967 01-06-2016 20:20:00 16.4 C 96 % 15.76 C
2968 01-06-2016 20:25:00 16.4 C 96 % 15.76 C
2969 01-06-2016 20:30:00 16.4 C 96 % 15.76 C
2970 01-06-2016 20:35:00 16.4 C 96 % 15.76 C
2971 01-06-2016 20:40:00 16.4 C 96 % 15.76 C
2972 01-06-2016 20:45:00 16.4 C 96 % 15.76 C
2973 01-06-2016 20:50:00 16.4 C 96 % 15.76 C
2974 01-06-2016 20:55:00 16.3 C 97 % 15.82 C
2975 01-06-2016 21:00:00 16.3 C 97 % 15.82 C
Sensor: Nr:Datum:Temp:Feuchte:Taupunkt:
Aussen-T/F 2976 01-06-2016 21:05:00 16.3 C 97 % 15.82 C
2977 01-06-2016 21:10:00 16.3 C 97 % 15.82 C
2978 01-06-2016 21:15:00 16.3 C 97 % 15.82 C
2979 01-06-2016 21:20:00 16.3 C 97 % 15.82 C
2980 01-06-2016 21:25:00 16.3 C 97 % 15.82 C
2981 01-06-2016 21:30:00 16.3 C 97 % 15.82 C
2982 01-06-2016 21:35:00 16.3 C 97 % 15.82 C
2983 01-06-2016 21:40:00 16.3 C 97 % 15.82 C
2984 01-06-2016 21:45:00 16.3 C 97 % 15.82 C
2985 01-06-2016 21:50:00 16.3 C 97 % 15.82 C
2986 01-06-2016 21:55:00 16.3 C 97 % 15.82 C
2987 01-06-2016 22:00:00 16.3 C 97 % 15.82 C
2988 01-06-2016 22:05:00 16.2 C 97 % 15.72 C
2989 01-06-2016 22:10:00 16.2 C 97 % 15.72 C
2990 01-06-2016 22:15:00 16.2 C 97 % 15.72 C
2991 01-06-2016 22:20:00 16.2 C 97 % 15.72 C
2992 01-06-2016 22:25:00 16.2 C 97 % 15.72 C
2993 01-06-2016 22:30:00 16.2 C 97 % 15.72 C
2994 01-06-2016 22:35:00 16.2 C 97 % 15.72 C
2995 01-06-2016 22:40:00 16.2 C 97 % 15.72 C
2996 01-06-2016 22:45:00 16.2 C 97 % 15.72 C
2997 01-06-2016 22:50:00 16.2 C 97 % 15.72 C
2998 01-06-2016 22:55:00 16.1 C 97 % 15.62 C
2999 01-06-2016 23:00:00 16.2 C 97 % 15.72 C
3000 01-06-2016 23:05:00 16.1 C 97 % 15.62 C
Sensor: Nr:Datum:Temp:Feuchte:Taupunkt:
Aussen-T/F 3001 01-06-2016 23:10:00 16.1 C 97 % 15.62 C
3002 01-06-2016 23:15:00 16.1 C 97 % 15.62 C
3003 01-06-2016 23:20:00 16.1 C 97 % 15.62 C
3004 01-06-2016 23:25:00 16.1 C 97 % 15.62 C
3005 01-06-2016 23:30:00 16.1 C 97 % 15.62 C
3006 01-06-2016 23:35:00 16.1 C 97 % 15.62 C
3007 01-06-2016 23:40:00 16.1 C 97 % 15.62 C
3008 01-06-2016 23:45:00 16.1 C 97 % 15.62 C
3009 01-06-2016 23:50:00 16.1 C 97 % 15.62 C
3010 01-06-2016 23:55:00 16.1 C 97 % 15.62 C
3011 02-06-2016 00:00:00 16.1 C 97 % 15.62 C
3012 02-06-2016 00:05:00 16.1 C 97 % 15.62 C
3013 02-06-2016 00:10:00 16.1 C 97 % 15.62 C
3014 02-06-2016 00:15:00 16.1 C 97 % 15.62 C
3015 02-06-2016 00:20:00 16.2 C 97 % 15.72 C
3016 02-06-2016 00:25:00 16.2 C 97 % 15.72 C
3017 02-06-2016 00:30:00 16.2 C 97 % 15.72 C
3018 02-06-2016 00:35:00 16.2 C 97 % 15.72 C
3019 02-06-2016 00:40:00 16.2 C 97 % 15.72 C
3020 02-06-2016 00:45:00 16.2 C 97 % 15.72 C
3021 02-06-2016 00:50:00 16.2 C 97 % 15.72 C
3022 02-06-2016 00:55:00 16.2 C 97 % 15.72 C
3023 02-06-2016 01:00:00 16.2 C 97 % 15.72 C
3024 02-06-2016 01:05:00 16.2 C 97 % 15.72 C
3025 02-06-2016 01:10:00 16.2 C 97 % 15.72 C
Sensor: Nr:Datum:Temp:Feuchte:Taupunkt:
Aussen-T/F 3026 02-06-2016 01:15:00 16.2 C 97 % 15.72 C
3027 02-06-2016 01:20:00 16.2 C 97 % 15.72 C
3028 02-06-2016 01:25:00 16.2 C 97 % 15.72 C
3029 02-06-2016 01:30:00 16.3 C 97 % 15.82 C
3030 02-06-2016 01:35:00 16.3 C 97 % 15.82 C
3031 02-06-2016 01:40:00 16.3 C 97 % 15.82 C
3032 02-06-2016 01:45:00 16.3 C 97 % 15.82 C
3033 02-06-2016 01:50:00 16.3 C 97 % 15.82 C
3034 02-06-2016 01:55:00 16.3 C 97 % 15.82 C
3035 02-06-2016 02:00:00 16.3 C 97 % 15.82 C
3036 02-06-2016 02:05:00 16.3 C 97 % 15.82 C
3037 02-06-2016 02:10:00 16.3 C 97 % 15.82 C
3038 02-06-2016 02:15:00 16.2 C 97 % 15.72 C
3039 02-06-2016 02:20:00 16.2 C 97 % 15.72 C
3040 02-06-2016 02:25:00 16.2 C 97 % 15.72 C
3041 02-06-2016 02:30:00 16.2 C 97 % 15.72 C
3042 02-06-2016 02:35:00 16.2 C 97 % 15.72 C
3043 02-06-2016 02:40:00 16.2 C 97 % 15.72 C
3044 02-06-2016 02:45:00 16.2 C 97 % 15.72 C
3045 02-06-2016 02:50:00 16.2 C 97 % 15.72 C
3046 02-06-2016 02:55:00 16.1 C 97 % 15.62 C
3047 02-06-2016 03:00:00 16.1 C 97 % 15.62 C
3048 02-06-2016 03:05:00 16.1 C 97 % 15.62 C
3049 02-06-2016 03:10:00 16 C 97 % 15.52 C
3050 02-06-2016 03:15:00 16 C 97 % 15.52 C
Sensor: Nr:Datum:Temp:Feuchte:Taupunkt:
Aussen-T/F 3051 02-06-2016 03:20:00 16 C 97 % 15.52 C
3052 02-06-2016 03:25:00 15.9 C 97 % 15.42 C
3053 02-06-2016 03:30:00 15.9 C 97 % 15.42 C
3054 02-06-2016 03:35:00 15.9 C 97 % 15.42 C
3055 02-06-2016 03:40:00 15.9 C 97 % 15.42 C
3056 02-06-2016 03:45:00 15.8 C 97 % 15.32 C
3057 02-06-2016 03:50:00 15.8 C 97 % 15.32 C
3058 02-06-2016 03:55:00 15.8 C 97 % 15.32 C
3059 02-06-2016 04:00:00 15.8 C 97 % 15.32 C
3060 02-06-2016 04:05:00 15.7 C 97 % 15.23 C
3061 02-06-2016 04:10:00 15.7 C 97 % 15.23 C
3062 02-06-2016 04:15:00 15.7 C 97 % 15.23 C
3063 02-06-2016 04:20:00 15.7 C 97 % 15.23 C
3064 02-06-2016 04:25:00 15.7 C 97 % 15.23 C
3065 02-06-2016 04:30:00 15.7 C 97 % 15.23 C
3066 02-06-2016 04:35:00 15.7 C 97 % 15.23 C
3067 02-06-2016 04:40:00 15.7 C 97 % 15.23 C
3068 02-06-2016 04:45:00 15.7 C 97 % 15.23 C
3069 02-06-2016 04:50:00 15.7 C 97 % 15.23 C
3070 02-06-2016 04:55:00 15.6 C 97 % 15.13 C
3071 02-06-2016 05:00:00 15.6 C 97 % 15.13 C
3072 02-06-2016 05:05:00 15.6 C 97 % 15.13 C
3073 02-06-2016 05:10:00 15.6 C 97 % 15.13 C
3074 02-06-2016 05:15:00 15.6 C 97 % 15.13 C
3075 02-06-2016 05:20:00 15.6 C 97 % 15.13 C
Sensor: Nr:Datum:Temp:Feuchte:Taupunkt:
Aussen-T/F 3076 02-06-2016 05:25:00 15.6 C 97 % 15.13 C
3077 02-06-2016 05:30:00 15.6 C 97 % 15.13 C
3078 02-06-2016 05:35:00 15.6 C 97 % 15.13 C
3079 02-06-2016 05:40:00 15.6 C 97 % 15.13 C
3080 02-06-2016 05:45:00 15.6 C 97 % 15.13 C
3081 02-06-2016 05:50:00 15.6 C 97 % 15.13 C
3082 02-06-2016 05:55:00 15.6 C 97 % 15.13 C
3083 02-06-2016 06:00:00 15.6 C 97 % 15.13 C
3084 02-06-2016 06:05:00 15.6 C 97 % 15.13 C
3085 02-06-2016 06:10:00 15.6 C 97 % 15.13 C
3086 02-06-2016 06:15:00 15.6 C 97 % 15.13 C
3087 02-06-2016 06:20:00 15.6 C 97 % 15.13 C
3088 02-06-2016 06:25:00 15.6 C 97 % 15.13 C
3089 02-06-2016 06:30:00 15.7 C 97 % 15.23 C
3090 02-06-2016 06:35:00 15.7 C 97 % 15.23 C
3091 02-06-2016 06:40:00 15.7 C 97 % 15.23 C
3092 02-06-2016 06:45:00 15.7 C 98 % 15.38 C
3093 02-06-2016 06:50:00 15.8 C 97 % 15.32 C
3094 02-06-2016 06:55:00 15.8 C 97 % 15.32 C
3095 02-06-2016 07:00:00 15.8 C 97 % 15.32 C
3096 02-06-2016 07:05:00 15.8 C 97 % 15.32 C
3097 02-06-2016 07:10:00 15.8 C 97 % 15.32 C
3098 02-06-2016 07:15:00 15.9 C 97 % 15.42 C
3099 02-06-2016 07:20:00 15.9 C 97 % 15.42 C
3100 02-06-2016 07:25:00 15.9 C 98 % 15.58 C
Sensor: Nr:Datum:Temp:Feuchte:Taupunkt:
Aussen-T/F 3101 02-06-2016 07:30:00 15.9 C 98 % 15.58 C
3102 02-06-2016 07:35:00 16 C 98 % 15.68 C
3103 02-06-2016 07:40:00 16.1 C 98 % 15.78 C
3104 02-06-2016 07:45:00 16.2 C 97 % 15.72 C
3105 02-06-2016 07:50:00 16.3 C 98 % 15.98 C
3106 02-06-2016 07:55:00 16.3 C 98 % 15.98 C
3107 02-06-2016 08:00:00 16.4 C 98 % 16.08 C
3108 02-06-2016 08:05:00 16.3 C 98 % 15.98 C
3109 02-06-2016 08:10:00 16.4 C 98 % 16.08 C
3110 02-06-2016 08:15:00 16.4 C 98 % 16.08 C
3111 02-06-2016 08:20:00 16.4 C 98 % 16.08 C
3112 02-06-2016 08:25:00 16.4 C 98 % 16.08 C
3113 02-06-2016 08:30:00 16.4 C 97 % 15.92 C
3114 02-06-2016 08:35:00 16.6 C 97 % 16.12 C
3115 02-06-2016 08:40:00 16.6 C 97 % 16.12 C
3116 02-06-2016 08:45:00 16.5 C 97 % 16.02 C
3117 02-06-2016 08:50:00 16.5 C 97 % 16.02 C
3118 02-06-2016 08:55:00 16.6 C 97 % 16.12 C
3119 02-06-2016 09:00:00 16.6 C 97 % 16.12 C
3120 02-06-2016 09:05:00 16.6 C 97 % 16.12 C
3121 02-06-2016 09:10:00 16.6 C 97 % 16.12 C
3122 02-06-2016 09:15:00 16.7 C 97 % 16.22 C
3123 02-06-2016 09:20:00 16.7 C 97 % 16.22 C
3124 02-06-2016 09:25:00 16.7 C 97 % 16.22 C
3125 02-06-2016 09:30:00 16.8 C 97 % 16.32 C
Sensor: Nr:Datum:Temp:Feuchte:Taupunkt:
Aussen-T/F 3126 02-06-2016 09:35:00 16.8 C 97 % 16.32 C
3127 02-06-2016 09:40:00 16.9 C 96 % 16.26 C
3128 02-06-2016 09:45:00 17 C 96 % 16.36 C
3129 02-06-2016 09:50:00 17.1 C 96 % 16.46 C
3130 02-06-2016 09:55:00 17.1 C 95 % 16.29 C
3131 02-06-2016 10:00:00 17.1 C 95 % 16.29 C
3132 02-06-2016 10:05:00 17.3 C 96 % 16.66 C
3133 02-06-2016 10:10:00 17.3 C 95 % 16.49 C
3134 02-06-2016 10:15:00 17.3 C 95 % 16.49 C
3135 02-06-2016 10:20:00 17.6 C 95 % 16.79 C
3136 02-06-2016 10:25:00 17.8 C 94 % 16.82 C
3137 02-06-2016 10:30:00 17.9 C 93 % 16.75 C
3138 02-06-2016 10:35:00 18 C 92 % 16.68 C
3139 02-06-2016 10:40:00 18.2 C 92 % 16.88 C
3140 02-06-2016 10:45:00 18.3 C 92 % 16.98 C
3141 02-06-2016 10:50:00 18.4 C 92 % 17.08 C
3142 02-06-2016 10:55:00 18.6 C 92 % 17.27 C
3143 02-06-2016 11:00:00 18.7 C 92 % 17.37 C
3144 02-06-2016 11:05:00 18.8 C 92 % 17.47 C
3145 02-06-2016 11:10:00 18.9 C 90 % 17.22 C
3146 02-06-2016 11:15:00 18.8 C 88 % 16.77 C
3147 02-06-2016 11:20:00 18.8 C 88 % 16.77 C
3148 02-06-2016 11:25:00 18.8 C 89 % 16.95 C
3149 02-06-2016 11:30:00 18.9 C 88 % 16.87 C
3150 02-06-2016 11:35:00 19 C 89 % 17.15 C
Sensor: Nr:Datum:Temp:Feuchte:Taupunkt:
Aussen-T/F 3151 02-06-2016 11:40:00 19.1 C 87 % 16.89 C
3152 02-06-2016 11:45:00 19.1 C 87 % 16.89 C
3153 02-06-2016 11:50:00 19.2 C 87 % 16.98 C
3154 02-06-2016 11:55:00 19.2 C 88 % 17.16 C
3155 02-06-2016 12:00:00 19.3 C 87 % 17.08 C
3156 02-06-2016 12:05:00 19.4 C 89 % 17.54 C
3157 02-06-2016 12:10:00 19.5 C 91 % 17.99 C
3158 02-06-2016 12:15:00 19.4 C 91 % 17.89 C
3159 02-06-2016 12:20:00 19.4 C 92 % 18.07 C
3160 02-06-2016 12:25:00 19.3 C 91 % 17.79 C
3161 02-06-2016 12:30:00 19.2 C 90 % 17.52 C
3162 02-06-2016 12:35:00 19.3 C 90 % 17.62 C
3163 02-06-2016 12:40:00 19.3 C 89 % 17.44 C
3164 02-06-2016 12:45:00 19.3 C 89 % 17.44 C
3165 02-06-2016 12:50:00 19.4 C 89 % 17.54 C
3166 02-06-2016 12:55:00 19.5 C 88 % 17.46 C
3167 02-06-2016 13:00:00 19.6 C 85 % 17.01 C
3168 02-06-2016 13:05:00 19.7 C 86 % 17.29 C
3169 02-06-2016 13:10:00 19.9 C 85 % 17.3 C
3170 02-06-2016 13:15:00 20.1 C 85 % 17.5 C
3171 02-06-2016 13:20:00 20.1 C 83 % 17.12 C
3172 02-06-2016 13:25:00 20.1 C 82 % 16.93 C
3173 02-06-2016 13:30:00 20.1 C 87 % 17.87 C
3174 02-06-2016 13:35:00 20.2 C 89 % 18.33 C
3175 02-06-2016 13:40:00 20.3 C 83 % 17.32 C
Sensor: Nr:Datum:Temp:Feuchte:Taupunkt:
Aussen-T/F 3176 02-06-2016 13:45:00 20.4 C 81 % 17.03 C
3177 02-06-2016 13:50:00 20.6 C 81 % 17.22 C
3178 02-06-2016 13:55:00 20.7 C 78 % 16.73 C
3179 02-06-2016 14:00:00 20.8 C 81 % 17.42 C
3180 02-06-2016 14:05:00 20.9 C 78 % 16.92 C
3181 02-06-2016 14:10:00 21.2 C 78 % 17.21 C
3182 02-06-2016 14:15:00 21.3 C 77 % 17.1 C
3183 02-06-2016 14:20:00 21.4 C 78 % 17.4 C
3184 02-06-2016 14:25:00 21.6 C 77 % 17.39 C
3185 02-06-2016 14:30:00 21.6 C 76 % 17.19 C
3186 02-06-2016 14:35:00 21.5 C 78 % 17.5 C
3187 02-06-2016 14:40:00 21.6 C 78 % 17.6 C
3188 02-06-2016 14:45:00 21.7 C 76 % 17.28 C
3189 02-06-2016 14:50:00 21.8 C 72 % 16.53 C
3190 02-06-2016 14:55:00 21.9 C 74 % 17.06 C
3191 02-06-2016 15:00:00 21.9 C 76 % 17.48 C
3192 02-06-2016 15:05:00 21.9 C 74 % 17.06 C
3193 02-06-2016 15:10:00 22.1 C 75 % 17.46 C
3194 02-06-2016 15:15:00 22.1 C 74 % 17.25 C
3195 02-06-2016 15:20:00 22.1 C 74 % 17.25 C
3196 02-06-2016 15:25:00 22.1 C 75 % 17.46 C
3197 02-06-2016 15:30:00 22 C 78 % 17.99 C
3198 02-06-2016 15:35:00 21.9 C 76 % 17.48 C
3199 02-06-2016 15:40:00 21.8 C 71 % 16.31 C
3200 02-06-2016 15:45:00 21.7 C 75 % 17.07 C
Sensor: Nr:Datum:Temp:Feuchte:Taupunkt:
Aussen-T/F 3201 02-06-2016 15:50:00 21.8 C 81 % 18.39 C
3202 02-06-2016 15:55:00 21.8 C 79 % 18 C
3203 02-06-2016 16:00:00 21.9 C 76 % 17.48 C
3204 02-06-2016 16:05:00 22.2 C 74 % 17.34 C
3205 02-06-2016 16:10:00 22.3 C 73 % 17.23 C
3206 02-06-2016 16:15:00 22.3 C 74 % 17.44 C
3207 02-06-2016 16:20:00 22.2 C 77 % 17.98 C
3208 02-06-2016 16:25:00 22.2 C 80 % 18.58 C
3209 02-06-2016 16:30:00 22.1 C 82 % 18.88 C
3210 02-06-2016 16:35:00 22.1 C 83 % 19.08 C
3211 02-06-2016 16:40:00 21.9 C 83 % 18.88 C
3212 02-06-2016 16:45:00 21.8 C 84 % 18.97 C
3213 02-06-2016 16:50:00 21.6 C 85 % 18.97 C
3214 02-06-2016 16:55:00 21.4 C 84 % 18.58 C
3215 02-06-2016 17:00:00 21.3 C 81 % 17.91 C
3216 02-06-2016 17:05:00 21.3 C 81 % 17.91 C
3217 02-06-2016 17:10:00 21.3 C 81 % 17.91 C
3218 02-06-2016 17:15:00 21.3 C 81 % 17.91 C
3219 02-06-2016 17:20:00 21.4 C 84 % 18.58 C
3220 02-06-2016 17:25:00 21.3 C 80 % 17.71 C
3221 02-06-2016 17:30:00 21.3 C 79 % 17.51 C
3222 02-06-2016 17:35:00 21.2 C 80 % 17.61 C
3223 02-06-2016 17:40:00 21.1 C 81 % 17.71 C
3224 02-06-2016 17:45:00 21 C 85 % 18.38 C
3225 02-06-2016 17:50:00 20.8 C 85 % 18.18 C
Sensor: Nr:Datum:Temp:Feuchte:Taupunkt:
Aussen-T/F 3226 02-06-2016 17:55:00 20.5 C 86 % 18.08 C
3227 02-06-2016 18:00:00 20.1 C 87 % 17.87 C
3228 02-06-2016 18:05:00 19.4 C 84 % 16.63 C
3229 02-06-2016 18:10:00 18.9 C 86 % 16.51 C
3230 02-06-2016 18:15:00 18.2 C 88 % 16.18 C
3231 02-06-2016 18:20:00 17.7 C 90 % 16.04 C
3232 02-06-2016 18:25:00 17.4 C 91 % 15.92 C
3233 02-06-2016 18:30:00 17.3 C 92 % 15.99 C
3234 02-06-2016 18:35:00 17.1 C 92 % 15.79 C
3235 02-06-2016 18:40:00 16.9 C 93 % 15.76 C
3236 02-06-2016 18:45:00 16.8 C 93 % 15.66 C
3237 02-06-2016 18:50:00 16.7 C 93 % 15.56 C
3238 02-06-2016 18:55:00 16.6 C 93 % 15.46 C
3239 02-06-2016 19:00:00 16.4 C 93 % 15.27 C
3240 02-06-2016 19:05:00 16.3 C 94 % 15.33 C
3241 02-06-2016 19:10:00 16.3 C 94 % 15.33 C
3242 02-06-2016 19:15:00 16.2 C 94 % 15.23 C
3243 02-06-2016 19:20:00 16.2 C 94 % 15.23 C
3244 02-06-2016 19:25:00 16.2 C 94 % 15.23 C
3245 02-06-2016 19:30:00 16.2 C 94 % 15.23 C
3246 02-06-2016 19:35:00 16.1 C 94 % 15.13 C
3247 02-06-2016 19:40:00 16.1 C 95 % 15.3 C
3248 02-06-2016 19:45:00 16.1 C 95 % 15.3 C
3249 02-06-2016 19:50:00 16.1 C 95 % 15.3 C
3250 02-06-2016 19:55:00 16.1 C 95 % 15.3 C
Sensor: Nr:Datum:Temp:Feuchte:Taupunkt:
Aussen-T/F 3251 02-06-2016 20:00:00 16.1 C 95 % 15.3 C
3252 02-06-2016 20:05:00 16.1 C 95 % 15.3 C
3253 02-06-2016 20:10:00 16.1 C 95 % 15.3 C
3254 02-06-2016 20:15:00 16.1 C 95 % 15.3 C
3255 02-06-2016 20:20:00 16 C 95 % 15.2 C
3256 02-06-2016 20:25:00 16 C 95 % 15.2 C
3257 02-06-2016 20:30:00 16 C 95 % 15.2 C
3258 02-06-2016 20:35:00 15.9 C 95 % 15.1 C
3259 02-06-2016 20:40:00 15.9 C 95 % 15.1 C
3260 02-06-2016 20:45:00 15.9 C 95 % 15.1 C
3261 02-06-2016 20:50:00 15.9 C 95 % 15.1 C
3262 02-06-2016 20:55:00 15.9 C 95 % 15.1 C
3263 02-06-2016 21:00:00 15.9 C 96 % 15.26 C
3264 02-06-2016 21:05:00 15.9 C 96 % 15.26 C
3265 02-06-2016 21:10:00 15.9 C 96 % 15.26 C
3266 02-06-2016 21:15:00 15.9 C 96 % 15.26 C
3267 02-06-2016 21:20:00 15.8 C 96 % 15.16 C
3268 02-06-2016 21:25:00 15.8 C 96 % 15.16 C
3269 02-06-2016 21:30:00 15.8 C 96 % 15.16 C
3270 02-06-2016 21:35:00 15.8 C 96 % 15.16 C
3271 02-06-2016 21:40:00 15.7 C 96 % 15.06 C
3272 02-06-2016 21:45:00 15.7 C 96 % 15.06 C
3273 02-06-2016 21:50:00 15.7 C 96 % 15.06 C
3274 02-06-2016 21:55:00 15.7 C 96 % 15.06 C
3275 02-06-2016 22:00:00 15.7 C 96 % 15.06 C
Sensor: Nr:Datum:Temp:Feuchte:Taupunkt:
Aussen-T/F 3276 02-06-2016 22:05:00 15.7 C 96 % 15.06 C
3277 02-06-2016 22:10:00 15.6 C 96 % 14.96 C
3278 02-06-2016 22:15:00 15.6 C 96 % 14.96 C
3279 02-06-2016 22:20:00 15.6 C 96 % 14.96 C
3280 02-06-2016 22:25:00 15.6 C 96 % 14.96 C
3281 02-06-2016 22:30:00 15.6 C 96 % 14.96 C
3282 02-06-2016 22:35:00 15.6 C 96 % 14.96 C
3283 02-06-2016 22:40:00 15.6 C 96 % 14.96 C
3284 02-06-2016 22:45:00 15.6 C 96 % 14.96 C
3285 02-06-2016 22:50:00 15.6 C 96 % 14.96 C
3286 02-06-2016 22:55:00 15.6 C 96 % 14.96 C
3287 02-06-2016 23:00:00 15.6 C 96 % 14.96 C
3288 02-06-2016 23:05:00 15.6 C 96 % 14.96 C
3289 02-06-2016 23:10:00 15.5 C 96 % 14.86 C
3290 02-06-2016 23:15:00 15.5 C 96 % 14.86 C
3291 02-06-2016 23:20:00 15.6 C 96 % 14.96 C
3292 02-06-2016 23:25:00 15.6 C 96 % 14.96 C
3293 02-06-2016 23:30:00 15.6 C 96 % 14.96 C
3294 02-06-2016 23:35:00 15.5 C 96 % 14.86 C
3295 02-06-2016 23:40:00 15.5 C 96 % 14.86 C
3296 02-06-2016 23:45:00 15.5 C 96 % 14.86 C
3297 02-06-2016 23:50:00 15.5 C 96 % 14.86 C
3298 02-06-2016 23:55:00 15.5 C 97 % 15.03 C
3299 03-06-2016 00:00:00 15.5 C 97 % 15.03 C
3300 03-06-2016 00:05:00 15.5 C 96 % 14.86 C
Sensor: Nr:Datum:Temp:Feuchte:Taupunkt:
Aussen-T/F 3301 03-06-2016 00:10:00 15.5 C 96 % 14.86 C
3302 03-06-2016 00:15:00 15.4 C 96 % 14.77 C
3303 03-06-2016 00:20:00 15.4 C 96 % 14.77 C
3304 03-06-2016 00:25:00 15.4 C 96 % 14.77 C
3305 03-06-2016 00:30:00 15.4 C 96 % 14.77 C
3306 03-06-2016 00:35:00 15.3 C 96 % 14.67 C
3307 03-06-2016 00:40:00 15.3 C 96 % 14.67 C
3308 03-06-2016 00:45:00 15.3 C 96 % 14.67 C
3309 03-06-2016 00:50:00 15.2 C 96 % 14.57 C
3310 03-06-2016 00:55:00 15.2 C 96 % 14.57 C
3311 03-06-2016 01:00:00 15.2 C 96 % 14.57 C
3312 03-06-2016 01:05:00 15.2 C 97 % 14.73 C
3313 03-06-2016 01:10:00 15.1 C 96 % 14.47 C
3314 03-06-2016 01:15:00 15.1 C 96 % 14.47 C
3315 03-06-2016 01:20:00 15.1 C 96 % 14.47 C
3316 03-06-2016 01:25:00 15.1 C 96 % 14.47 C
3317 03-06-2016 01:30:00 15.1 C 96 % 14.47 C
3318 03-06-2016 01:35:00 15.1 C 96 % 14.47 C
3319 03-06-2016 01:40:00 15.1 C 96 % 14.47 C
3320 03-06-2016 01:45:00 15.1 C 96 % 14.47 C
3321 03-06-2016 01:50:00 15.1 C 96 % 14.47 C
3322 03-06-2016 01:55:00 15 C 97 % 14.53 C
3323 03-06-2016 02:00:00 15 C 97 % 14.53 C
3324 03-06-2016 02:05:00 15 C 97 % 14.53 C
3325 03-06-2016 02:10:00 15 C 97 % 14.53 C
Sensor: Nr:Datum:Temp:Feuchte:Taupunkt:
Aussen-T/F 3326 03-06-2016 02:15:00 15.1 C 97 % 14.63 C
3327 03-06-2016 02:20:00 15.1 C 97 % 14.63 C
3328 03-06-2016 02:25:00 15.1 C 97 % 14.63 C
3329 03-06-2016 02:30:00 15.1 C 97 % 14.63 C
3330 03-06-2016 02:35:00 15.1 C 97 % 14.63 C
3331 03-06-2016 02:40:00 15.2 C 97 % 14.73 C
3332 03-06-2016 02:45:00 15.2 C 97 % 14.73 C
3333 03-06-2016 02:50:00 15.2 C 97 % 14.73 C
3334 03-06-2016 02:55:00 15.2 C 97 % 14.73 C
3335 03-06-2016 03:00:00 15.3 C 97 % 14.83 C
3336 03-06-2016 03:05:00 15.3 C 97 % 14.83 C
3337 03-06-2016 03:10:00 15.3 C 97 % 14.83 C
3338 03-06-2016 03:15:00 15.3 C 97 % 14.83 C
3339 03-06-2016 03:20:00 15.3 C 97 % 14.83 C
3340 03-06-2016 03:25:00 15.3 C 97 % 14.83 C
3341 03-06-2016 03:30:00 15.3 C 97 % 14.83 C
3342 03-06-2016 03:35:00 15.3 C 97 % 14.83 C
3343 03-06-2016 03:40:00 15.3 C 97 % 14.83 C
3344 03-06-2016 03:45:00 15.3 C 97 % 14.83 C
3345 03-06-2016 03:50:00 15.4 C 97 % 14.93 C
3346 03-06-2016 03:55:00 15.4 C 97 % 14.93 C
3347 03-06-2016 04:00:00 15.4 C 97 % 14.93 C
3348 03-06-2016 04:05:00 15.4 C 97 % 14.93 C
3349 03-06-2016 04:10:00 15.4 C 97 % 14.93 C
3350 03-06-2016 04:15:00 15.4 C 97 % 14.93 C
Sensor: Nr:Datum:Temp:Feuchte:Taupunkt:
Aussen-T/F 3351 03-06-2016 04:20:00 15.4 C 97 % 14.93 C
3352 03-06-2016 04:25:00 15.4 C 97 % 14.93 C
3353 03-06-2016 04:30:00 15.4 C 97 % 14.93 C
3354 03-06-2016 04:35:00 15.4 C 97 % 14.93 C
3355 03-06-2016 04:40:00 15.5 C 97 % 15.03 C
3356 03-06-2016 04:45:00 15.5 C 97 % 15.03 C
3357 03-06-2016 04:50:00 15.5 C 97 % 15.03 C
3358 03-06-2016 04:55:00 15.5 C 97 % 15.03 C
3359 03-06-2016 05:00:00 15.4 C 97 % 14.93 C
3360 03-06-2016 05:05:00 15.4 C 97 % 14.93 C
3361 03-06-2016 05:10:00 15.4 C 97 % 14.93 C
3362 03-06-2016 05:15:00 15.4 C 97 % 14.93 C
3363 03-06-2016 05:20:00 15.4 C 97 % 14.93 C
3364 03-06-2016 05:25:00 15.4 C 97 % 14.93 C
3365 03-06-2016 05:30:00 15.4 C 97 % 14.93 C
3366 03-06-2016 05:35:00 15.4 C 97 % 14.93 C
3367 03-06-2016 05:40:00 15.4 C 97 % 14.93 C
3368 03-06-2016 05:45:00 15.4 C 97 % 14.93 C
3369 03-06-2016 05:50:00 15.4 C 97 % 14.93 C
3370 03-06-2016 05:55:00 15.4 C 97 % 14.93 C
3371 03-06-2016 06:00:00 15.4 C 97 % 14.93 C
3372 03-06-2016 06:05:00 15.5 C 97 % 15.03 C
3373 03-06-2016 06:10:00 15.5 C 97 % 15.03 C
3374 03-06-2016 06:15:00 15.5 C 97 % 15.03 C
3375 03-06-2016 06:20:00 15.5 C 97 % 15.03 C
Sensor: Nr:Datum:Temp:Feuchte:Taupunkt:
Aussen-T/F 3376 03-06-2016 06:25:00 15.6 C 97 % 15.13 C
3377 03-06-2016 06:30:00 15.6 C 97 % 15.13 C
3378 03-06-2016 06:35:00 15.6 C 97 % 15.13 C
3379 03-06-2016 06:40:00 15.6 C 97 % 15.13 C
3380 03-06-2016 06:45:00 15.6 C 97 % 15.13 C
3381 03-06-2016 06:50:00 15.6 C 97 % 15.13 C
3382 03-06-2016 06:55:00 15.6 C 97 % 15.13 C
3383 03-06-2016 07:00:00 15.4 C 97 % 14.93 C
3384 03-06-2016 07:05:00 15.3 C 97 % 14.83 C
3385 03-06-2016 07:10:00 15.3 C 97 % 14.83 C
3386 03-06-2016 07:15:00 15.2 C 97 % 14.73 C
3387 03-06-2016 07:20:00 15.2 C 97 % 14.73 C
3388 03-06-2016 07:25:00 15.2 C 97 % 14.73 C
3389 03-06-2016 07:30:00 15.2 C 97 % 14.73 C
3390 03-06-2016 07:35:00 15.2 C 97 % 14.73 C
3391 03-06-2016 07:40:00 15.2 C 97 % 14.73 C
3392 03-06-2016 07:45:00 15.2 C 97 % 14.73 C
3393 03-06-2016 07:50:00 15.1 C 97 % 14.63 C
3394 03-06-2016 07:55:00 15.1 C 97 % 14.63 C
3395 03-06-2016 08:00:00 15.2 C 97 % 14.73 C
3396 03-06-2016 08:05:00 15.2 C 97 % 14.73 C
3397 03-06-2016 08:10:00 15.3 C 97 % 14.83 C
3398 03-06-2016 08:15:00 15.3 C 97 % 14.83 C
3399 03-06-2016 08:20:00 15.4 C 97 % 14.93 C
3400 03-06-2016 08:25:00 15.4 C 97 % 14.93 C
Sensor: Nr:Datum:Temp:Feuchte:Taupunkt:
Aussen-T/F 3401 03-06-2016 08:30:00 15.5 C 97 % 15.03 C
3402 03-06-2016 08:35:00 15.6 C 97 % 15.13 C
3403 03-06-2016 08:40:00 15.6 C 97 % 15.13 C
3404 03-06-2016 08:45:00 15.6 C 97 % 15.13 C
3405 03-06-2016 08:50:00 15.6 C 97 % 15.13 C
3406 03-06-2016 08:55:00 15.6 C 97 % 15.13 C
3407 03-06-2016 09:00:00 15.7 C 97 % 15.23 C
3408 03-06-2016 09:05:00 15.8 C 97 % 15.32 C
3409 03-06-2016 09:10:00 16.1 C 98 % 15.78 C
3410 03-06-2016 09:15:00 16.1 C 97 % 15.62 C
3411 03-06-2016 09:20:00 16 C 97 % 15.52 C
3412 03-06-2016 09:25:00 16.1 C 97 % 15.62 C
3413 03-06-2016 09:30:00 16.2 C 97 % 15.72 C
3414 03-06-2016 09:35:00 16.2 C 97 % 15.72 C
3415 03-06-2016 09:40:00 16.2 C 97 % 15.72 C
3416 03-06-2016 09:45:00 16.2 C 97 % 15.72 C
3417 03-06-2016 09:50:00 16.2 C 97 % 15.72 C
3418 03-06-2016 09:55:00 16.3 C 97 % 15.82 C
3419 03-06-2016 10:00:00 16.4 C 97 % 15.92 C
3420 03-06-2016 10:05:00 16.3 C 96 % 15.66 C
3421 03-06-2016 10:10:00 16.3 C 95 % 15.5 C
3422 03-06-2016 10:15:00 16.4 C 95 % 15.6 C
3423 03-06-2016 10:20:00 16.6 C 95 % 15.8 C
3424 03-06-2016 10:25:00 16.7 C 95 % 15.9 C
3425 03-06-2016 10:30:00 16.8 C 95 % 15.99 C
Sensor: Nr:Datum:Temp:Feuchte:Taupunkt:
Aussen-T/F 3426 03-06-2016 10:35:00 17 C 94 % 16.03 C
3427 03-06-2016 10:40:00 17.3 C 94 % 16.33 C
3428 03-06-2016 10:45:00 17.4 C 92 % 16.09 C
3429 03-06-2016 10:50:00 17.5 C 91 % 16.01 C
3430 03-06-2016 10:55:00 17.6 C 92 % 16.28 C
3431 03-06-2016 11:00:00 17.7 C 92 % 16.38 C
3432 03-06-2016 11:05:00 17.7 C 91 % 16.21 C
3433 03-06-2016 11:10:00 17.8 C 90 % 16.14 C
3434 03-06-2016 11:15:00 18 C 89 % 16.16 C
3435 03-06-2016 11:20:00 18.2 C 89 % 16.36 C
3436 03-06-2016 11:25:00 18.3 C 88 % 16.28 C
3437 03-06-2016 11:30:00 18.3 C 86 % 15.92 C
3438 03-06-2016 11:35:00 18.3 C 86 % 15.92 C
3439 03-06-2016 11:40:00 18.4 C 88 % 16.38 C
3440 03-06-2016 11:45:00 18.6 C 89 % 16.75 C
3441 03-06-2016 11:50:00 18.5 C 89 % 16.65 C
3442 03-06-2016 11:55:00 18.5 C 87 % 16.3 C
3443 03-06-2016 12:00:00 18.7 C 88 % 16.67 C
3444 03-06-2016 12:05:00 18.6 C 85 % 16.03 C
3445 03-06-2016 12:10:00 18.8 C 86 % 16.41 C
3446 03-06-2016 12:15:00 18.9 C 87 % 16.69 C
3447 03-06-2016 12:20:00 18.9 C 86 % 16.51 C
3448 03-06-2016 12:25:00 19.1 C 88 % 17.07 C
3449 03-06-2016 12:30:00 19.2 C 84 % 16.43 C
3450 03-06-2016 12:35:00 19.3 C 82 % 16.15 C
Sensor: Nr:Datum:Temp:Feuchte:Taupunkt:
Aussen-T/F 3451 03-06-2016 12:40:00 19.5 C 81 % 16.15 C
3452 03-06-2016 12:45:00 19.6 C 80 % 16.06 C
3453 03-06-2016 12:50:00 19.8 C 83 % 16.83 C
3454 03-06-2016 12:55:00 19.9 C 87 % 17.67 C
3455 03-06-2016 13:00:00 19.8 C 87 % 17.57 C
3456 03-06-2016 13:05:00 19.8 C 86 % 17.39 C
3457 03-06-2016 13:10:00 19.9 C 85 % 17.3 C
3458 03-06-2016 13:15:00 20 C 88 % 17.95 C
3459 03-06-2016 13:20:00 19.9 C 88 % 17.85 C
3460 03-06-2016 13:25:00 19.7 C 89 % 17.84 C
3461 03-06-2016 13:30:00 19.6 C 89 % 17.74 C
3462 03-06-2016 13:35:00 19.3 C 90 % 17.62 C
3463 03-06-2016 13:40:00 18.9 C 89 % 17.05 C
3464 03-06-2016 13:45:00 18.6 C 90 % 16.93 C
3465 03-06-2016 13:50:00 18.2 C 90 % 16.53 C
3466 03-06-2016 13:55:00 17.9 C 91 % 16.41 C
3467 03-06-2016 14:00:00 17.8 C 92 % 16.48 C
3468 03-06-2016 14:05:00 17.7 C 93 % 16.55 C
3469 03-06-2016 14:10:00 17.7 C 93 % 16.55 C
3470 03-06-2016 14:15:00 17.6 C 93 % 16.45 C
3471 03-06-2016 14:20:00 17.6 C 93 % 16.45 C
3472 03-06-2016 14:25:00 17.6 C 94 % 16.62 C
3473 03-06-2016 14:30:00 17.6 C 94 % 16.62 C
3474 03-06-2016 14:35:00 17.7 C 94 % 16.72 C
3475 03-06-2016 14:40:00 17.7 C 94 % 16.72 C
Sensor: Nr:Datum:Temp:Feuchte:Taupunkt:
Aussen-T/F 3476 03-06-2016 14:45:00 17.8 C 94 % 16.82 C
3477 03-06-2016 14:50:00 17.8 C 95 % 16.99 C
3478 03-06-2016 14:55:00 17.8 C 95 % 16.99 C
3479 03-06-2016 15:00:00 17.9 C 95 % 17.09 C
3480 03-06-2016 15:05:00 17.9 C 95 % 17.09 C
3481 03-06-2016 15:10:00 17.9 C 95 % 17.09 C
3482 03-06-2016 15:15:00 18 C 95 % 17.19 C
3483 03-06-2016 15:20:00 18.1 C 95 % 17.29 C
3484 03-06-2016 15:25:00 18.1 C 95 % 17.29 C
3485 03-06-2016 15:30:00 18.1 C 95 % 17.29 C
3486 03-06-2016 15:35:00 18.1 C 95 % 17.29 C
3487 03-06-2016 15:40:00 18.1 C 95 % 17.29 C
3488 03-06-2016 15:45:00 18 C 94 % 17.02 C
3489 03-06-2016 15:50:00 17.9 C 95 % 17.09 C
3490 03-06-2016 15:55:00 17.9 C 95 % 17.09 C
3491 03-06-2016 16:00:00 17.7 C 94 % 16.72 C
3492 03-06-2016 16:05:00 17.6 C 94 % 16.62 C
3493 03-06-2016 16:10:00 17.5 C 94 % 16.52 C
3494 03-06-2016 16:15:00 17.4 C 94 % 16.42 C
3495 03-06-2016 16:20:00 17.4 C 95 % 16.59 C
3496 03-06-2016 16:25:00 17.3 C 95 % 16.49 C
3497 03-06-2016 16:30:00 17.3 C 95 % 16.49 C
3498 03-06-2016 16:35:00 17.3 C 95 % 16.49 C
3499 03-06-2016 16:40:00 17.3 C 95 % 16.49 C
3500 03-06-2016 16:45:00 17.3 C 95 % 16.49 C
Sensor: Nr:Datum:Temp:Feuchte:Taupunkt:
Aussen-T/F 3501 03-06-2016 16:50:00 17.3 C 96 % 16.66 C
3502 03-06-2016 16:55:00 17.4 C 96 % 16.76 C
3503 03-06-2016 17:00:00 17.5 C 96 % 16.85 C
3504 03-06-2016 17:05:00 17.6 C 96 % 16.95 C
3505 03-06-2016 17:10:00 17.7 C 96 % 17.05 C
3506 03-06-2016 17:15:00 17.8 C 96 % 17.15 C
3507 03-06-2016 17:20:00 17.9 C 96 % 17.25 C
3508 03-06-2016 17:25:00 18.3 C 97 % 17.82 C
3509 03-06-2016 17:30:00 18.8 C 97 % 18.31 C
3510 03-06-2016 17:35:00 18.9 C 96 % 18.25 C
3511 03-06-2016 17:40:00 18.9 C 95 % 18.08 C
3512 03-06-2016 17:45:00 18.9 C 94 % 17.91 C
3513 03-06-2016 17:50:00 18.8 C 94 % 17.81 C
3514 03-06-2016 17:55:00 18.7 C 94 % 17.71 C
3515 03-06-2016 18:00:00 18.8 C 94 % 17.81 C
3516 03-06-2016 18:05:00 18.9 C 95 % 18.08 C
3517 03-06-2016 18:10:00 19.2 C 95 % 18.38 C
3518 03-06-2016 18:15:00 19.2 C 95 % 18.38 C
3519 03-06-2016 18:20:00 19.3 C 95 % 18.48 C
3520 03-06-2016 18:25:00 19.3 C 95 % 18.48 C
3521 03-06-2016 18:30:00 19.3 C 94 % 18.31 C
3522 03-06-2016 18:35:00 19.3 C 94 % 18.31 C
3523 03-06-2016 18:40:00 19.2 C 94 % 18.21 C
3524 03-06-2016 18:45:00 19.2 C 94 % 18.21 C
3525 03-06-2016 18:50:00 19.1 C 94 % 18.11 C
Sensor: Nr:Datum:Temp:Feuchte:Taupunkt:
Aussen-T/F 3526 03-06-2016 18:55:00 19.1 C 94 % 18.11 C
3527 03-06-2016 19:00:00 19.2 C 94 % 18.21 C
3528 03-06-2016 19:05:00 19.2 C 94 % 18.21 C
3529 03-06-2016 19:10:00 19.1 C 94 % 18.11 C
3530 03-06-2016 19:15:00 19 C 94 % 18.01 C
3531 03-06-2016 19:20:00 18.9 C 94 % 17.91 C
3532 03-06-2016 19:25:00 18.8 C 94 % 17.81 C
3533 03-06-2016 19:30:00 18.7 C 94 % 17.71 C
3534 03-06-2016 19:35:00 18.7 C 94 % 17.71 C
3535 03-06-2016 19:40:00 18.6 C 94 % 17.62 C
3536 03-06-2016 19:45:00 18.4 C 94 % 17.42 C
3537 03-06-2016 19:50:00 18.3 C 94 % 17.32 C
3538 03-06-2016 19:55:00 18.3 C 94 % 17.32 C
3539 03-06-2016 20:00:00 18.2 C 94 % 17.22 C
3540 03-06-2016 20:05:00 18.2 C 94 % 17.22 C
3541 03-06-2016 20:10:00 18.1 C 94 % 17.12 C
3542 03-06-2016 20:15:00 17.8 C 93 % 16.65 C
3543 03-06-2016 20:20:00 17.5 C 93 % 16.36 C
3544 03-06-2016 20:25:00 17.2 C 92 % 15.89 C
3545 03-06-2016 20:30:00 17.1 C 92 % 15.79 C
3546 03-06-2016 20:35:00 16.9 C 93 % 15.76 C
3547 03-06-2016 20:40:00 16.8 C 93 % 15.66 C
3548 03-06-2016 20:45:00 16.6 C 93 % 15.46 C
3549 03-06-2016 20:50:00 16.4 C 93 % 15.27 C
3550 03-06-2016 20:55:00 16.2 C 93 % 15.07 C
Sensor: Nr:Datum:Temp:Feuchte:Taupunkt:
Aussen-T/F 3551 03-06-2016 21:00:00 16 C 94 % 15.03 C
3552 03-06-2016 21:05:00 15.9 C 94 % 14.94 C
3553 03-06-2016 21:10:00 15.9 C 94 % 14.94 C
3554 03-06-2016 21:15:00 15.8 C 95 % 15 C
3555 03-06-2016 21:20:00 15.8 C 95 % 15 C
3556 03-06-2016 21:25:00 15.8 C 95 % 15 C
3557 03-06-2016 21:30:00 15.8 C 95 % 15 C
3558 03-06-2016 21:35:00 15.8 C 95 % 15 C
3559 03-06-2016 21:40:00 15.9 C 96 % 15.26 C
3560 03-06-2016 21:45:00 15.9 C 96 % 15.26 C
3561 03-06-2016 21:50:00 15.9 C 96 % 15.26 C
3562 03-06-2016 21:55:00 15.9 C 96 % 15.26 C
3563 03-06-2016 22:00:00 15.9 C 96 % 15.26 C
3564 03-06-2016 22:05:00 16 C 96 % 15.36 C
3565 03-06-2016 22:10:00 16 C 96 % 15.36 C
3566 03-06-2016 22:15:00 16.1 C 96 % 15.46 C
3567 03-06-2016 22:20:00 16.1 C 96 % 15.46 C
3568 03-06-2016 22:25:00 16.2 C 96 % 15.56 C
3569 03-06-2016 22:30:00 16.2 C 96 % 15.56 C
3570 03-06-2016 22:35:00 16.2 C 96 % 15.56 C
3571 03-06-2016 22:40:00 16.3 C 96 % 15.66 C
3572 03-06-2016 22:45:00 16.3 C 96 % 15.66 C
3573 03-06-2016 22:50:00 16.3 C 96 % 15.66 C
3574 03-06-2016 22:55:00 16.3 C 96 % 15.66 C
3575 03-06-2016 23:00:00 16.3 C 96 % 15.66 C
Sensor: Nr:Datum:Temp:Feuchte:Taupunkt:
Aussen-T/F 3576 03-06-2016 23:05:00 16.3 C 96 % 15.66 C
3577 03-06-2016 23:10:00 16.3 C 97 % 15.82 C
3578 03-06-2016 23:15:00 16.3 C 97 % 15.82 C
3579 03-06-2016 23:20:00 16.3 C 96 % 15.66 C
3580 03-06-2016 23:25:00 16.3 C 96 % 15.66 C
3581 03-06-2016 23:30:00 16.3 C 96 % 15.66 C
3582 03-06-2016 23:35:00 16.3 C 96 % 15.66 C
3583 03-06-2016 23:40:00 16.2 C 96 % 15.56 C
3584 03-06-2016 23:45:00 16.2 C 97 % 15.72 C
3585 03-06-2016 23:50:00 16.2 C 96 % 15.56 C
3586 03-06-2016 23:55:00 16.1 C 96 % 15.46 C
3587 04-06-2016 00:00:00 16.1 C 96 % 15.46 C
3588 04-06-2016 00:05:00 16.1 C 96 % 15.46 C
3589 04-06-2016 00:10:00 16 C 96 % 15.36 C
3590 04-06-2016 00:15:00 16 C 96 % 15.36 C
3591 04-06-2016 00:20:00 16 C 97 % 15.52 C
3592 04-06-2016 00:25:00 15.9 C 97 % 15.42 C
3593 04-06-2016 00:30:00 16.1 C 97 % 15.62 C
3594 04-06-2016 00:35:00 16.2 C 97 % 15.72 C
3595 04-06-2016 00:40:00 16.2 C 97 % 15.72 C
3596 04-06-2016 00:45:00 16.2 C 97 % 15.72 C
3597 04-06-2016 00:50:00 16.2 C 97 % 15.72 C
3598 04-06-2016 00:55:00 16.2 C 97 % 15.72 C
3599 04-06-2016 01:00:00 16.2 C 97 % 15.72 C
3600 04-06-2016 01:05:00 16.1 C 97 % 15.62 C
Sensor: Nr:Datum:Temp:Feuchte:Taupunkt:
Aussen-T/F 3601 04-06-2016 01:10:00 16.1 C 97 % 15.62 C
3602 04-06-2016 01:15:00 16.1 C 97 % 15.62 C
3603 04-06-2016 01:20:00 16.1 C 97 % 15.62 C
3604 04-06-2016 01:25:00 16.1 C 97 % 15.62 C
3605 04-06-2016 01:30:00 16 C 97 % 15.52 C
3606 04-06-2016 01:35:00 16 C 97 % 15.52 C
3607 04-06-2016 01:40:00 15.9 C 97 % 15.42 C
3608 04-06-2016 01:45:00 15.9 C 97 % 15.42 C
3609 04-06-2016 01:50:00 15.9 C 97 % 15.42 C
3610 04-06-2016 01:55:00 15.8 C 97 % 15.32 C
3611 04-06-2016 02:00:00 15.7 C 97 % 15.23 C
3612 04-06-2016 02:05:00 15.6 C 97 % 15.13 C
3613 04-06-2016 02:10:00 15.5 C 97 % 15.03 C
3614 04-06-2016 02:15:00 15.4 C 97 % 14.93 C
3615 04-06-2016 02:20:00 15.3 C 97 % 14.83 C
3616 04-06-2016 02:25:00 15.3 C 97 % 14.83 C
3617 04-06-2016 02:30:00 15.3 C 97 % 14.83 C
3618 04-06-2016 02:35:00 15.2 C 97 % 14.73 C
3619 04-06-2016 02:40:00 15.2 C 97 % 14.73 C
3620 04-06-2016 02:45:00 15.1 C 97 % 14.63 C
3621 04-06-2016 02:50:00 15 C 97 % 14.53 C
3622 04-06-2016 02:55:00 15 C 97 % 14.53 C
3623 04-06-2016 03:00:00 14.9 C 97 % 14.43 C
3624 04-06-2016 03:05:00 14.9 C 97 % 14.43 C
3625 04-06-2016 03:10:00 14.9 C 97 % 14.43 C
Sensor: Nr:Datum:Temp:Feuchte:Taupunkt:
Aussen-T/F 3626 04-06-2016 03:15:00 14.9 C 97 % 14.43 C
3627 04-06-2016 03:20:00 15 C 97 % 14.53 C
3628 04-06-2016 03:25:00 15 C 97 % 14.53 C
3629 04-06-2016 03:30:00 15.1 C 97 % 14.63 C
3630 04-06-2016 03:35:00 15.1 C 97 % 14.63 C
3631 04-06-2016 03:40:00 15.1 C 97 % 14.63 C
3632 04-06-2016 03:45:00 15.2 C 97 % 14.73 C
3633 04-06-2016 03:50:00 15.2 C 97 % 14.73 C
3634 04-06-2016 03:55:00 15.2 C 97 % 14.73 C
3635 04-06-2016 04:00:00 15.2 C 97 % 14.73 C
3636 04-06-2016 04:05:00 15.2 C 97 % 14.73 C
3637 04-06-2016 04:10:00 15.2 C 97 % 14.73 C
3638 04-06-2016 04:15:00 15.2 C 97 % 14.73 C
3639 04-06-2016 04:20:00 15.2 C 97 % 14.73 C
3640 04-06-2016 04:25:00 15.3 C 97 % 14.83 C
3641 04-06-2016 04:30:00 15.3 C 97 % 14.83 C
3642 04-06-2016 04:35:00 15.4 C 97 % 14.93 C
3643 04-06-2016 04:40:00 15.4 C 97 % 14.93 C
3644 04-06-2016 04:45:00 15.4 C 97 % 14.93 C
3645 04-06-2016 04:50:00 15.4 C 97 % 14.93 C
3646 04-06-2016 04:55:00 15.4 C 97 % 14.93 C
3647 04-06-2016 05:00:00 15.4 C 97 % 14.93 C
3648 04-06-2016 05:05:00 15.4 C 97 % 14.93 C
3649 04-06-2016 05:10:00 15.4 C 97 % 14.93 C
3650 04-06-2016 05:15:00 15.4 C 97 % 14.93 C
Sensor: Nr:Datum:Temp:Feuchte:Taupunkt:
Aussen-T/F 3651 04-06-2016 05:20:00 15.4 C 97 % 14.93 C
3652 04-06-2016 05:25:00 15.4 C 97 % 14.93 C
3653 04-06-2016 05:30:00 15.4 C 97 % 14.93 C
3654 04-06-2016 05:35:00 15.4 C 97 % 14.93 C
3655 04-06-2016 05:40:00 15.4 C 97 % 14.93 C
3656 04-06-2016 05:45:00 15.4 C 97 % 14.93 C
3657 04-06-2016 05:50:00 15.3 C 97 % 14.83 C
3658 04-06-2016 05:55:00 15.2 C 97 % 14.73 C
3659 04-06-2016 06:00:00 15.2 C 97 % 14.73 C
3660 04-06-2016 06:05:00 15.2 C 97 % 14.73 C
3661 04-06-2016 06:10:00 15.2 C 97 % 14.73 C
3662 04-06-2016 06:15:00 15.3 C 97 % 14.83 C
3663 04-06-2016 06:20:00 15.3 C 97 % 14.83 C
3664 04-06-2016 06:25:00 15.2 C 97 % 14.73 C
3665 04-06-2016 06:30:00 15.2 C 97 % 14.73 C
3666 04-06-2016 06:35:00 15.2 C 97 % 14.73 C
3667 04-06-2016 06:40:00 15.2 C 97 % 14.73 C
3668 04-06-2016 06:45:00 15.3 C 97 % 14.83 C
3669 04-06-2016 06:50:00 15.3 C 97 % 14.83 C
3670 04-06-2016 06:55:00 15.3 C 97 % 14.83 C
3671 04-06-2016 07:00:00 15.3 C 97 % 14.83 C
3672 04-06-2016 07:05:00 15.3 C 97 % 14.83 C
3673 04-06-2016 07:10:00 15.3 C 97 % 14.83 C
3674 04-06-2016 07:15:00 15.3 C 97 % 14.83 C
3675 04-06-2016 07:20:00 15.3 C 97 % 14.83 C
Sensor: Nr:Datum:Temp:Feuchte:Taupunkt:
Aussen-T/F 3676 04-06-2016 07:25:00 15.4 C 97 % 14.93 C
3677 04-06-2016 07:30:00 15.5 C 97 % 15.03 C
3678 04-06-2016 07:35:00 15.5 C 97 % 15.03 C
3679 04-06-2016 07:40:00 15.4 C 97 % 14.93 C
3680 04-06-2016 07:45:00 15.4 C 97 % 14.93 C
3681 04-06-2016 07:50:00 15.5 C 97 % 15.03 C
3682 04-06-2016 07:55:00 15.6 C 97 % 15.13 C
3683 04-06-2016 08:00:00 15.6 C 97 % 15.13 C
3684 04-06-2016 08:05:00 15.6 C 97 % 15.13 C
3685 04-06-2016 08:10:00 15.5 C 97 % 15.03 C
3686 04-06-2016 08:15:00 15.6 C 97 % 15.13 C
3687 04-06-2016 08:20:00 15.7 C 97 % 15.23 C
3688 04-06-2016 08:25:00 15.8 C 97 % 15.32 C
3689 04-06-2016 08:30:00 15.9 C 97 % 15.42 C
3690 04-06-2016 08:35:00 15.8 C 97 % 15.32 C
3691 04-06-2016 08:40:00 16 C 97 % 15.52 C
3692 04-06-2016 08:45:00 16.1 C 97 % 15.62 C
3693 04-06-2016 08:50:00 16.1 C 97 % 15.62 C
3694 04-06-2016 08:55:00 16.1 C 97 % 15.62 C
3695 04-06-2016 09:00:00 16.2 C 97 % 15.72 C
3696 04-06-2016 09:05:00 16.3 C 97 % 15.82 C
3697 04-06-2016 09:10:00 16.4 C 97 % 15.92 C
3698 04-06-2016 09:15:00 16.5 C 96 % 15.86 C
3699 04-06-2016 09:20:00 16.6 C 96 % 15.96 C
3700 04-06-2016 09:25:00 16.6 C 96 % 15.96 C
Sensor: Nr:Datum:Temp:Feuchte:Taupunkt:
Aussen-T/F 3701 04-06-2016 09:30:00 16.7 C 95 % 15.9 C
3702 04-06-2016 09:35:00 16.8 C 95 % 15.99 C
3703 04-06-2016 09:40:00 16.9 C 95 % 16.09 C
3704 04-06-2016 09:45:00 17.1 C 94 % 16.13 C
3705 04-06-2016 09:50:00 17.2 C 94 % 16.23 C
3706 04-06-2016 09:55:00 17.3 C 93 % 16.16 C
3707 04-06-2016 10:00:00 17.3 C 93 % 16.16 C
3708 04-06-2016 10:05:00 17.4 C 93 % 16.26 C
3709 04-06-2016 10:10:00 17.5 C 92 % 16.19 C
3710 04-06-2016 10:15:00 17.6 C 93 % 16.45 C
3711 04-06-2016 10:20:00 17.7 C 92 % 16.38 C
3712 04-06-2016 10:25:00 17.8 C 92 % 16.48 C
3713 04-06-2016 10:30:00 18 C 92 % 16.68 C
3714 04-06-2016 10:35:00 18.2 C 91 % 16.71 C
3715 04-06-2016 10:40:00 18.3 C 90 % 16.63 C
3716 04-06-2016 10:45:00 18.5 C 91 % 17 C
3717 04-06-2016 10:50:00 18.6 C 90 % 16.93 C
3718 04-06-2016 10:55:00 18.7 C 89 % 16.85 C
3719 04-06-2016 11:00:00 18.9 C 89 % 17.05 C
3720 04-06-2016 11:05:00 18.9 C 87 % 16.69 C
3721 04-06-2016 11:10:00 19.1 C 89 % 17.24 C
3722 04-06-2016 11:15:00 19.2 C 87 % 16.98 C
3723 04-06-2016 11:20:00 19.2 C 87 % 16.98 C
3724 04-06-2016 11:25:00 19.3 C 86 % 16.9 C
3725 04-06-2016 11:30:00 19.4 C 87 % 17.18 C
Sensor: Nr:Datum:Temp:Feuchte:Taupunkt:
Aussen-T/F 3726 04-06-2016 11:35:00 19.5 C 86 % 17.1 C
3727 04-06-2016 11:40:00 19.6 C 85 % 17.01 C
3728 04-06-2016 11:45:00 19.7 C 86 % 17.29 C
3729 04-06-2016 11:50:00 19.8 C 85 % 17.21 C
3730 04-06-2016 11:55:00 19.8 C 88 % 17.75 C
3731 04-06-2016 12:00:00 19.9 C 86 % 17.49 C
3732 04-06-2016 12:05:00 19.9 C 88 % 17.85 C
3733 04-06-2016 12:10:00 19.9 C 89 % 18.03 C
3734 04-06-2016 12:15:00 19.8 C 85 % 17.21 C
3735 04-06-2016 12:20:00 19.8 C 85 % 17.21 C
3736 04-06-2016 12:25:00 19.9 C 86 % 17.49 C
3737 04-06-2016 12:30:00 19.9 C 86 % 17.49 C
3738 04-06-2016 12:35:00 19.9 C 89 % 18.03 C
3739 04-06-2016 12:40:00 19.8 C 90 % 18.11 C
3740 04-06-2016 12:45:00 19.8 C 88 % 17.75 C
3741 04-06-2016 12:50:00 19.8 C 85 % 17.21 C
3742 04-06-2016 12:55:00 19.9 C 85 % 17.3 C
3743 04-06-2016 13:00:00 20.2 C 87 % 17.97 C
3744 04-06-2016 13:05:00 20.3 C 89 % 18.43 C
3745 04-06-2016 13:10:00 20.2 C 87 % 17.97 C
3746 04-06-2016 13:15:00 20.3 C 86 % 17.88 C
3747 04-06-2016 13:20:00 20.4 C 86 % 17.98 C
3748 04-06-2016 13:25:00 20.7 C 85 % 18.09 C
3749 04-06-2016 13:30:00 20.7 C 84 % 17.9 C
3750 04-06-2016 13:35:00 20.7 C 84 % 17.9 C
Sensor: Nr:Datum:Temp:Feuchte:Taupunkt:
Aussen-T/F 3751 04-06-2016 13:40:00 20.7 C 85 % 18.09 C
3752 04-06-2016 13:45:00 20.7 C 86 % 18.27 C
3753 04-06-2016 13:50:00 20.6 C 85 % 17.99 C
3754 04-06-2016 13:55:00 20.6 C 85 % 17.99 C
3755 04-06-2016 14:00:00 20.7 C 83 % 17.71 C
3756 04-06-2016 14:05:00 20.7 C 84 % 17.9 C
3757 04-06-2016 14:10:00 20.8 C 84 % 18 C
3758 04-06-2016 14:15:00 20.9 C 84 % 18.09 C
3759 04-06-2016 14:20:00 21.1 C 84 % 18.29 C
3760 04-06-2016 14:25:00 21.2 C 82 % 18 C
3761 04-06-2016 14:30:00 21.3 C 82 % 18.1 C
3762 04-06-2016 14:35:00 21.4 C 82 % 18.2 C
3763 04-06-2016 14:40:00 21.7 C 79 % 17.9 C
3764 04-06-2016 14:45:00 21.7 C 79 % 17.9 C
3765 04-06-2016 14:50:00 21.8 C 82 % 18.59 C
3766 04-06-2016 14:55:00 21.8 C 78 % 17.79 C
3767 04-06-2016 15:00:00 21.9 C 75 % 17.27 C
3768 04-06-2016 15:05:00 22.2 C 76 % 17.77 C
3769 04-06-2016 15:10:00 22.6 C 78 % 18.57 C
3770 04-06-2016 15:15:00 22.7 C 74 % 17.83 C
3771 04-06-2016 15:20:00 22.8 C 73 % 17.71 C
3772 04-06-2016 15:25:00 22.9 C 69 % 16.91 C
3773 04-06-2016 15:30:00 23.4 C 72 % 18.06 C
3774 04-06-2016 15:35:00 23.6 C 68 % 17.35 C
3775 04-06-2016 15:40:00 23.5 C 67 % 17.02 C
Sensor: Nr:Datum:Temp:Feuchte:Taupunkt:
Aussen-T/F 3776 04-06-2016 15:45:00 23.3 C 68 % 17.06 C
3777 04-06-2016 15:50:00 23.2 C 73 % 18.09 C
3778 04-06-2016 15:55:00 23.3 C 72 % 17.97 C
3779 04-06-2016 16:00:00 23.7 C 68 % 17.44 C
3780 04-06-2016 16:05:00 24.3 C 67 % 17.78 C
3781 04-06-2016 16:10:00 24.6 C 63 % 17.09 C
3782 04-06-2016 16:15:00 24.8 C 60 % 16.51 C
3783 04-06-2016 16:20:00 24.5 C 62 % 16.74 C
3784 04-06-2016 16:25:00 24.1 C 66 % 17.35 C
3785 04-06-2016 16:30:00 23.7 C 71 % 18.13 C
3786 04-06-2016 16:35:00 23.6 C 65 % 16.64 C
3787 04-06-2016 16:40:00 23.6 C 72 % 18.26 C
3788 04-06-2016 16:45:00 23.2 C 72 % 17.87 C
3789 04-06-2016 16:50:00 22.8 C 78 % 18.76 C
3790 04-06-2016 16:55:00 22.3 C 77 % 18.07 C
3791 04-06-2016 17:00:00 22 C 76 % 17.57 C
3792 04-06-2016 17:05:00 21.7 C 79 % 17.9 C
3793 04-06-2016 17:10:00 21.4 C 78 % 17.4 C
3794 04-06-2016 17:15:00 21.2 C 80 % 17.61 C
3795 04-06-2016 17:20:00 21.1 C 81 % 17.71 C
3796 04-06-2016 17:25:00 20.8 C 81 % 17.42 C
3797 04-06-2016 17:30:00 20.7 C 85 % 18.09 C
3798 04-06-2016 17:35:00 20.3 C 85 % 17.7 C
3799 04-06-2016 17:40:00 20 C 86 % 17.59 C
3800 04-06-2016 17:45:00 19.7 C 87 % 17.47 C
Sensor: Nr:Datum:Temp:Feuchte:Taupunkt:
Aussen-T/F 3801 04-06-2016 17:50:00 19.5 C 88 % 17.46 C
3802 04-06-2016 17:55:00 19.3 C 89 % 17.44 C
3803 04-06-2016 18:00:00 19.2 C 90 % 17.52 C
3804 04-06-2016 18:05:00 19 C 90 % 17.32 C
3805 04-06-2016 18:10:00 18.7 C 90 % 17.03 C
3806 04-06-2016 18:15:00 18.5 C 90 % 16.83 C
3807 04-06-2016 18:20:00 18.3 C 91 % 16.81 C
3808 04-06-2016 18:25:00 18.2 C 91 % 16.71 C
3809 04-06-2016 18:30:00 18.2 C 92 % 16.88 C
3810 04-06-2016 18:35:00 18.2 C 93 % 17.05 C
3811 04-06-2016 18:40:00 18.2 C 93 % 17.05 C
3812 04-06-2016 18:45:00 18.2 C 93 % 17.05 C
3813 04-06-2016 18:50:00 18.2 C 93 % 17.05 C
3814 04-06-2016 18:55:00 18.2 C 94 % 17.22 C
3815 04-06-2016 19:00:00 18.2 C 94 % 17.22 C
3816 04-06-2016 19:05:00 18.3 C 94 % 17.32 C
3817 04-06-2016 19:10:00 18.4 C 94 % 17.42 C
3818 04-06-2016 19:15:00 18.6 C 95 % 17.78 C
3819 04-06-2016 19:20:00 18.9 C 95 % 18.08 C
3820 04-06-2016 19:25:00 19.3 C 95 % 18.48 C
3821 04-06-2016 19:30:00 19.7 C 95 % 18.88 C
3822 04-06-2016 19:35:00 19.8 C 93 % 18.63 C
3823 04-06-2016 19:40:00 20 C 92 % 18.66 C
3824 04-06-2016 19:45:00 20.3 C 90 % 18.61 C
3825 04-06-2016 19:50:00 20.7 C 89 % 18.82 C
Sensor: Nr:Datum:Temp:Feuchte:Taupunkt:
Aussen-T/F 3826 04-06-2016 19:55:00 21.1 C 87 % 18.85 C
3827 04-06-2016 20:00:00 21.2 C 85 % 18.58 C
3828 04-06-2016 20:05:00 21.2 C 84 % 18.39 C
3829 04-06-2016 20:10:00 20.9 C 85 % 18.28 C
3830 04-06-2016 20:15:00 20.4 C 84 % 17.61 C
3831 04-06-2016 20:20:00 20 C 86 % 17.59 C
3832 04-06-2016 20:25:00 19.5 C 86 % 17.1 C
3833 04-06-2016 20:30:00 19.1 C 87 % 16.89 C
3834 04-06-2016 20:35:00 18.7 C 88 % 16.67 C
3835 04-06-2016 20:40:00 18.3 C 89 % 16.46 C
3836 04-06-2016 20:45:00 17.9 C 90 % 16.24 C
3837 04-06-2016 20:50:00 17.7 C 90 % 16.04 C
3838 04-06-2016 20:55:00 17.4 C 91 % 15.92 C
3839 04-06-2016 21:00:00 17.1 C 92 % 15.79 C
3840 04-06-2016 21:05:00 16.9 C 92 % 15.59 C
3841 04-06-2016 21:10:00 16.7 C 92 % 15.39 C
3842 04-06-2016 21:15:00 16.6 C 93 % 15.46 C
3843 04-06-2016 21:20:00 16.4 C 93 % 15.27 C
3844 04-06-2016 21:25:00 16.4 C 94 % 15.43 C
3845 04-06-2016 21:30:00 16.3 C 94 % 15.33 C
3846 04-06-2016 21:35:00 16.3 C 94 % 15.33 C
3847 04-06-2016 21:40:00 16.4 C 95 % 15.6 C
3848 04-06-2016 21:45:00 16.4 C 95 % 15.6 C
3849 04-06-2016 21:50:00 16.4 C 95 % 15.6 C
3850 04-06-2016 21:55:00 16.3 C 95 % 15.5 C
Sensor: Nr:Datum:Temp:Feuchte:Taupunkt:
Aussen-T/F 3851 04-06-2016 22:00:00 16.3 C 95 % 15.5 C
3852 04-06-2016 22:05:00 16.3 C 95 % 15.5 C
3853 04-06-2016 22:10:00 16.3 C 95 % 15.5 C
3854 04-06-2016 22:15:00 16.3 C 95 % 15.5 C
3855 04-06-2016 22:20:00 16.3 C 95 % 15.5 C
3856 04-06-2016 22:25:00 16.2 C 95 % 15.4 C
3857 04-06-2016 22:30:00 16.1 C 95 % 15.3 C
3858 04-06-2016 22:35:00 16 C 95 % 15.2 C
3859 04-06-2016 22:40:00 15.9 C 95 % 15.1 C
3860 04-06-2016 22:45:00 15.9 C 95 % 15.1 C
3861 04-06-2016 22:50:00 15.9 C 95 % 15.1 C
3862 04-06-2016 22:55:00 15.8 C 95 % 15 C
3863 04-06-2016 23:00:00 15.8 C 95 % 15 C
3864 04-06-2016 23:05:00 15.8 C 95 % 15 C
3865 04-06-2016 23:10:00 15.8 C 96 % 15.16 C
3866 04-06-2016 23:15:00 15.8 C 96 % 15.16 C
3867 04-06-2016 23:20:00 15.9 C 96 % 15.26 C
3868 04-06-2016 23:25:00 15.9 C 96 % 15.26 C
3869 04-06-2016 23:30:00 16 C 96 % 15.36 C
3870 04-06-2016 23:35:00 16 C 96 % 15.36 C
3871 04-06-2016 23:40:00 16.1 C 96 % 15.46 C
3872 04-06-2016 23:45:00 16.1 C 96 % 15.46 C
3873 04-06-2016 23:50:00 16.1 C 96 % 15.46 C
3874 04-06-2016 23:55:00 16.1 C 96 % 15.46 C
3875 05-06-2016 00:00:00 16.1 C 96 % 15.46 C
Sensor: Nr:Datum:Temp:Feuchte:Taupunkt:
Aussen-T/F 3876 05-06-2016 00:05:00 16.1 C 96 % 15.46 C
3877 05-06-2016 00:10:00 16.2 C 96 % 15.56 C
3878 05-06-2016 00:15:00 16.2 C 97 % 15.72 C
3